<?xml version='1.0' encoding='UTF-8'?><gpx version="1.1" creator="JPX - https://github.com/jenetics/jpx" xmlns="http://www.topografix.com/GPX/1/1"><trk><trkseg><trkpt lat="45.6824735" lon="9.6788179"><ele>241.0</ele><time>2026-04-05T07:14:49.342Z</time></trkpt><trkpt lat="45.682391" lon="9.6786584"><ele>241.00000000000003</ele><time>2026-04-05T07:14:52.342Z</time></trkpt><trkpt lat="45.682342" lon="9.6785681"><ele>241.00000000000003</ele><time>2026-04-05T07:14:53.342Z</time></trkpt><trkpt lat="45.6822919" lon="9.678482"><ele>241.0</ele><time>2026-04-05T07:14:54.342Z</time></trkpt><trkpt lat="45.6822304" lon="9.6783815"><ele>241.0</ele><time>2026-04-05T07:14:55.342Z</time></trkpt><trkpt lat="45.6821448" lon="9.6782493"><ele>240.75</ele><time>2026-04-05T07:14:56.342Z</time></trkpt><trkpt lat="45.6820542" lon="9.6781014"><ele>240.5</ele><time>2026-04-05T07:14:57.342Z</time></trkpt><trkpt lat="45.6819589" lon="9.6779456"><ele>240.25</ele><time>2026-04-05T07:14:58.342Z</time></trkpt><trkpt lat="45.6818455" lon="9.6777747"><ele>240.0</ele><time>2026-04-05T07:14:59.342Z</time></trkpt><trkpt lat="45.6817168" lon="9.6776013"><ele>240.66666666666669</ele><time>2026-04-05T07:15:00.342Z</time></trkpt><trkpt lat="45.6816017" lon="9.6774269"><ele>241.33333333333334</ele><time>2026-04-05T07:15:01.342Z</time></trkpt><trkpt lat="45.6814822" lon="9.6772554"><ele>242.0</ele><time>2026-04-05T07:15:02.342Z</time></trkpt><trkpt lat="45.6813559" lon="9.6770781"><ele>241.66666666666669</ele><time>2026-04-05T07:15:03.342Z</time></trkpt><trkpt lat="45.6812175" lon="9.6768835"><ele>241.33333333333331</ele><time>2026-04-05T07:15:04.342Z</time></trkpt><trkpt lat="45.6810694" lon="9.6766573"><ele>241.0</ele><time>2026-04-05T07:15:05.342Z</time></trkpt><trkpt lat="45.6809272" lon="9.6764173"><ele>241.0</ele><time>2026-04-05T07:15:06.342Z</time></trkpt><trkpt lat="45.6807949" lon="9.6761854"><ele>241.0</ele><time>2026-04-05T07:15:07.342Z</time></trkpt><trkpt lat="45.6806639" lon="9.675966"><ele>241.0</ele><time>2026-04-05T07:15:08.342Z</time></trkpt><trkpt lat="45.6805344" lon="9.675743"><ele>241.0</ele><time>2026-04-05T07:15:09.342Z</time></trkpt><trkpt lat="45.6804023" lon="9.675512"><ele>241.0</ele><time>2026-04-05T07:15:10.342Z</time></trkpt><trkpt lat="45.680257" lon="9.6752725"><ele>241.0</ele><time>2026-04-05T07:15:11.342Z</time></trkpt><trkpt lat="45.6801007" lon="9.6750155"><ele>241.0</ele><time>2026-04-05T07:15:12.342Z</time></trkpt><trkpt lat="45.6799454" lon="9.6747547"><ele>241.0</ele><time>2026-04-05T07:15:13.342Z</time></trkpt><trkpt lat="45.6798015" lon="9.6745138"><ele>240.33333333333331</ele><time>2026-04-05T07:15:14.342Z</time></trkpt><trkpt lat="45.6796605" lon="9.6742802"><ele>239.66666666666669</ele><time>2026-04-05T07:15:15.342Z</time></trkpt><trkpt lat="45.6795214" lon="9.6740378"><ele>239.0</ele><time>2026-04-05T07:15:16.342Z</time></trkpt><trkpt lat="45.6793816" lon="9.6738001"><ele>238.0</ele><time>2026-04-05T07:15:17.342Z</time></trkpt><trkpt lat="45.6792398" lon="9.6735544"><ele>237.0</ele><time>2026-04-05T07:15:18.342Z</time></trkpt><trkpt lat="45.6790963" lon="9.6733018"><ele>237.0</ele><time>2026-04-05T07:15:19.342Z</time></trkpt><trkpt lat="45.6789493" lon="9.6730432"><ele>237.0</ele><time>2026-04-05T07:15:20.342Z</time></trkpt><trkpt lat="45.6788039" lon="9.6727905"><ele>237.33333333333331</ele><time>2026-04-05T07:15:21.342Z</time></trkpt><trkpt lat="45.6786598" lon="9.6725425"><ele>237.66666666666666</ele><time>2026-04-05T07:15:22.342Z</time></trkpt><trkpt lat="45.6785147" lon="9.6723007"><ele>238.0</ele><time>2026-04-05T07:15:23.342Z</time></trkpt><trkpt lat="45.678376" lon="9.6720605"><ele>237.33333333333331</ele><time>2026-04-05T07:15:24.342Z</time></trkpt><trkpt lat="45.6782491" lon="9.6718222"><ele>236.66666666666669</ele><time>2026-04-05T07:15:25.342Z</time></trkpt><trkpt lat="45.6781257" lon="9.6715876"><ele>236.0</ele><time>2026-04-05T07:15:26.342Z</time></trkpt><trkpt lat="45.6780049" lon="9.6713659"><ele>236.0</ele><time>2026-04-05T07:15:27.342Z</time></trkpt><trkpt lat="45.6778862" lon="9.6711535"><ele>236.0</ele><time>2026-04-05T07:15:28.342Z</time></trkpt><trkpt lat="45.6777751" lon="9.6709512"><ele>236.0</ele><time>2026-04-05T07:15:29.342Z</time></trkpt><trkpt lat="45.6776767" lon="9.6707601"><ele>236.0</ele><time>2026-04-05T07:15:30.342Z</time></trkpt><trkpt lat="45.6775908" lon="9.6705759"><ele>236.0</ele><time>2026-04-05T07:15:31.342Z</time></trkpt><trkpt lat="45.6775211" lon="9.670386"><ele>236.0</ele><time>2026-04-05T07:15:32.342Z</time></trkpt><trkpt lat="45.6774693" lon="9.6701941"><ele>236.0</ele><time>2026-04-05T07:15:33.342Z</time></trkpt><trkpt lat="45.6774367" lon="9.6699974"><ele>236.0</ele><time>2026-04-05T07:15:34.342Z</time></trkpt><trkpt lat="45.677418" lon="9.6697962"><ele>236.0</ele><time>2026-04-05T07:15:35.342Z</time></trkpt><trkpt lat="45.6774222" lon="9.669601"><ele>236.0</ele><time>2026-04-05T07:15:36.342Z</time></trkpt><trkpt lat="45.6774345" lon="9.6694073"><ele>236.0</ele><time>2026-04-05T07:15:37.342Z</time></trkpt><trkpt lat="45.6774489" lon="9.6692218"><ele>236.0</ele><time>2026-04-05T07:15:38.342Z</time></trkpt><trkpt lat="45.6774526" lon="9.6690328"><ele>236.0</ele><time>2026-04-05T07:15:39.342Z</time></trkpt><trkpt lat="45.6774473" lon="9.6688488"><ele>236.0</ele><time>2026-04-05T07:15:40.342Z</time></trkpt><trkpt lat="45.6774267" lon="9.6686728"><ele>236.0</ele><time>2026-04-05T07:15:41.342Z</time></trkpt><trkpt lat="45.6773828" lon="9.6684962"><ele>236.0</ele><time>2026-04-05T07:15:42.342Z</time></trkpt><trkpt lat="45.6773121" lon="9.6683323"><ele>236.0</ele><time>2026-04-05T07:15:43.342Z</time></trkpt><trkpt lat="45.6772203" lon="9.6681965"><ele>236.0</ele><time>2026-04-05T07:15:44.342Z</time></trkpt><trkpt lat="45.6771139" lon="9.6680854"><ele>236.0</ele><time>2026-04-05T07:15:45.342Z</time></trkpt><trkpt lat="45.6769947" lon="9.6680055"><ele>235.5</ele><time>2026-04-05T07:15:46.342Z</time></trkpt><trkpt lat="45.6768678" lon="9.6679532"><ele>235.0</ele><time>2026-04-05T07:15:47.342Z</time></trkpt><trkpt lat="45.6767247" lon="9.6679309"><ele>234.5</ele><time>2026-04-05T07:15:48.342Z</time></trkpt><trkpt lat="45.6765798" lon="9.6679427"><ele>234.0</ele><time>2026-04-05T07:15:49.342Z</time></trkpt><trkpt lat="45.6764361" lon="9.6679862"><ele>234.0</ele><time>2026-04-05T07:15:50.342Z</time></trkpt><trkpt lat="45.6763029" lon="9.6680449"><ele>234.0</ele><time>2026-04-05T07:15:51.342Z</time></trkpt><trkpt lat="45.676164" lon="9.6681352"><ele>234.0</ele><time>2026-04-05T07:15:52.342Z</time></trkpt><trkpt lat="45.6760556" lon="9.668247"><ele>234.0</ele><time>2026-04-05T07:15:53.342Z</time></trkpt><trkpt lat="45.6759757" lon="9.6683548"><ele>234.0</ele><time>2026-04-05T07:15:54.342Z</time></trkpt><trkpt lat="45.6758978" lon="9.6685215"><ele>234.0</ele><time>2026-04-05T07:15:55.342Z</time></trkpt><trkpt lat="45.6758044" lon="9.668658"><ele>234.0</ele><time>2026-04-05T07:15:56.342Z</time></trkpt><trkpt lat="45.6757078" lon="9.6687944"><ele>234.0</ele><time>2026-04-05T07:15:57.342Z</time></trkpt><trkpt lat="45.6756039" lon="9.6688872"><ele>233.5</ele><time>2026-04-05T07:15:58.342Z</time></trkpt><trkpt lat="45.6754946" lon="9.6689519"><ele>233.0</ele><time>2026-04-05T07:15:59.342Z</time></trkpt><trkpt lat="45.6753819" lon="9.6689872"><ele>232.5</ele><time>2026-04-05T07:16:00.342Z</time></trkpt><trkpt lat="45.6752637" lon="9.6689954"><ele>232.0</ele><time>2026-04-05T07:16:01.342Z</time></trkpt><trkpt lat="45.6751522" lon="9.6689724"><ele>231.8</ele><time>2026-04-05T07:16:02.342Z</time></trkpt><trkpt lat="45.6750433" lon="9.6689081"><ele>231.6</ele><time>2026-04-05T07:16:03.342Z</time></trkpt><trkpt lat="45.6749424" lon="9.6688327"><ele>231.40000000000003</ele><time>2026-04-05T07:16:04.342Z</time></trkpt><trkpt lat="45.6748513" lon="9.6687479"><ele>231.20000000000002</ele><time>2026-04-05T07:16:05.342Z</time></trkpt><trkpt lat="45.6747704" lon="9.6686616"><ele>231.0</ele><time>2026-04-05T07:16:06.342Z</time></trkpt><trkpt lat="45.6746863" lon="9.6685945"><ele>231.0</ele><time>2026-04-05T07:16:07.342Z</time></trkpt><trkpt lat="45.6746079" lon="9.6685531"><ele>231.0</ele><time>2026-04-05T07:16:08.342Z</time></trkpt><trkpt lat="45.6745338" lon="9.668527"><ele>231.0</ele><time>2026-04-05T07:16:09.342Z</time></trkpt><trkpt lat="45.6744625" lon="9.6685111"><ele>231.0</ele><time>2026-04-05T07:16:10.342Z</time></trkpt><trkpt lat="45.6743952" lon="9.6685069"><ele>231.0</ele><time>2026-04-05T07:16:11.342Z</time></trkpt><trkpt lat="45.6742868" lon="9.6685047"><ele>231.0</ele><time>2026-04-05T07:16:13.342Z</time></trkpt><trkpt lat="45.674203" lon="9.6685026"><ele>230.5</ele><time>2026-04-05T07:16:15.342Z</time></trkpt><trkpt lat="45.6741237" lon="9.6684985"><ele>230.0</ele><time>2026-04-05T07:16:39.342Z</time></trkpt><trkpt lat="45.6740364" lon="9.6684833"><ele>229.5</ele><time>2026-04-05T07:16:41.342Z</time></trkpt><trkpt lat="45.6739532" lon="9.6684827"><ele>229.0</ele><time>2026-04-05T07:16:42.342Z</time></trkpt><trkpt lat="45.6738685" lon="9.6684958"><ele>228.5</ele><time>2026-04-05T07:16:43.342Z</time></trkpt><trkpt lat="45.6737792" lon="9.6685147"><ele>228.0</ele><time>2026-04-05T07:16:44.342Z</time></trkpt><trkpt lat="45.6736822" lon="9.6685445"><ele>228.0</ele><time>2026-04-05T07:16:45.342Z</time></trkpt><trkpt lat="45.6735795" lon="9.66858"><ele>228.0</ele><time>2026-04-05T07:16:46.342Z</time></trkpt><trkpt lat="45.6734611" lon="9.6686174"><ele>228.0</ele><time>2026-04-05T07:16:47.342Z</time></trkpt><trkpt lat="45.6733255" lon="9.6686641"><ele>228.0</ele><time>2026-04-05T07:16:48.342Z</time></trkpt><trkpt lat="45.6731918" lon="9.6687113"><ele>227.5</ele><time>2026-04-05T07:16:49.342Z</time></trkpt><trkpt lat="45.6730654" lon="9.6687347"><ele>227.0</ele><time>2026-04-05T07:16:50.342Z</time></trkpt><trkpt lat="45.6729281" lon="9.6687265"><ele>226.5</ele><time>2026-04-05T07:16:51.342Z</time></trkpt><trkpt lat="45.6727813" lon="9.6686904"><ele>226.0</ele><time>2026-04-05T07:16:52.342Z</time></trkpt><trkpt lat="45.6726259" lon="9.6686461"><ele>226.66666666666666</ele><time>2026-04-05T07:16:53.342Z</time></trkpt><trkpt lat="45.6724637" lon="9.6685923"><ele>227.33333333333331</ele><time>2026-04-05T07:16:54.342Z</time></trkpt><trkpt lat="45.672298" lon="9.6685388"><ele>228.0</ele><time>2026-04-05T07:16:55.342Z</time></trkpt><trkpt lat="45.6721314" lon="9.6684794"><ele>228.0</ele><time>2026-04-05T07:16:56.342Z</time></trkpt><trkpt lat="45.6719657" lon="9.6684092"><ele>228.0</ele><time>2026-04-05T07:16:57.342Z</time></trkpt><trkpt lat="45.6718009" lon="9.6683291"><ele>228.0</ele><time>2026-04-05T07:16:58.342Z</time></trkpt><trkpt lat="45.6716352" lon="9.6682344"><ele>227.33333333333331</ele><time>2026-04-05T07:16:59.342Z</time></trkpt><trkpt lat="45.6714694" lon="9.6681288"><ele>226.66666666666666</ele><time>2026-04-05T07:17:00.342Z</time></trkpt><trkpt lat="45.6713003" lon="9.6680138"><ele>226.0</ele><time>2026-04-05T07:17:01.342Z</time></trkpt><trkpt lat="45.6711324" lon="9.6678897"><ele>226.66666666666666</ele><time>2026-04-05T07:17:02.342Z</time></trkpt><trkpt lat="45.6709662" lon="9.6677568"><ele>227.33333333333331</ele><time>2026-04-05T07:17:03.342Z</time></trkpt><trkpt lat="45.6707995" lon="9.6676227"><ele>228.0</ele><time>2026-04-05T07:17:04.342Z</time></trkpt><trkpt lat="45.6706333" lon="9.6674835"><ele>228.0</ele><time>2026-04-05T07:17:05.342Z</time></trkpt><trkpt lat="45.6704662" lon="9.6673431"><ele>228.0</ele><time>2026-04-05T07:17:06.342Z</time></trkpt><trkpt lat="45.6702972" lon="9.6671931"><ele>228.0</ele><time>2026-04-05T07:17:07.342Z</time></trkpt><trkpt lat="45.6701293" lon="9.6670332"><ele>228.0</ele><time>2026-04-05T07:17:08.342Z</time></trkpt><trkpt lat="45.6699669" lon="9.6668572"><ele>228.0</ele><time>2026-04-05T07:17:09.342Z</time></trkpt><trkpt lat="45.6698165" lon="9.6666703"><ele>228.0</ele><time>2026-04-05T07:17:10.342Z</time></trkpt><trkpt lat="45.6696746" lon="9.6664641"><ele>228.0</ele><time>2026-04-05T07:17:11.342Z</time></trkpt><trkpt lat="45.6695401" lon="9.6662516"><ele>228.0</ele><time>2026-04-05T07:17:12.342Z</time></trkpt><trkpt lat="45.6694105" lon="9.6660245"><ele>228.0</ele><time>2026-04-05T07:17:13.342Z</time></trkpt><trkpt lat="45.6692802" lon="9.6657951"><ele>228.0</ele><time>2026-04-05T07:17:14.342Z</time></trkpt><trkpt lat="45.6691479" lon="9.6655601"><ele>228.0</ele><time>2026-04-05T07:17:15.342Z</time></trkpt><trkpt lat="45.669016" lon="9.6653197"><ele>228.0</ele><time>2026-04-05T07:17:16.342Z</time></trkpt><trkpt lat="45.6688774" lon="9.6650798"><ele>228.0</ele><time>2026-04-05T07:17:17.342Z</time></trkpt><trkpt lat="45.6687395" lon="9.6648326"><ele>228.0</ele><time>2026-04-05T07:17:18.342Z</time></trkpt><trkpt lat="45.6685929" lon="9.6645809"><ele>226.0</ele><time>2026-04-05T07:17:19.342Z</time></trkpt><trkpt lat="45.6684495" lon="9.6643317"><ele>224.0</ele><time>2026-04-05T07:17:20.342Z</time></trkpt><trkpt lat="45.668307" lon="9.6640778"><ele>224.0</ele><time>2026-04-05T07:17:21.342Z</time></trkpt><trkpt lat="45.6681611" lon="9.6638257"><ele>224.0</ele><time>2026-04-05T07:17:22.342Z</time></trkpt><trkpt lat="45.6680126" lon="9.6635706"><ele>224.0</ele><time>2026-04-05T07:17:23.342Z</time></trkpt><trkpt lat="45.6678657" lon="9.6633133"><ele>224.0</ele><time>2026-04-05T07:17:24.342Z</time></trkpt><trkpt lat="45.6677156" lon="9.6630516"><ele>224.5</ele><time>2026-04-05T07:17:25.342Z</time></trkpt><trkpt lat="45.6675665" lon="9.6627829"><ele>225.0</ele><time>2026-04-05T07:17:26.342Z</time></trkpt><trkpt lat="45.6674185" lon="9.6625152"><ele>225.0</ele><time>2026-04-05T07:17:27.342Z</time></trkpt><trkpt lat="45.6672683" lon="9.66225"><ele>225.0</ele><time>2026-04-05T07:17:28.342Z</time></trkpt><trkpt lat="45.667121" lon="9.6619839"><ele>225.0</ele><time>2026-04-05T07:17:29.342Z</time></trkpt><trkpt lat="45.66697" lon="9.6617113"><ele>225.0</ele><time>2026-04-05T07:17:30.342Z</time></trkpt><trkpt lat="45.6668197" lon="9.6614369"><ele>225.0</ele><time>2026-04-05T07:17:31.342Z</time></trkpt><trkpt lat="45.6666688" lon="9.6611584"><ele>225.0</ele><time>2026-04-05T07:17:32.342Z</time></trkpt><trkpt lat="45.6665159" lon="9.6608851"><ele>223.5</ele><time>2026-04-05T07:17:33.342Z</time></trkpt><trkpt lat="45.6663602" lon="9.6606039"><ele>222.0</ele><time>2026-04-05T07:17:34.342Z</time></trkpt><trkpt lat="45.6661997" lon="9.6603212"><ele>221.5</ele><time>2026-04-05T07:17:35.342Z</time></trkpt><trkpt lat="45.6660395" lon="9.6600344"><ele>221.0</ele><time>2026-04-05T07:17:36.342Z</time></trkpt><trkpt lat="45.6658842" lon="9.6597469"><ele>221.0</ele><time>2026-04-05T07:17:37.342Z</time></trkpt><trkpt lat="45.6657291" lon="9.6594518"><ele>221.0</ele><time>2026-04-05T07:17:38.342Z</time></trkpt><trkpt lat="45.6655683" lon="9.6591586"><ele>221.5</ele><time>2026-04-05T07:17:39.342Z</time></trkpt><trkpt lat="45.6654057" lon="9.6588634"><ele>222.0</ele><time>2026-04-05T07:17:40.342Z</time></trkpt><trkpt lat="45.6652405" lon="9.6585588"><ele>222.0</ele><time>2026-04-05T07:17:41.342Z</time></trkpt><trkpt lat="45.6650648" lon="9.6582444"><ele>222.0</ele><time>2026-04-05T07:17:42.342Z</time></trkpt><trkpt lat="45.6648834" lon="9.6579174"><ele>220.5</ele><time>2026-04-05T07:17:43.342Z</time></trkpt><trkpt lat="45.6646954" lon="9.6575817"><ele>219.0</ele><time>2026-04-05T07:17:44.342Z</time></trkpt><trkpt lat="45.6645029" lon="9.6572361"><ele>217.5</ele><time>2026-04-05T07:17:45.342Z</time></trkpt><trkpt lat="45.6643053" lon="9.656883"><ele>216.0</ele><time>2026-04-05T07:17:46.342Z</time></trkpt><trkpt lat="45.6641046" lon="9.656525"><ele>216.0</ele><time>2026-04-05T07:17:47.342Z</time></trkpt><trkpt lat="45.6638914" lon="9.6561584"><ele>216.0</ele><time>2026-04-05T07:17:48.342Z</time></trkpt><trkpt lat="45.6636671" lon="9.6557808"><ele>215.5</ele><time>2026-04-05T07:17:49.342Z</time></trkpt><trkpt lat="45.6634453" lon="9.6553957"><ele>215.0</ele><time>2026-04-05T07:17:50.342Z</time></trkpt><trkpt lat="45.6632382" lon="9.655028"><ele>215.0</ele><time>2026-04-05T07:17:51.342Z</time></trkpt><trkpt lat="45.6630492" lon="9.6546734"><ele>215.0</ele><time>2026-04-05T07:17:52.342Z</time></trkpt><trkpt lat="45.6628641" lon="9.6543301"><ele>215.5</ele><time>2026-04-05T07:17:53.342Z</time></trkpt><trkpt lat="45.6626818" lon="9.6539986"><ele>216.0</ele><time>2026-04-05T07:17:54.342Z</time></trkpt><trkpt lat="45.6625064" lon="9.6536812"><ele>215.5</ele><time>2026-04-05T07:17:55.342Z</time></trkpt><trkpt lat="45.6623375" lon="9.6533813"><ele>215.0</ele><time>2026-04-05T07:17:56.342Z</time></trkpt><trkpt lat="45.6621756" lon="9.653084"><ele>215.0</ele><time>2026-04-05T07:17:57.342Z</time></trkpt><trkpt lat="45.6620182" lon="9.6527975"><ele>215.0</ele><time>2026-04-05T07:17:58.342Z</time></trkpt><trkpt lat="45.6618567" lon="9.6525055"><ele>215.0</ele><time>2026-04-05T07:17:59.342Z</time></trkpt><trkpt lat="45.6616876" lon="9.6522026"><ele>215.0</ele><time>2026-04-05T07:18:00.342Z</time></trkpt><trkpt lat="45.6615193" lon="9.6518973"><ele>215.0</ele><time>2026-04-05T07:18:01.342Z</time></trkpt><trkpt lat="45.6613548" lon="9.6516005"><ele>215.0</ele><time>2026-04-05T07:18:02.342Z</time></trkpt><trkpt lat="45.6611934" lon="9.6513053"><ele>215.5</ele><time>2026-04-05T07:18:03.342Z</time></trkpt><trkpt lat="45.6610281" lon="9.65101"><ele>216.0</ele><time>2026-04-05T07:18:04.342Z</time></trkpt><trkpt lat="45.660861" lon="9.650714"><ele>216.0</ele><time>2026-04-05T07:18:05.342Z</time></trkpt><trkpt lat="45.660694" lon="9.6504124"><ele>216.0</ele><time>2026-04-05T07:18:06.342Z</time></trkpt><trkpt lat="45.6605302" lon="9.6501109"><ele>215.5</ele><time>2026-04-05T07:18:07.342Z</time></trkpt><trkpt lat="45.6603673" lon="9.6498173"><ele>215.0</ele><time>2026-04-05T07:18:08.342Z</time></trkpt><trkpt lat="45.6602076" lon="9.6495281"><ele>211.5</ele><time>2026-04-05T07:18:09.342Z</time></trkpt><trkpt lat="45.660047" lon="9.6492397"><ele>208.0</ele><time>2026-04-05T07:18:10.342Z</time></trkpt><trkpt lat="45.659885" lon="9.6489505"><ele>208.0</ele><time>2026-04-05T07:18:11.342Z</time></trkpt><trkpt lat="45.6597238" lon="9.6486629"><ele>208.0</ele><time>2026-04-05T07:18:12.342Z</time></trkpt><trkpt lat="45.6595638" lon="9.6483763"><ele>209.0</ele><time>2026-04-05T07:18:13.342Z</time></trkpt><trkpt lat="45.6594053" lon="9.6480932"><ele>210.0</ele><time>2026-04-05T07:18:14.342Z</time></trkpt><trkpt lat="45.6592477" lon="9.6478124"><ele>209.0</ele><time>2026-04-05T07:18:15.342Z</time></trkpt><trkpt lat="45.6590929" lon="9.6475311"><ele>208.0</ele><time>2026-04-05T07:18:16.342Z</time></trkpt><trkpt lat="45.6589413" lon="9.6472454"><ele>208.0</ele><time>2026-04-05T07:18:17.342Z</time></trkpt><trkpt lat="45.6587833" lon="9.6469673"><ele>208.0</ele><time>2026-04-05T07:18:18.342Z</time></trkpt><trkpt lat="45.6586245" lon="9.6466796"><ele>208.0</ele><time>2026-04-05T07:18:19.342Z</time></trkpt><trkpt lat="45.6584587" lon="9.6463828"><ele>208.0</ele><time>2026-04-05T07:18:20.342Z</time></trkpt><trkpt lat="45.658291" lon="9.6460719"><ele>208.0</ele><time>2026-04-05T07:18:21.342Z</time></trkpt><trkpt lat="45.658115" lon="9.6457527"><ele>208.0</ele><time>2026-04-05T07:18:22.342Z</time></trkpt><trkpt lat="45.6579369" lon="9.6454274"><ele>208.5</ele><time>2026-04-05T07:18:23.342Z</time></trkpt><trkpt lat="45.6577532" lon="9.6450996"><ele>209.0</ele><time>2026-04-05T07:18:24.342Z</time></trkpt><trkpt lat="45.6575699" lon="9.6447695"><ele>208.5</ele><time>2026-04-05T07:18:25.342Z</time></trkpt><trkpt lat="45.657379" lon="9.6444257"><ele>208.0</ele><time>2026-04-05T07:18:26.342Z</time></trkpt><trkpt lat="45.6572058" lon="9.6440843"><ele>208.0</ele><time>2026-04-05T07:18:27.342Z</time></trkpt><trkpt lat="45.6570336" lon="9.6437487"><ele>208.0</ele><time>2026-04-05T07:18:28.342Z</time></trkpt><trkpt lat="45.6568646" lon="9.6434521"><ele>208.5</ele><time>2026-04-05T07:18:29.342Z</time></trkpt><trkpt lat="45.6566994" lon="9.6431448"><ele>209.0</ele><time>2026-04-05T07:18:30.342Z</time></trkpt><trkpt lat="45.656531" lon="9.6428484"><ele>208.5</ele><time>2026-04-05T07:18:31.342Z</time></trkpt><trkpt lat="45.6563651" lon="9.6425482"><ele>208.0</ele><time>2026-04-05T07:18:32.342Z</time></trkpt><trkpt lat="45.6562025" lon="9.6422479"><ele>208.0</ele><time>2026-04-05T07:18:33.342Z</time></trkpt><trkpt lat="45.6560387" lon="9.641947"><ele>208.0</ele><time>2026-04-05T07:18:34.342Z</time></trkpt><trkpt lat="45.6558755" lon="9.6416506"><ele>208.0</ele><time>2026-04-05T07:18:35.342Z</time></trkpt><trkpt lat="45.6557121" lon="9.6413563"><ele>208.0</ele><time>2026-04-05T07:18:36.342Z</time></trkpt><trkpt lat="45.6555487" lon="9.6410592"><ele>208.0</ele><time>2026-04-05T07:18:37.342Z</time></trkpt><trkpt lat="45.6553825" lon="9.6407511"><ele>208.0</ele><time>2026-04-05T07:18:38.342Z</time></trkpt><trkpt lat="45.6552093" lon="9.6404435"><ele>206.5</ele><time>2026-04-05T07:18:39.342Z</time></trkpt><trkpt lat="45.6550327" lon="9.6401327"><ele>205.0</ele><time>2026-04-05T07:18:40.342Z</time></trkpt><trkpt lat="45.6548566" lon="9.6398142"><ele>205.0</ele><time>2026-04-05T07:18:41.342Z</time></trkpt><trkpt lat="45.6546802" lon="9.6394982"><ele>205.0</ele><time>2026-04-05T07:18:42.342Z</time></trkpt><trkpt lat="45.6545042" lon="9.6391815"><ele>205.0</ele><time>2026-04-05T07:18:43.342Z</time></trkpt><trkpt lat="45.6543301" lon="9.638867"><ele>205.0</ele><time>2026-04-05T07:18:44.342Z</time></trkpt><trkpt lat="45.6541575" lon="9.6385554"><ele>204.0</ele><time>2026-04-05T07:18:45.342Z</time></trkpt><trkpt lat="45.6539865" lon="9.6382471"><ele>203.0</ele><time>2026-04-05T07:18:46.342Z</time></trkpt><trkpt lat="45.6538179" lon="9.6379421"><ele>202.5</ele><time>2026-04-05T07:18:47.342Z</time></trkpt><trkpt lat="45.6536486" lon="9.6376396"><ele>202.0</ele><time>2026-04-05T07:18:48.342Z</time></trkpt><trkpt lat="45.6534815" lon="9.6373372"><ele>202.0</ele><time>2026-04-05T07:18:49.342Z</time></trkpt><trkpt lat="45.6533164" lon="9.6370368"><ele>202.0</ele><time>2026-04-05T07:18:50.342Z</time></trkpt><trkpt lat="45.6531538" lon="9.6367359"><ele>202.5</ele><time>2026-04-05T07:18:51.342Z</time></trkpt><trkpt lat="45.6529916" lon="9.6364374"><ele>203.0</ele><time>2026-04-05T07:18:52.342Z</time></trkpt><trkpt lat="45.6528257" lon="9.6361438"><ele>203.0</ele><time>2026-04-05T07:18:53.342Z</time></trkpt><trkpt lat="45.6526601" lon="9.6358516"><ele>203.0</ele><time>2026-04-05T07:18:54.342Z</time></trkpt><trkpt lat="45.6524969" lon="9.6355565"><ele>203.5</ele><time>2026-04-05T07:18:55.342Z</time></trkpt><trkpt lat="45.6523312" lon="9.6352638"><ele>204.0</ele><time>2026-04-05T07:18:56.342Z</time></trkpt><trkpt lat="45.6521672" lon="9.6349604"><ele>204.0</ele><time>2026-04-05T07:18:57.342Z</time></trkpt><trkpt lat="45.6519942" lon="9.6346475"><ele>204.0</ele><time>2026-04-05T07:18:58.342Z</time></trkpt><trkpt lat="45.6518153" lon="9.6343308"><ele>203.0</ele><time>2026-04-05T07:18:59.342Z</time></trkpt><trkpt lat="45.6516364" lon="9.6340107"><ele>202.0</ele><time>2026-04-05T07:19:00.342Z</time></trkpt><trkpt lat="45.6514556" lon="9.633695"><ele>202.5</ele><time>2026-04-05T07:19:01.348Z</time></trkpt><trkpt lat="45.6512768" lon="9.6333737"><ele>203.0</ele><time>2026-04-05T07:19:02.348Z</time></trkpt><trkpt lat="45.6510982" lon="9.6330518"><ele>201.5</ele><time>2026-04-05T07:19:03.348Z</time></trkpt><trkpt lat="45.650922" lon="9.6327335"><ele>200.0</ele><time>2026-04-05T07:19:04.348Z</time></trkpt><trkpt lat="45.650745" lon="9.6324127"><ele>200.0</ele><time>2026-04-05T07:19:05.348Z</time></trkpt><trkpt lat="45.6505699" lon="9.6320919"><ele>200.0</ele><time>2026-04-05T07:19:06.348Z</time></trkpt><trkpt lat="45.6503904" lon="9.6317732"><ele>200.0</ele><time>2026-04-05T07:19:07.348Z</time></trkpt><trkpt lat="45.6502126" lon="9.6314567"><ele>200.0</ele><time>2026-04-05T07:19:08.348Z</time></trkpt><trkpt lat="45.6500366" lon="9.6311396"><ele>199.5</ele><time>2026-04-05T07:19:09.348Z</time></trkpt><trkpt lat="45.6498609" lon="9.6308256"><ele>199.0</ele><time>2026-04-05T07:19:10.348Z</time></trkpt><trkpt lat="45.6496857" lon="9.630513"><ele>199.5</ele><time>2026-04-05T07:19:11.348Z</time></trkpt><trkpt lat="45.6495129" lon="9.6302006"><ele>200.0</ele><time>2026-04-05T07:19:12.348Z</time></trkpt><trkpt lat="45.6493424" lon="9.6298895"><ele>200.0</ele><time>2026-04-05T07:19:13.348Z</time></trkpt><trkpt lat="45.6491705" lon="9.6295807"><ele>200.0</ele><time>2026-04-05T07:19:14.348Z</time></trkpt><trkpt lat="45.6490025" lon="9.6292732"><ele>200.5</ele><time>2026-04-05T07:19:15.348Z</time></trkpt><trkpt lat="45.6488355" lon="9.6289688"><ele>201.0</ele><time>2026-04-05T07:19:16.348Z</time></trkpt><trkpt lat="45.648667" lon="9.628665"><ele>200.5</ele><time>2026-04-05T07:19:17.348Z</time></trkpt><trkpt lat="45.6484997" lon="9.628362"><ele>200.0</ele><time>2026-04-05T07:19:18.348Z</time></trkpt><trkpt lat="45.648332" lon="9.6280603"><ele>200.0</ele><time>2026-04-05T07:19:19.348Z</time></trkpt><trkpt lat="45.6481653" lon="9.6277593"><ele>200.0</ele><time>2026-04-05T07:19:20.348Z</time></trkpt><trkpt lat="45.6480004" lon="9.6274511"><ele>200.0</ele><time>2026-04-05T07:19:21.348Z</time></trkpt><trkpt lat="45.6478349" lon="9.627155"><ele>200.0</ele><time>2026-04-05T07:19:22.348Z</time></trkpt><trkpt lat="45.6476701" lon="9.6268621"><ele>199.0</ele><time>2026-04-05T07:19:23.348Z</time></trkpt><trkpt lat="45.6475086" lon="9.6265738"><ele>198.0</ele><time>2026-04-05T07:19:24.348Z</time></trkpt><trkpt lat="45.64735" lon="9.6262882"><ele>198.0</ele><time>2026-04-05T07:19:25.348Z</time></trkpt><trkpt lat="45.6471842" lon="9.6260097"><ele>198.0</ele><time>2026-04-05T07:19:26.348Z</time></trkpt><trkpt lat="45.6470153" lon="9.6257232"><ele>198.0</ele><time>2026-04-05T07:19:27.348Z</time></trkpt><trkpt lat="45.6468269" lon="9.6254282"><ele>198.0</ele><time>2026-04-05T07:19:28.348Z</time></trkpt><trkpt lat="45.6466379" lon="9.6251097"><ele>198.0</ele><time>2026-04-05T07:19:29.348Z</time></trkpt><trkpt lat="45.6464523" lon="9.6247841"><ele>198.0</ele><time>2026-04-05T07:19:30.348Z</time></trkpt><trkpt lat="45.6462728" lon="9.6244414"><ele>198.0</ele><time>2026-04-05T07:19:31.348Z</time></trkpt><trkpt lat="45.6460877" lon="9.6241028"><ele>198.0</ele><time>2026-04-05T07:19:32.348Z</time></trkpt><trkpt lat="45.6459034" lon="9.6237717"><ele>199.0</ele><time>2026-04-05T07:19:33.348Z</time></trkpt><trkpt lat="45.6457177" lon="9.6234397"><ele>200.0</ele><time>2026-04-05T07:19:34.348Z</time></trkpt><trkpt lat="45.645535" lon="9.6231112"><ele>200.0</ele><time>2026-04-05T07:19:35.348Z</time></trkpt><trkpt lat="45.6453542" lon="9.622785"><ele>200.0</ele><time>2026-04-05T07:19:36.348Z</time></trkpt><trkpt lat="45.6451724" lon="9.6224612"><ele>199.5</ele><time>2026-04-05T07:19:37.348Z</time></trkpt><trkpt lat="45.6449935" lon="9.6221362"><ele>199.0</ele><time>2026-04-05T07:19:38.348Z</time></trkpt><trkpt lat="45.6448162" lon="9.6218157"><ele>198.5</ele><time>2026-04-05T07:19:39.348Z</time></trkpt><trkpt lat="45.6446392" lon="9.6214944"><ele>198.0</ele><time>2026-04-05T07:19:40.348Z</time></trkpt><trkpt lat="45.6444642" lon="9.6211755"><ele>197.5</ele><time>2026-04-05T07:19:41.348Z</time></trkpt><trkpt lat="45.6442869" lon="9.6208625"><ele>197.0</ele><time>2026-04-05T07:19:42.348Z</time></trkpt><trkpt lat="45.6441126" lon="9.6205466"><ele>198.0</ele><time>2026-04-05T07:19:43.348Z</time></trkpt><trkpt lat="45.6439361" lon="9.6202308"><ele>199.0</ele><time>2026-04-05T07:19:44.348Z</time></trkpt><trkpt lat="45.6437587" lon="9.6199134"><ele>198.0</ele><time>2026-04-05T07:19:45.348Z</time></trkpt><trkpt lat="45.6435795" lon="9.6195934"><ele>197.0</ele><time>2026-04-05T07:19:46.348Z</time></trkpt><trkpt lat="45.6433997" lon="9.6192717"><ele>197.0</ele><time>2026-04-05T07:19:47.348Z</time></trkpt><trkpt lat="45.6432183" lon="9.6189382"><ele>197.0</ele><time>2026-04-05T07:19:48.348Z</time></trkpt><trkpt lat="45.6430284" lon="9.6185957"><ele>197.0</ele><time>2026-04-05T07:19:49.348Z</time></trkpt><trkpt lat="45.6428297" lon="9.6182433"><ele>197.0</ele><time>2026-04-05T07:19:50.348Z</time></trkpt><trkpt lat="45.6426329" lon="9.6178859"><ele>198.0</ele><time>2026-04-05T07:19:51.348Z</time></trkpt><trkpt lat="45.6424295" lon="9.6175156"><ele>199.0</ele><time>2026-04-05T07:19:52.348Z</time></trkpt><trkpt lat="45.642217" lon="9.617134"><ele>199.0</ele><time>2026-04-05T07:19:53.348Z</time></trkpt><trkpt lat="45.6420074" lon="9.6167686"><ele>199.0</ele><time>2026-04-05T07:19:54.348Z</time></trkpt><trkpt lat="45.64181" lon="9.616416"><ele>199.5</ele><time>2026-04-05T07:19:55.348Z</time></trkpt><trkpt lat="45.6416236" lon="9.6160767"><ele>200.0</ele><time>2026-04-05T07:19:56.348Z</time></trkpt><trkpt lat="45.6414429" lon="9.6157508"><ele>200.0</ele><time>2026-04-05T07:19:57.348Z</time></trkpt><trkpt lat="45.6412648" lon="9.6154216"><ele>200.0</ele><time>2026-04-05T07:19:58.348Z</time></trkpt><trkpt lat="45.6410837" lon="9.6150922"><ele>198.5</ele><time>2026-04-05T07:19:59.348Z</time></trkpt><trkpt lat="45.6409024" lon="9.6147657"><ele>197.0</ele><time>2026-04-05T07:20:00.348Z</time></trkpt><trkpt lat="45.6407175" lon="9.6144405"><ele>197.0</ele><time>2026-04-05T07:20:01.348Z</time></trkpt><trkpt lat="45.6405359" lon="9.6141129"><ele>197.0</ele><time>2026-04-05T07:20:02.348Z</time></trkpt><trkpt lat="45.6403532" lon="9.6137813"><ele>197.5</ele><time>2026-04-05T07:20:03.348Z</time></trkpt><trkpt lat="45.6401669" lon="9.6134525"><ele>198.0</ele><time>2026-04-05T07:20:04.348Z</time></trkpt><trkpt lat="45.6399824" lon="9.6131208"><ele>197.0</ele><time>2026-04-05T07:20:05.348Z</time></trkpt><trkpt lat="45.6397967" lon="9.6127868"><ele>196.0</ele><time>2026-04-05T07:20:06.348Z</time></trkpt><trkpt lat="45.6396111" lon="9.6124474"><ele>197.0</ele><time>2026-04-05T07:20:07.348Z</time></trkpt><trkpt lat="45.6394219" lon="9.612109"><ele>198.0</ele><time>2026-04-05T07:20:08.348Z</time></trkpt><trkpt lat="45.6392341" lon="9.6117745"><ele>198.0</ele><time>2026-04-05T07:20:09.348Z</time></trkpt><trkpt lat="45.6390484" lon="9.6114361"><ele>198.0</ele><time>2026-04-05T07:20:10.348Z</time></trkpt><trkpt lat="45.6388602" lon="9.6111018"><ele>198.0</ele><time>2026-04-05T07:20:11.348Z</time></trkpt><trkpt lat="45.6386672" lon="9.6107665"><ele>198.0</ele><time>2026-04-05T07:20:12.348Z</time></trkpt><trkpt lat="45.6384807" lon="9.6104272"><ele>198.0</ele><time>2026-04-05T07:20:13.348Z</time></trkpt><trkpt lat="45.6382936" lon="9.610091"><ele>198.0</ele><time>2026-04-05T07:20:14.348Z</time></trkpt><trkpt lat="45.6381077" lon="9.6097543"><ele>197.5</ele><time>2026-04-05T07:20:15.348Z</time></trkpt><trkpt lat="45.6379202" lon="9.6094175"><ele>197.0</ele><time>2026-04-05T07:20:16.348Z</time></trkpt><trkpt lat="45.6377358" lon="9.6090783"><ele>196.0</ele><time>2026-04-05T07:20:17.348Z</time></trkpt><trkpt lat="45.6375576" lon="9.6087537"><ele>195.0</ele><time>2026-04-05T07:20:18.348Z</time></trkpt><trkpt lat="45.637388" lon="9.6084372"><ele>195.0</ele><time>2026-04-05T07:20:19.348Z</time></trkpt><trkpt lat="45.6372191" lon="9.6081319"><ele>195.0</ele><time>2026-04-05T07:20:20.348Z</time></trkpt><trkpt lat="45.6370514" lon="9.6078287"><ele>197.0</ele><time>2026-04-05T07:20:21.348Z</time></trkpt><trkpt lat="45.6368855" lon="9.6075238"><ele>199.0</ele><time>2026-04-05T07:20:22.348Z</time></trkpt><trkpt lat="45.6367157" lon="9.6072233"><ele>201.0</ele><time>2026-04-05T07:20:23.348Z</time></trkpt><trkpt lat="45.6365441" lon="9.606916"><ele>203.0</ele><time>2026-04-05T07:20:24.348Z</time></trkpt><trkpt lat="45.6363729" lon="9.6066016"><ele>203.0</ele><time>2026-04-05T07:20:25.348Z</time></trkpt><trkpt lat="45.6361984" lon="9.6062863"><ele>203.0</ele><time>2026-04-05T07:20:26.348Z</time></trkpt><trkpt lat="45.636021" lon="9.6059702"><ele>200.0</ele><time>2026-04-05T07:20:27.348Z</time></trkpt><trkpt lat="45.6358462" lon="9.6056501"><ele>197.0</ele><time>2026-04-05T07:20:28.348Z</time></trkpt><trkpt lat="45.635668" lon="9.6053287"><ele>197.0</ele><time>2026-04-05T07:20:29.348Z</time></trkpt><trkpt lat="45.6354906" lon="9.6050088"><ele>197.0</ele><time>2026-04-05T07:20:30.348Z</time></trkpt><trkpt lat="45.6353145" lon="9.6047002"><ele>197.5</ele><time>2026-04-05T07:20:31.349Z</time></trkpt><trkpt lat="45.6351427" lon="9.6043944"><ele>198.0</ele><time>2026-04-05T07:20:32.348Z</time></trkpt><trkpt lat="45.6349736" lon="9.6040853"><ele>198.0</ele><time>2026-04-05T07:20:33.348Z</time></trkpt><trkpt lat="45.634805" lon="9.6037819"><ele>198.0</ele><time>2026-04-05T07:20:34.348Z</time></trkpt><trkpt lat="45.634636" lon="9.6034783"><ele>195.0</ele><time>2026-04-05T07:20:35.348Z</time></trkpt><trkpt lat="45.6344674" lon="9.603176"><ele>192.0</ele><time>2026-04-05T07:20:36.348Z</time></trkpt><trkpt lat="45.6342978" lon="9.6028735"><ele>192.0</ele><time>2026-04-05T07:20:37.348Z</time></trkpt><trkpt lat="45.6341286" lon="9.6025715"><ele>192.0</ele><time>2026-04-05T07:20:38.348Z</time></trkpt><trkpt lat="45.6339593" lon="9.6022674"><ele>192.0</ele><time>2026-04-05T07:20:39.348Z</time></trkpt><trkpt lat="45.6337894" lon="9.6019606"><ele>192.0</ele><time>2026-04-05T07:20:40.348Z</time></trkpt><trkpt lat="45.6336175" lon="9.6016505"><ele>192.0</ele><time>2026-04-05T07:20:41.348Z</time></trkpt><trkpt lat="45.6334457" lon="9.6013379"><ele>192.0</ele><time>2026-04-05T07:20:42.348Z</time></trkpt><trkpt lat="45.6332729" lon="9.6010268"><ele>190.0</ele><time>2026-04-05T07:20:43.348Z</time></trkpt><trkpt lat="45.6331007" lon="9.6007205"><ele>188.0</ele><time>2026-04-05T07:20:44.348Z</time></trkpt><trkpt lat="45.6329277" lon="9.6004139"><ele>188.5</ele><time>2026-04-05T07:20:45.348Z</time></trkpt><trkpt lat="45.6327551" lon="9.6001017"><ele>189.0</ele><time>2026-04-05T07:20:46.348Z</time></trkpt><trkpt lat="45.6325831" lon="9.5997891"><ele>188.5</ele><time>2026-04-05T07:20:47.348Z</time></trkpt><trkpt lat="45.6324105" lon="9.5994786"><ele>188.0</ele><time>2026-04-05T07:20:48.348Z</time></trkpt><trkpt lat="45.6322372" lon="9.5991671"><ele>188.0</ele><time>2026-04-05T07:20:49.348Z</time></trkpt><trkpt lat="45.6320662" lon="9.59886"><ele>188.0</ele><time>2026-04-05T07:20:50.348Z</time></trkpt><trkpt lat="45.6318819" lon="9.5985429"><ele>189.0</ele><time>2026-04-05T07:20:51.348Z</time></trkpt><trkpt lat="45.6317123" lon="9.5982303"><ele>190.0</ele><time>2026-04-05T07:20:52.348Z</time></trkpt><trkpt lat="45.6315403" lon="9.5979181"><ele>189.0</ele><time>2026-04-05T07:20:53.348Z</time></trkpt><trkpt lat="45.6313636" lon="9.5976084"><ele>188.0</ele><time>2026-04-05T07:20:54.348Z</time></trkpt><trkpt lat="45.6311888" lon="9.5972972"><ele>189.5</ele><time>2026-04-05T07:20:55.348Z</time></trkpt><trkpt lat="45.6310139" lon="9.5969868"><ele>191.0</ele><time>2026-04-05T07:20:56.348Z</time></trkpt><trkpt lat="45.6308399" lon="9.5966771"><ele>191.0</ele><time>2026-04-05T07:20:57.348Z</time></trkpt><trkpt lat="45.6306613" lon="9.5963663"><ele>191.0</ele><time>2026-04-05T07:20:58.348Z</time></trkpt><trkpt lat="45.6304764" lon="9.596052"><ele>191.0</ele><time>2026-04-05T07:20:59.348Z</time></trkpt><trkpt lat="45.6303009" lon="9.5957446"><ele>191.0</ele><time>2026-04-05T07:21:00.348Z</time></trkpt><trkpt lat="45.6301225" lon="9.595436"><ele>191.5</ele><time>2026-04-05T07:21:01.348Z</time></trkpt><trkpt lat="45.6299445" lon="9.595131"><ele>192.0</ele><time>2026-04-05T07:21:02.348Z</time></trkpt><trkpt lat="45.6297712" lon="9.5948266"><ele>192.0</ele><time>2026-04-05T07:21:03.348Z</time></trkpt><trkpt lat="45.6295989" lon="9.5945211"><ele>192.0</ele><time>2026-04-05T07:21:04.348Z</time></trkpt><trkpt lat="45.6294298" lon="9.5942129"><ele>191.5</ele><time>2026-04-05T07:21:05.348Z</time></trkpt><trkpt lat="45.6292613" lon="9.5939045"><ele>191.0</ele><time>2026-04-05T07:21:06.348Z</time></trkpt><trkpt lat="45.6290952" lon="9.5935966"><ele>191.0</ele><time>2026-04-05T07:21:07.349Z</time></trkpt><trkpt lat="45.6289292" lon="9.5932878"><ele>191.0</ele><time>2026-04-05T07:21:08.348Z</time></trkpt><trkpt lat="45.6287595" lon="9.5929839"><ele>190.0</ele><time>2026-04-05T07:21:09.348Z</time></trkpt><trkpt lat="45.6285936" lon="9.5926823"><ele>189.0</ele><time>2026-04-05T07:21:10.348Z</time></trkpt><trkpt lat="45.6284249" lon="9.5923818"><ele>189.0</ele><time>2026-04-05T07:21:11.348Z</time></trkpt><trkpt lat="45.6282565" lon="9.5920813"><ele>189.0</ele><time>2026-04-05T07:21:12.348Z</time></trkpt><trkpt lat="45.6280876" lon="9.5917794"><ele>188.5</ele><time>2026-04-05T07:21:13.348Z</time></trkpt><trkpt lat="45.6279197" lon="9.5914789"><ele>188.0</ele><time>2026-04-05T07:21:14.348Z</time></trkpt><trkpt lat="45.6277548" lon="9.5911753"><ele>188.0</ele><time>2026-04-05T07:21:15.348Z</time></trkpt><trkpt lat="45.6275891" lon="9.5908732"><ele>188.0</ele><time>2026-04-05T07:21:16.348Z</time></trkpt><trkpt lat="45.6274206" lon="9.5905677"><ele>188.5</ele><time>2026-04-05T07:21:17.348Z</time></trkpt><trkpt lat="45.6272487" lon="9.5902675"><ele>189.0</ele><time>2026-04-05T07:21:18.348Z</time></trkpt><trkpt lat="45.6270849" lon="9.5899643"><ele>187.5</ele><time>2026-04-05T07:21:19.348Z</time></trkpt><trkpt lat="45.6269182" lon="9.589661"><ele>186.0</ele><time>2026-04-05T07:21:20.348Z</time></trkpt><trkpt lat="45.6267474" lon="9.5893581"><ele>186.0</ele><time>2026-04-05T07:21:21.348Z</time></trkpt><trkpt lat="45.6265801" lon="9.5890568"><ele>186.0</ele><time>2026-04-05T07:21:22.348Z</time></trkpt><trkpt lat="45.6264051" lon="9.5887501"><ele>186.5</ele><time>2026-04-05T07:21:23.348Z</time></trkpt><trkpt lat="45.6262294" lon="9.5884285"><ele>187.0</ele><time>2026-04-05T07:21:24.348Z</time></trkpt><trkpt lat="45.6260463" lon="9.5880981"><ele>187.0</ele><time>2026-04-05T07:21:25.348Z</time></trkpt><trkpt lat="45.6258587" lon="9.587761"><ele>187.0</ele><time>2026-04-05T07:21:26.348Z</time></trkpt><trkpt lat="45.6256673" lon="9.5874183"><ele>187.0</ele><time>2026-04-05T07:21:27.348Z</time></trkpt><trkpt lat="45.6254743" lon="9.5870714"><ele>187.0</ele><time>2026-04-05T07:21:28.348Z</time></trkpt><trkpt lat="45.6252801" lon="9.5867184"><ele>186.5</ele><time>2026-04-05T07:21:29.348Z</time></trkpt><trkpt lat="45.6250865" lon="9.5863643"><ele>186.0</ele><time>2026-04-05T07:21:30.348Z</time></trkpt><trkpt lat="45.624897" lon="9.5860067"><ele>187.0</ele><time>2026-04-05T07:21:31.348Z</time></trkpt><trkpt lat="45.6247094" lon="9.5856547"><ele>188.0</ele><time>2026-04-05T07:21:32.348Z</time></trkpt><trkpt lat="45.6245239" lon="9.5853055"><ele>187.5</ele><time>2026-04-05T07:21:33.348Z</time></trkpt><trkpt lat="45.6243486" lon="9.5849667"><ele>187.0</ele><time>2026-04-05T07:21:34.348Z</time></trkpt><trkpt lat="45.6241709" lon="9.5846154"><ele>187.5</ele><time>2026-04-05T07:21:35.348Z</time></trkpt><trkpt lat="45.6240012" lon="9.5842643"><ele>188.0</ele><time>2026-04-05T07:21:36.348Z</time></trkpt><trkpt lat="45.623836" lon="9.5839146"><ele>187.5</ele><time>2026-04-05T07:21:37.348Z</time></trkpt><trkpt lat="45.6236777" lon="9.5835564"><ele>187.0</ele><time>2026-04-05T07:21:38.348Z</time></trkpt><trkpt lat="45.6235229" lon="9.5831962"><ele>185.5</ele><time>2026-04-05T07:21:39.348Z</time></trkpt><trkpt lat="45.623376" lon="9.5828341"><ele>184.0</ele><time>2026-04-05T07:21:40.348Z</time></trkpt><trkpt lat="45.6232309" lon="9.5824743"><ele>184.0</ele><time>2026-04-05T07:21:41.348Z</time></trkpt><trkpt lat="45.6230889" lon="9.5821143"><ele>184.0</ele><time>2026-04-05T07:21:42.348Z</time></trkpt><trkpt lat="45.6229502" lon="9.5817493"><ele>184.0</ele><time>2026-04-05T07:21:43.348Z</time></trkpt><trkpt lat="45.6228145" lon="9.5813824"><ele>184.0</ele><time>2026-04-05T07:21:44.348Z</time></trkpt><trkpt lat="45.6226835" lon="9.5810153"><ele>184.5</ele><time>2026-04-05T07:21:45.348Z</time></trkpt><trkpt lat="45.6225542" lon="9.5806491"><ele>185.0</ele><time>2026-04-05T07:21:46.348Z</time></trkpt><trkpt lat="45.6224277" lon="9.5802821"><ele>185.0</ele><time>2026-04-05T07:21:47.348Z</time></trkpt><trkpt lat="45.6223024" lon="9.5799145"><ele>185.0</ele><time>2026-04-05T07:21:48.348Z</time></trkpt><trkpt lat="45.622177" lon="9.5795441"><ele>186.5</ele><time>2026-04-05T07:21:49.348Z</time></trkpt><trkpt lat="45.622052" lon="9.5791739"><ele>188.0</ele><time>2026-04-05T07:21:50.348Z</time></trkpt><trkpt lat="45.6219231" lon="9.578799"><ele>185.5</ele><time>2026-04-05T07:21:51.348Z</time></trkpt><trkpt lat="45.6217965" lon="9.5784195"><ele>183.0</ele><time>2026-04-05T07:21:52.348Z</time></trkpt><trkpt lat="45.6216694" lon="9.5780394"><ele>182.0</ele><time>2026-04-05T07:21:53.348Z</time></trkpt><trkpt lat="45.6215415" lon="9.5776532"><ele>181.0</ele><time>2026-04-05T07:21:54.348Z</time></trkpt><trkpt lat="45.6214129" lon="9.5772673"><ele>182.0</ele><time>2026-04-05T07:21:55.348Z</time></trkpt><trkpt lat="45.621283" lon="9.576881"><ele>183.0</ele><time>2026-04-05T07:21:56.348Z</time></trkpt><trkpt lat="45.62115" lon="9.576484"><ele>183.0</ele><time>2026-04-05T07:21:57.348Z</time></trkpt><trkpt lat="45.6210148" lon="9.5760804"><ele>183.0</ele><time>2026-04-05T07:21:58.348Z</time></trkpt><trkpt lat="45.6208757" lon="9.5756719"><ele>183.5</ele><time>2026-04-05T07:21:59.348Z</time></trkpt><trkpt lat="45.6207336" lon="9.5752589"><ele>184.0</ele><time>2026-04-05T07:22:00.348Z</time></trkpt><trkpt lat="45.6205903" lon="9.5748449"><ele>184.0</ele><time>2026-04-05T07:22:01.348Z</time></trkpt><trkpt lat="45.6204462" lon="9.5744274"><ele>184.0</ele><time>2026-04-05T07:22:02.348Z</time></trkpt><trkpt lat="45.620302" lon="9.5740082"><ele>183.5</ele><time>2026-04-05T07:22:03.348Z</time></trkpt><trkpt lat="45.6201618" lon="9.5735905"><ele>183.0</ele><time>2026-04-05T07:22:04.348Z</time></trkpt><trkpt lat="45.6200193" lon="9.5731719"><ele>182.5</ele><time>2026-04-05T07:22:05.348Z</time></trkpt><trkpt lat="45.6198736" lon="9.5727554"><ele>182.0</ele><time>2026-04-05T07:22:06.348Z</time></trkpt><trkpt lat="45.6197279" lon="9.5723414"><ele>181.0</ele><time>2026-04-05T07:22:07.348Z</time></trkpt><trkpt lat="45.6195801" lon="9.5719324"><ele>180.0</ele><time>2026-04-05T07:22:08.348Z</time></trkpt><trkpt lat="45.6194343" lon="9.5715191"><ele>180.0</ele><time>2026-04-05T07:22:09.348Z</time></trkpt><trkpt lat="45.6192864" lon="9.5711024"><ele>180.0</ele><time>2026-04-05T07:22:10.348Z</time></trkpt><trkpt lat="45.6191406" lon="9.5706914"><ele>180.5</ele><time>2026-04-05T07:22:11.348Z</time></trkpt><trkpt lat="45.6190005" lon="9.5702778"><ele>181.0</ele><time>2026-04-05T07:22:12.348Z</time></trkpt><trkpt lat="45.6188574" lon="9.5698628"><ele>180.5</ele><time>2026-04-05T07:22:13.348Z</time></trkpt><trkpt lat="45.6187167" lon="9.5694473"><ele>180.0</ele><time>2026-04-05T07:22:14.348Z</time></trkpt><trkpt lat="45.6185763" lon="9.5690343"><ele>180.0</ele><time>2026-04-05T07:22:15.348Z</time></trkpt><trkpt lat="45.6184394" lon="9.5686218"><ele>180.0</ele><time>2026-04-05T07:22:16.348Z</time></trkpt><trkpt lat="45.6183037" lon="9.5682162"><ele>179.5</ele><time>2026-04-05T07:22:17.348Z</time></trkpt><trkpt lat="45.6181674" lon="9.567813"><ele>179.0</ele><time>2026-04-05T07:22:18.348Z</time></trkpt><trkpt lat="45.6180294" lon="9.5674092"><ele>177.5</ele><time>2026-04-05T07:22:19.348Z</time></trkpt><trkpt lat="45.6178916" lon="9.5670054"><ele>176.0</ele><time>2026-04-05T07:22:20.348Z</time></trkpt><trkpt lat="45.617756" lon="9.5666025"><ele>176.0</ele><time>2026-04-05T07:22:21.348Z</time></trkpt><trkpt lat="45.6176199" lon="9.5661973"><ele>176.0</ele><time>2026-04-05T07:22:22.348Z</time></trkpt><trkpt lat="45.6174868" lon="9.5657973"><ele>177.0</ele><time>2026-04-05T07:22:23.348Z</time></trkpt><trkpt lat="45.6173529" lon="9.5654013"><ele>178.0</ele><time>2026-04-05T07:22:24.348Z</time></trkpt><trkpt lat="45.6172195" lon="9.5650056"><ele>178.0</ele><time>2026-04-05T07:22:25.348Z</time></trkpt><trkpt lat="45.6170874" lon="9.5646134"><ele>178.0</ele><time>2026-04-05T07:22:26.348Z</time></trkpt><trkpt lat="45.6169548" lon="9.5642227"><ele>177.0</ele><time>2026-04-05T07:22:27.348Z</time></trkpt><trkpt lat="45.6168236" lon="9.5638316"><ele>176.0</ele><time>2026-04-05T07:22:28.349Z</time></trkpt><trkpt lat="45.6166937" lon="9.5634459"><ele>176.0</ele><time>2026-04-05T07:22:29.348Z</time></trkpt><trkpt lat="45.6165608" lon="9.5630575"><ele>176.0</ele><time>2026-04-05T07:22:30.348Z</time></trkpt><trkpt lat="45.616428" lon="9.5626694"><ele>176.0</ele><time>2026-04-05T07:22:31.348Z</time></trkpt><trkpt lat="45.6162891" lon="9.5622735"><ele>176.0</ele><time>2026-04-05T07:22:32.348Z</time></trkpt><trkpt lat="45.6161502" lon="9.5618708"><ele>174.5</ele><time>2026-04-05T07:22:33.348Z</time></trkpt><trkpt lat="45.6160048" lon="9.5614659"><ele>173.0</ele><time>2026-04-05T07:22:34.348Z</time></trkpt><trkpt lat="45.6158529" lon="9.5610609"><ele>173.0</ele><time>2026-04-05T07:22:35.348Z</time></trkpt><trkpt lat="45.6156929" lon="9.5606447"><ele>173.0</ele><time>2026-04-05T07:22:36.348Z</time></trkpt><trkpt lat="45.615535" lon="9.5602155"><ele>172.0</ele><time>2026-04-05T07:22:37.348Z</time></trkpt><trkpt lat="45.6153833" lon="9.5597705"><ele>171.0</ele><time>2026-04-05T07:22:38.348Z</time></trkpt><trkpt lat="45.6152298" lon="9.5593173"><ele>173.0</ele><time>2026-04-05T07:22:39.348Z</time></trkpt><trkpt lat="45.615076" lon="9.5588502"><ele>175.0</ele><time>2026-04-05T07:22:40.348Z</time></trkpt><trkpt lat="45.6149177" lon="9.5583823"><ele>175.0</ele><time>2026-04-05T07:22:41.348Z</time></trkpt><trkpt lat="45.6147628" lon="9.557908"><ele>175.0</ele><time>2026-04-05T07:22:42.348Z</time></trkpt><trkpt lat="45.6146056" lon="9.5574263"><ele>176.0</ele><time>2026-04-05T07:22:43.348Z</time></trkpt><trkpt lat="45.6144509" lon="9.5569416"><ele>177.0</ele><time>2026-04-05T07:22:44.348Z</time></trkpt><trkpt lat="45.6142988" lon="9.5564574"><ele>177.0</ele><time>2026-04-05T07:22:45.348Z</time></trkpt><trkpt lat="45.6141479" lon="9.5559698"><ele>177.0</ele><time>2026-04-05T07:22:46.348Z</time></trkpt><trkpt lat="45.6139946" lon="9.5554808"><ele>179.5</ele><time>2026-04-05T07:22:47.348Z</time></trkpt><trkpt lat="45.6138381" lon="9.554991"><ele>182.0</ele><time>2026-04-05T07:22:48.348Z</time></trkpt><trkpt lat="45.6136825" lon="9.5545038"><ele>180.5</ele><time>2026-04-05T07:22:49.348Z</time></trkpt><trkpt lat="45.6135256" lon="9.5540191"><ele>179.0</ele><time>2026-04-05T07:22:50.348Z</time></trkpt><trkpt lat="45.6133702" lon="9.5535416"><ele>179.0</ele><time>2026-04-05T07:22:51.348Z</time></trkpt><trkpt lat="45.6132157" lon="9.5530674"><ele>179.0</ele><time>2026-04-05T07:22:52.348Z</time></trkpt><trkpt lat="45.6130622" lon="9.5526012"><ele>179.5</ele><time>2026-04-05T07:22:53.348Z</time></trkpt><trkpt lat="45.6129107" lon="9.552138"><ele>180.0</ele><time>2026-04-05T07:22:54.348Z</time></trkpt><trkpt lat="45.6127706" lon="9.5516918"><ele>180.0</ele><time>2026-04-05T07:22:55.348Z</time></trkpt><trkpt lat="45.612637" lon="9.5512632"><ele>180.0</ele><time>2026-04-05T07:22:56.348Z</time></trkpt><trkpt lat="45.612507" lon="9.5508415"><ele>180.0</ele><time>2026-04-05T07:22:57.348Z</time></trkpt><trkpt lat="45.6123712" lon="9.5504153"><ele>180.0</ele><time>2026-04-05T07:22:58.348Z</time></trkpt><trkpt lat="45.6122366" lon="9.550011"><ele>180.0</ele><time>2026-04-05T07:22:59.348Z</time></trkpt><trkpt lat="45.6121041" lon="9.5496156"><ele>180.0</ele><time>2026-04-05T07:23:00.348Z</time></trkpt><trkpt lat="45.6119682" lon="9.5492245"><ele>180.0</ele><time>2026-04-05T07:23:01.348Z</time></trkpt><trkpt lat="45.611833" lon="9.5488323"><ele>180.0</ele><time>2026-04-05T07:23:02.348Z</time></trkpt><trkpt lat="45.6117025" lon="9.5484374"><ele>180.0</ele><time>2026-04-05T07:23:03.348Z</time></trkpt><trkpt lat="45.6115724" lon="9.5480462"><ele>180.0</ele><time>2026-04-05T07:23:04.348Z</time></trkpt><trkpt lat="45.6114417" lon="9.5476563"><ele>180.0</ele><time>2026-04-05T07:23:05.348Z</time></trkpt><trkpt lat="45.6113111" lon="9.5472726"><ele>180.0</ele><time>2026-04-05T07:23:06.348Z</time></trkpt><trkpt lat="45.6111817" lon="9.5468912"><ele>179.5</ele><time>2026-04-05T07:23:07.348Z</time></trkpt><trkpt lat="45.6110522" lon="9.5465126"><ele>179.0</ele><time>2026-04-05T07:23:08.348Z</time></trkpt><trkpt lat="45.6109228" lon="9.5461372"><ele>180.0</ele><time>2026-04-05T07:23:09.348Z</time></trkpt><trkpt lat="45.6107976" lon="9.5457588"><ele>181.0</ele><time>2026-04-05T07:23:10.348Z</time></trkpt><trkpt lat="45.610668" lon="9.54538"><ele>179.5</ele><time>2026-04-05T07:23:11.348Z</time></trkpt><trkpt lat="45.6105428" lon="9.5449951"><ele>178.0</ele><time>2026-04-05T07:23:12.348Z</time></trkpt><trkpt lat="45.6104175" lon="9.5446102"><ele>179.0</ele><time>2026-04-05T07:23:13.348Z</time></trkpt><trkpt lat="45.6102878" lon="9.5442249"><ele>180.0</ele><time>2026-04-05T07:23:14.348Z</time></trkpt><trkpt lat="45.6101612" lon="9.5438437"><ele>180.5</ele><time>2026-04-05T07:23:15.348Z</time></trkpt><trkpt lat="45.6100356" lon="9.5434531"><ele>181.0</ele><time>2026-04-05T07:23:16.348Z</time></trkpt><trkpt lat="45.6099078" lon="9.5430785"><ele>181.5</ele><time>2026-04-05T07:23:17.348Z</time></trkpt><trkpt lat="45.609778" lon="9.5427"><ele>182.0</ele><time>2026-04-05T07:23:18.348Z</time></trkpt><trkpt lat="45.6096515" lon="9.542318"><ele>182.5</ele><time>2026-04-05T07:23:19.348Z</time></trkpt><trkpt lat="45.6095287" lon="9.541936"><ele>183.0</ele><time>2026-04-05T07:23:20.348Z</time></trkpt><trkpt lat="45.6094047" lon="9.5415481"><ele>182.5</ele><time>2026-04-05T07:23:21.348Z</time></trkpt><trkpt lat="45.6092819" lon="9.5411606"><ele>182.0</ele><time>2026-04-05T07:23:22.348Z</time></trkpt><trkpt lat="45.6091572" lon="9.5407744"><ele>182.0</ele><time>2026-04-05T07:23:23.348Z</time></trkpt><trkpt lat="45.6090306" lon="9.5403922"><ele>182.0</ele><time>2026-04-05T07:23:24.348Z</time></trkpt><trkpt lat="45.608907" lon="9.5400134"><ele>182.0</ele><time>2026-04-05T07:23:25.348Z</time></trkpt><trkpt lat="45.6087845" lon="9.5396408"><ele>182.0</ele><time>2026-04-05T07:23:26.348Z</time></trkpt><trkpt lat="45.6086613" lon="9.5392693"><ele>182.0</ele><time>2026-04-05T07:23:27.348Z</time></trkpt><trkpt lat="45.6085409" lon="9.538894"><ele>182.0</ele><time>2026-04-05T07:23:28.348Z</time></trkpt><trkpt lat="45.6084298" lon="9.538517"><ele>183.0</ele><time>2026-04-05T07:23:29.348Z</time></trkpt><trkpt lat="45.608318" lon="9.538147"><ele>184.0</ele><time>2026-04-05T07:23:30.348Z</time></trkpt><trkpt lat="45.6081963" lon="9.5377682"><ele>184.5</ele><time>2026-04-05T07:23:31.348Z</time></trkpt><trkpt lat="45.608074" lon="9.5373975"><ele>185.0</ele><time>2026-04-05T07:23:32.348Z</time></trkpt><trkpt lat="45.6079524" lon="9.5370286"><ele>184.5</ele><time>2026-04-05T07:23:33.348Z</time></trkpt><trkpt lat="45.6078293" lon="9.5366647"><ele>184.0</ele><time>2026-04-05T07:23:34.348Z</time></trkpt><trkpt lat="45.6077083" lon="9.5362999"><ele>183.5</ele><time>2026-04-05T07:23:35.348Z</time></trkpt><trkpt lat="45.6075875" lon="9.5359436"><ele>183.0</ele><time>2026-04-05T07:23:36.348Z</time></trkpt><trkpt lat="45.6074643" lon="9.5355872"><ele>183.5</ele><time>2026-04-05T07:23:37.348Z</time></trkpt><trkpt lat="45.6073421" lon="9.5352312"><ele>184.0</ele><time>2026-04-05T07:23:38.348Z</time></trkpt><trkpt lat="45.6072222" lon="9.5348821"><ele>184.5</ele><time>2026-04-05T07:23:39.348Z</time></trkpt><trkpt lat="45.6070942" lon="9.5345313"><ele>185.0</ele><time>2026-04-05T07:23:40.348Z</time></trkpt><trkpt lat="45.6069744" lon="9.5341836"><ele>185.0</ele><time>2026-04-05T07:23:41.348Z</time></trkpt><trkpt lat="45.606851" lon="9.5338345"><ele>185.0</ele><time>2026-04-05T07:23:42.348Z</time></trkpt><trkpt lat="45.6067256" lon="9.5334852"><ele>185.0</ele><time>2026-04-05T07:23:43.348Z</time></trkpt><trkpt lat="45.6066065" lon="9.5331375"><ele>185.0</ele><time>2026-04-05T07:23:44.348Z</time></trkpt><trkpt lat="45.6064863" lon="9.5327894"><ele>184.5</ele><time>2026-04-05T07:23:45.348Z</time></trkpt><trkpt lat="45.6063612" lon="9.5324483"><ele>184.0</ele><time>2026-04-05T07:23:46.348Z</time></trkpt><trkpt lat="45.6062426" lon="9.5321098"><ele>183.0</ele><time>2026-04-05T07:23:47.348Z</time></trkpt><trkpt lat="45.6061219" lon="9.5317637"><ele>182.0</ele><time>2026-04-05T07:23:48.348Z</time></trkpt><trkpt lat="45.6059987" lon="9.5314047"><ele>181.5</ele><time>2026-04-05T07:23:49.348Z</time></trkpt><trkpt lat="45.605872" lon="9.5310414"><ele>181.0</ele><time>2026-04-05T07:23:50.348Z</time></trkpt><trkpt lat="45.6057397" lon="9.5306582"><ele>182.0</ele><time>2026-04-05T07:23:51.348Z</time></trkpt><trkpt lat="45.6056084" lon="9.5302675"><ele>183.0</ele><time>2026-04-05T07:23:52.348Z</time></trkpt><trkpt lat="45.60547" lon="9.5298665"><ele>171.0</ele><time>2026-04-05T07:23:53.348Z</time></trkpt><trkpt lat="45.6053247" lon="9.5294408"><ele>159.0</ele><time>2026-04-05T07:23:54.348Z</time></trkpt><trkpt lat="45.6051799" lon="9.5290052"><ele>154.5</ele><time>2026-04-05T07:23:55.348Z</time></trkpt><trkpt lat="45.6050319" lon="9.5285554"><ele>150.0</ele><time>2026-04-05T07:23:56.348Z</time></trkpt><trkpt lat="45.6048834" lon="9.5280997"><ele>156.5</ele><time>2026-04-05T07:23:57.348Z</time></trkpt><trkpt lat="45.6047277" lon="9.5276435"><ele>163.0</ele><time>2026-04-05T07:23:58.348Z</time></trkpt><trkpt lat="45.6045731" lon="9.527184"><ele>171.0</ele><time>2026-04-05T07:23:59.348Z</time></trkpt><trkpt lat="45.6044177" lon="9.5267162"><ele>179.0</ele><time>2026-04-05T07:24:00.348Z</time></trkpt><trkpt lat="45.6042591" lon="9.5262462"><ele>179.0</ele><time>2026-04-05T07:24:01.348Z</time></trkpt><trkpt lat="45.6041007" lon="9.5257737"><ele>179.0</ele><time>2026-04-05T07:24:02.348Z</time></trkpt><trkpt lat="45.6039416" lon="9.5253072"><ele>179.0</ele><time>2026-04-05T07:24:03.348Z</time></trkpt><trkpt lat="45.6037881" lon="9.5248441"><ele>179.0</ele><time>2026-04-05T07:24:04.348Z</time></trkpt><trkpt lat="45.6036414" lon="9.5243985"><ele>179.0</ele><time>2026-04-05T07:24:05.348Z</time></trkpt><trkpt lat="45.603498" lon="9.5239791"><ele>179.0</ele><time>2026-04-05T07:24:06.348Z</time></trkpt><trkpt lat="45.6033638" lon="9.5235749"><ele>179.0</ele><time>2026-04-05T07:24:07.348Z</time></trkpt><trkpt lat="45.6032303" lon="9.5231758"><ele>179.0</ele><time>2026-04-05T07:24:08.348Z</time></trkpt><trkpt lat="45.6030991" lon="9.5227866"><ele>179.0</ele><time>2026-04-05T07:24:09.348Z</time></trkpt><trkpt lat="45.6029676" lon="9.5223991"><ele>179.0</ele><time>2026-04-05T07:24:10.348Z</time></trkpt><trkpt lat="45.602838" lon="9.5220143"><ele>180.0</ele><time>2026-04-05T07:24:11.348Z</time></trkpt><trkpt lat="45.602711" lon="9.5216291"><ele>181.0</ele><time>2026-04-05T07:24:12.348Z</time></trkpt><trkpt lat="45.6025819" lon="9.5212451"><ele>179.0</ele><time>2026-04-05T07:24:13.348Z</time></trkpt><trkpt lat="45.6024551" lon="9.5208591"><ele>177.0</ele><time>2026-04-05T07:24:14.348Z</time></trkpt><trkpt lat="45.6023288" lon="9.5204851"><ele>178.5</ele><time>2026-04-05T07:24:15.348Z</time></trkpt><trkpt lat="45.6022034" lon="9.5201094"><ele>180.0</ele><time>2026-04-05T07:24:16.348Z</time></trkpt><trkpt lat="45.6020796" lon="9.5197333"><ele>179.5</ele><time>2026-04-05T07:24:17.348Z</time></trkpt><trkpt lat="45.6019597" lon="9.5193626"><ele>179.0</ele><time>2026-04-05T07:24:18.348Z</time></trkpt><trkpt lat="45.6018393" lon="9.5189884"><ele>178.5</ele><time>2026-04-05T07:24:19.348Z</time></trkpt><trkpt lat="45.6017193" lon="9.5186141"><ele>178.0</ele><time>2026-04-05T07:24:20.348Z</time></trkpt><trkpt lat="45.6015993" lon="9.5182414"><ele>178.5</ele><time>2026-04-05T07:24:21.348Z</time></trkpt><trkpt lat="45.6014781" lon="9.5178707"><ele>179.0</ele><time>2026-04-05T07:24:22.348Z</time></trkpt><trkpt lat="45.6013591" lon="9.5175044"><ele>179.0</ele><time>2026-04-05T07:24:23.348Z</time></trkpt><trkpt lat="45.6012449" lon="9.5171358"><ele>179.0</ele><time>2026-04-05T07:24:24.348Z</time></trkpt><trkpt lat="45.6011276" lon="9.5167741"><ele>179.5</ele><time>2026-04-05T07:24:25.348Z</time></trkpt><trkpt lat="45.6010022" lon="9.5164073"><ele>180.0</ele><time>2026-04-05T07:24:26.348Z</time></trkpt><trkpt lat="45.6008868" lon="9.5160441"><ele>180.0</ele><time>2026-04-05T07:24:27.348Z</time></trkpt><trkpt lat="45.6007678" lon="9.5156816"><ele>180.0</ele><time>2026-04-05T07:24:28.348Z</time></trkpt><trkpt lat="45.6006348" lon="9.5153103"><ele>180.0</ele><time>2026-04-05T07:24:29.348Z</time></trkpt><trkpt lat="45.600494" lon="9.5149329"><ele>180.0</ele><time>2026-04-05T07:24:30.348Z</time></trkpt><trkpt lat="45.6003562" lon="9.5145502"><ele>178.0</ele><time>2026-04-05T07:24:31.348Z</time></trkpt><trkpt lat="45.6002213" lon="9.5141659"><ele>176.0</ele><time>2026-04-05T07:24:32.348Z</time></trkpt><trkpt lat="45.6000904" lon="9.5137769"><ele>177.0</ele><time>2026-04-05T07:24:33.348Z</time></trkpt><trkpt lat="45.5999615" lon="9.5133921"><ele>178.0</ele><time>2026-04-05T07:24:34.348Z</time></trkpt><trkpt lat="45.599833" lon="9.5130067"><ele>180.0</ele><time>2026-04-05T07:24:35.348Z</time></trkpt><trkpt lat="45.5997069" lon="9.512624"><ele>182.0</ele><time>2026-04-05T07:24:36.348Z</time></trkpt><trkpt lat="45.5995784" lon="9.5122396"><ele>180.0</ele><time>2026-04-05T07:24:37.348Z</time></trkpt><trkpt lat="45.5994436" lon="9.5118587"><ele>178.0</ele><time>2026-04-05T07:24:38.348Z</time></trkpt><trkpt lat="45.5992996" lon="9.511471"><ele>179.0</ele><time>2026-04-05T07:24:39.348Z</time></trkpt><trkpt lat="45.5991488" lon="9.5110707"><ele>180.0</ele><time>2026-04-05T07:24:40.348Z</time></trkpt><trkpt lat="45.5989997" lon="9.5106605"><ele>179.5</ele><time>2026-04-05T07:24:41.348Z</time></trkpt><trkpt lat="45.5988575" lon="9.5102461"><ele>179.0</ele><time>2026-04-05T07:24:42.348Z</time></trkpt><trkpt lat="45.5987191" lon="9.5098416"><ele>178.0</ele><time>2026-04-05T07:24:43.348Z</time></trkpt><trkpt lat="45.5985869" lon="9.509455"><ele>177.0</ele><time>2026-04-05T07:24:44.348Z</time></trkpt><trkpt lat="45.5984541" lon="9.5090656"><ele>178.5</ele><time>2026-04-05T07:24:45.348Z</time></trkpt><trkpt lat="45.5983222" lon="9.5086744"><ele>180.0</ele><time>2026-04-05T07:24:46.348Z</time></trkpt><trkpt lat="45.5981898" lon="9.5082749"><ele>182.0</ele><time>2026-04-05T07:24:47.348Z</time></trkpt><trkpt lat="45.598056" lon="9.5078777"><ele>184.0</ele><time>2026-04-05T07:24:48.348Z</time></trkpt><trkpt lat="45.5979203" lon="9.5074779"><ele>182.0</ele><time>2026-04-05T07:24:49.348Z</time></trkpt><trkpt lat="45.5977833" lon="9.5070733"><ele>180.0</ele><time>2026-04-05T07:24:50.348Z</time></trkpt><trkpt lat="45.5976463" lon="9.5066674"><ele>180.0</ele><time>2026-04-05T07:24:51.348Z</time></trkpt><trkpt lat="45.597509" lon="9.5062591"><ele>180.0</ele><time>2026-04-05T07:24:52.348Z</time></trkpt><trkpt lat="45.5973751" lon="9.5058432"><ele>180.0</ele><time>2026-04-05T07:24:53.348Z</time></trkpt><trkpt lat="45.597243" lon="9.5054267"><ele>180.0</ele><time>2026-04-05T07:24:54.348Z</time></trkpt><trkpt lat="45.5971121" lon="9.5050106"><ele>179.0</ele><time>2026-04-05T07:24:55.348Z</time></trkpt><trkpt lat="45.5969802" lon="9.5045954"><ele>178.0</ele><time>2026-04-05T07:24:56.348Z</time></trkpt><trkpt lat="45.5968543" lon="9.504178"><ele>178.0</ele><time>2026-04-05T07:24:57.348Z</time></trkpt><trkpt lat="45.596726" lon="9.5037614"><ele>178.0</ele><time>2026-04-05T07:24:58.348Z</time></trkpt><trkpt lat="45.5965914" lon="9.5033512"><ele>178.0</ele><time>2026-04-05T07:24:59.348Z</time></trkpt><trkpt lat="45.596454" lon="9.5029438"><ele>178.0</ele><time>2026-04-05T07:25:00.348Z</time></trkpt><trkpt lat="45.5963102" lon="9.502534"><ele>178.0</ele><time>2026-04-05T07:25:01.348Z</time></trkpt><trkpt lat="45.5961741" lon="9.5021179"><ele>178.0</ele><time>2026-04-05T07:25:02.348Z</time></trkpt><trkpt lat="45.59603" lon="9.5016943"><ele>178.0</ele><time>2026-04-05T07:25:03.348Z</time></trkpt><trkpt lat="45.595892" lon="9.501285"><ele>178.0</ele><time>2026-04-05T07:25:04.348Z</time></trkpt><trkpt lat="45.5957562" lon="9.5008727"><ele>178.0</ele><time>2026-04-05T07:25:05.348Z</time></trkpt><trkpt lat="45.5956263" lon="9.5004634"><ele>178.0</ele><time>2026-04-05T07:25:06.348Z</time></trkpt><trkpt lat="45.5954999" lon="9.5000558"><ele>179.0</ele><time>2026-04-05T07:25:07.348Z</time></trkpt><trkpt lat="45.5953799" lon="9.4996533"><ele>180.0</ele><time>2026-04-05T07:25:08.348Z</time></trkpt><trkpt lat="45.5952658" lon="9.499255"><ele>180.0</ele><time>2026-04-05T07:25:09.348Z</time></trkpt><trkpt lat="45.595157" lon="9.4988576"><ele>180.0</ele><time>2026-04-05T07:25:10.348Z</time></trkpt><trkpt lat="45.5950565" lon="9.4984575"><ele>180.0</ele><time>2026-04-05T07:25:11.348Z</time></trkpt><trkpt lat="45.5949666" lon="9.4980553"><ele>180.0</ele><time>2026-04-05T07:25:12.348Z</time></trkpt><trkpt lat="45.5948776" lon="9.4976564"><ele>179.5</ele><time>2026-04-05T07:25:13.349Z</time></trkpt><trkpt lat="45.5947881" lon="9.4972508"><ele>179.0</ele><time>2026-04-05T07:25:14.348Z</time></trkpt><trkpt lat="45.5947012" lon="9.4968396"><ele>180.0</ele><time>2026-04-05T07:25:15.348Z</time></trkpt><trkpt lat="45.594617" lon="9.4964254"><ele>181.0</ele><time>2026-04-05T07:25:16.348Z</time></trkpt><trkpt lat="45.5945372" lon="9.4960129"><ele>181.0</ele><time>2026-04-05T07:25:17.348Z</time></trkpt><trkpt lat="45.594461" lon="9.4955992"><ele>181.0</ele><time>2026-04-05T07:25:18.348Z</time></trkpt><trkpt lat="45.5943829" lon="9.4951907"><ele>181.0</ele><time>2026-04-05T07:25:19.348Z</time></trkpt><trkpt lat="45.5943074" lon="9.4947818"><ele>181.0</ele><time>2026-04-05T07:25:20.348Z</time></trkpt><trkpt lat="45.5942306" lon="9.4943753"><ele>181.5</ele><time>2026-04-05T07:25:21.348Z</time></trkpt><trkpt lat="45.5941497" lon="9.4939671"><ele>182.0</ele><time>2026-04-05T07:25:22.348Z</time></trkpt><trkpt lat="45.5940696" lon="9.4935557"><ele>181.0</ele><time>2026-04-05T07:25:23.348Z</time></trkpt><trkpt lat="45.5939909" lon="9.4931442"><ele>180.0</ele><time>2026-04-05T07:25:24.348Z</time></trkpt><trkpt lat="45.593912" lon="9.4927308"><ele>180.0</ele><time>2026-04-05T07:25:25.348Z</time></trkpt><trkpt lat="45.5938347" lon="9.4923154"><ele>180.0</ele><time>2026-04-05T07:25:26.348Z</time></trkpt><trkpt lat="45.5937564" lon="9.4919026"><ele>179.5</ele><time>2026-04-05T07:25:27.348Z</time></trkpt><trkpt lat="45.5936767" lon="9.491485"><ele>179.0</ele><time>2026-04-05T07:25:28.348Z</time></trkpt><trkpt lat="45.5935949" lon="9.4910566"><ele>179.5</ele><time>2026-04-05T07:25:29.348Z</time></trkpt><trkpt lat="45.5935131" lon="9.4906236"><ele>180.0</ele><time>2026-04-05T07:25:30.348Z</time></trkpt><trkpt lat="45.5934312" lon="9.4901902"><ele>180.0</ele><time>2026-04-05T07:25:31.348Z</time></trkpt><trkpt lat="45.5933468" lon="9.4897667"><ele>180.0</ele><time>2026-04-05T07:25:32.348Z</time></trkpt><trkpt lat="45.5932637" lon="9.4893399"><ele>180.0</ele><time>2026-04-05T07:25:33.348Z</time></trkpt><trkpt lat="45.5931842" lon="9.4889155"><ele>180.0</ele><time>2026-04-05T07:25:34.348Z</time></trkpt><trkpt lat="45.5931106" lon="9.4884964"><ele>180.0</ele><time>2026-04-05T07:25:35.348Z</time></trkpt><trkpt lat="45.5930389" lon="9.4881032"><ele>180.0</ele><time>2026-04-05T07:25:36.348Z</time></trkpt><trkpt lat="45.592965" lon="9.4877269"><ele>180.5</ele><time>2026-04-05T07:25:37.348Z</time></trkpt><trkpt lat="45.592892" lon="9.487361"><ele>181.0</ele><time>2026-04-05T07:25:38.348Z</time></trkpt><trkpt lat="45.5928194" lon="9.4870028"><ele>180.0</ele><time>2026-04-05T07:25:39.348Z</time></trkpt><trkpt lat="45.5927405" lon="9.4866472"><ele>179.0</ele><time>2026-04-05T07:25:40.348Z</time></trkpt><trkpt lat="45.5926622" lon="9.486299"><ele>179.0</ele><time>2026-04-05T07:25:41.353Z</time></trkpt><trkpt lat="45.592592" lon="9.485959"><ele>179.0</ele><time>2026-04-05T07:25:42.353Z</time></trkpt><trkpt lat="45.59253" lon="9.4856234"><ele>179.0</ele><time>2026-04-05T07:25:43.353Z</time></trkpt><trkpt lat="45.5924699" lon="9.4852943"><ele>179.0</ele><time>2026-04-05T07:25:44.353Z</time></trkpt><trkpt lat="45.5924094" lon="9.4849724"><ele>179.0</ele><time>2026-04-05T07:25:45.353Z</time></trkpt><trkpt lat="45.5923466" lon="9.4846538"><ele>179.0</ele><time>2026-04-05T07:25:46.353Z</time></trkpt><trkpt lat="45.5922865" lon="9.4843397"><ele>180.0</ele><time>2026-04-05T07:25:47.353Z</time></trkpt><trkpt lat="45.5922273" lon="9.4840278"><ele>181.0</ele><time>2026-04-05T07:25:48.353Z</time></trkpt><trkpt lat="45.5921673" lon="9.4837159"><ele>182.0</ele><time>2026-04-05T07:25:49.353Z</time></trkpt><trkpt lat="45.5920988" lon="9.4833863"><ele>183.0</ele><time>2026-04-05T07:25:50.353Z</time></trkpt><trkpt lat="45.5920295" lon="9.4830335"><ele>183.0</ele><time>2026-04-05T07:25:51.353Z</time></trkpt><trkpt lat="45.5919578" lon="9.4826601"><ele>183.0</ele><time>2026-04-05T07:25:52.353Z</time></trkpt><trkpt lat="45.5918846" lon="9.4822634"><ele>182.5</ele><time>2026-04-05T07:25:53.353Z</time></trkpt><trkpt lat="45.5918099" lon="9.4818535"><ele>182.0</ele><time>2026-04-05T07:25:54.353Z</time></trkpt><trkpt lat="45.591727" lon="9.4814199"><ele>182.0</ele><time>2026-04-05T07:25:55.353Z</time></trkpt><trkpt lat="45.5916429" lon="9.4809775"><ele>182.0</ele><time>2026-04-05T07:25:56.353Z</time></trkpt><trkpt lat="45.5915556" lon="9.4805273"><ele>182.5</ele><time>2026-04-05T07:25:57.353Z</time></trkpt><trkpt lat="45.591474" lon="9.4800859"><ele>183.0</ele><time>2026-04-05T07:25:58.353Z</time></trkpt><trkpt lat="45.591395" lon="9.4796556"><ele>180.5</ele><time>2026-04-05T07:25:59.353Z</time></trkpt><trkpt lat="45.5913173" lon="9.4792277"><ele>178.0</ele><time>2026-04-05T07:26:00.353Z</time></trkpt><trkpt lat="45.5912295" lon="9.4788055"><ele>178.0</ele><time>2026-04-05T07:26:01.353Z</time></trkpt><trkpt lat="45.5911515" lon="9.4783765"><ele>178.0</ele><time>2026-04-05T07:26:02.353Z</time></trkpt><trkpt lat="45.5910748" lon="9.4779533"><ele>178.0</ele><time>2026-04-05T07:26:03.353Z</time></trkpt><trkpt lat="45.5909946" lon="9.4775333"><ele>178.0</ele><time>2026-04-05T07:26:04.353Z</time></trkpt><trkpt lat="45.5909184" lon="9.477115"><ele>179.0</ele><time>2026-04-05T07:26:05.353Z</time></trkpt><trkpt lat="45.5908391" lon="9.4766981"><ele>180.0</ele><time>2026-04-05T07:26:06.353Z</time></trkpt><trkpt lat="45.5907578" lon="9.4762838"><ele>181.5</ele><time>2026-04-05T07:26:07.353Z</time></trkpt><trkpt lat="45.5906732" lon="9.4758704"><ele>183.0</ele><time>2026-04-05T07:26:08.353Z</time></trkpt><trkpt lat="45.590593" lon="9.4754551"><ele>182.0</ele><time>2026-04-05T07:26:09.353Z</time></trkpt><trkpt lat="45.5905172" lon="9.4750428"><ele>181.0</ele><time>2026-04-05T07:26:10.353Z</time></trkpt><trkpt lat="45.5904405" lon="9.4746339"><ele>180.5</ele><time>2026-04-05T07:26:11.353Z</time></trkpt><trkpt lat="45.5903606" lon="9.4742288"><ele>180.0</ele><time>2026-04-05T07:26:12.353Z</time></trkpt><trkpt lat="45.5902852" lon="9.4738289"><ele>180.5</ele><time>2026-04-05T07:26:13.353Z</time></trkpt><trkpt lat="45.5902056" lon="9.4734305"><ele>181.0</ele><time>2026-04-05T07:26:14.353Z</time></trkpt><trkpt lat="45.5901284" lon="9.4730356"><ele>180.0</ele><time>2026-04-05T07:26:15.353Z</time></trkpt><trkpt lat="45.5900515" lon="9.4726406"><ele>179.0</ele><time>2026-04-05T07:26:16.353Z</time></trkpt><trkpt lat="45.5899752" lon="9.4722471"><ele>179.0</ele><time>2026-04-05T07:26:17.353Z</time></trkpt><trkpt lat="45.5898989" lon="9.4718533"><ele>179.0</ele><time>2026-04-05T07:26:18.353Z</time></trkpt><trkpt lat="45.5898208" lon="9.4714589"><ele>179.0</ele><time>2026-04-05T07:26:19.353Z</time></trkpt><trkpt lat="45.5897445" lon="9.4710659"><ele>179.0</ele><time>2026-04-05T07:26:20.353Z</time></trkpt><trkpt lat="45.5896711" lon="9.4706738"><ele>179.0</ele><time>2026-04-05T07:26:21.353Z</time></trkpt><trkpt lat="45.5895977" lon="9.4702765"><ele>179.0</ele><time>2026-04-05T07:26:22.353Z</time></trkpt><trkpt lat="45.5895205" lon="9.469881"><ele>179.5</ele><time>2026-04-05T07:26:23.353Z</time></trkpt><trkpt lat="45.5894435" lon="9.469487"><ele>180.0</ele><time>2026-04-05T07:26:24.353Z</time></trkpt><trkpt lat="45.5893672" lon="9.4690944"><ele>181.0</ele><time>2026-04-05T07:26:25.353Z</time></trkpt><trkpt lat="45.5892923" lon="9.4687011"><ele>182.0</ele><time>2026-04-05T07:26:26.353Z</time></trkpt><trkpt lat="45.5892119" lon="9.4683063"><ele>182.5</ele><time>2026-04-05T07:26:27.353Z</time></trkpt><trkpt lat="45.5891379" lon="9.4679086"><ele>183.0</ele><time>2026-04-05T07:26:28.353Z</time></trkpt><trkpt lat="45.5890628" lon="9.4675121"><ele>183.0</ele><time>2026-04-05T07:26:29.353Z</time></trkpt><trkpt lat="45.5889885" lon="9.4671156"><ele>183.0</ele><time>2026-04-05T07:26:30.353Z</time></trkpt><trkpt lat="45.5889149" lon="9.4667187"><ele>182.5</ele><time>2026-04-05T07:26:31.353Z</time></trkpt><trkpt lat="45.5888393" lon="9.4663215"><ele>182.0</ele><time>2026-04-05T07:26:32.353Z</time></trkpt><trkpt lat="45.5887608" lon="9.4659251"><ele>180.5</ele><time>2026-04-05T07:26:33.353Z</time></trkpt><trkpt lat="45.5886828" lon="9.4655259"><ele>179.0</ele><time>2026-04-05T07:26:34.353Z</time></trkpt><trkpt lat="45.5886042" lon="9.4651295"><ele>178.5</ele><time>2026-04-05T07:26:35.353Z</time></trkpt><trkpt lat="45.5885247" lon="9.4647322"><ele>178.0</ele><time>2026-04-05T07:26:36.353Z</time></trkpt><trkpt lat="45.5884469" lon="9.464335"><ele>178.0</ele><time>2026-04-05T07:26:37.353Z</time></trkpt><trkpt lat="45.5883702" lon="9.4639338"><ele>178.0</ele><time>2026-04-05T07:26:38.353Z</time></trkpt><trkpt lat="45.5882967" lon="9.4635225"><ele>178.5</ele><time>2026-04-05T07:26:39.353Z</time></trkpt><trkpt lat="45.5882166" lon="9.4630993"><ele>179.0</ele><time>2026-04-05T07:26:40.353Z</time></trkpt><trkpt lat="45.5881321" lon="9.4626674"><ele>179.5</ele><time>2026-04-05T07:26:41.353Z</time></trkpt><trkpt lat="45.5880472" lon="9.4622299"><ele>180.0</ele><time>2026-04-05T07:26:42.353Z</time></trkpt><trkpt lat="45.5879615" lon="9.4617786"><ele>180.5</ele><time>2026-04-05T07:26:43.353Z</time></trkpt><trkpt lat="45.5878727" lon="9.4613191"><ele>181.0</ele><time>2026-04-05T07:26:44.353Z</time></trkpt><trkpt lat="45.5877813" lon="9.4608495"><ele>180.0</ele><time>2026-04-05T07:26:45.353Z</time></trkpt><trkpt lat="45.5876907" lon="9.4603789"><ele>179.0</ele><time>2026-04-05T07:26:46.353Z</time></trkpt><trkpt lat="45.5876029" lon="9.4599159"><ele>177.5</ele><time>2026-04-05T07:26:47.353Z</time></trkpt><trkpt lat="45.5875184" lon="9.4594583"><ele>176.0</ele><time>2026-04-05T07:26:48.353Z</time></trkpt><trkpt lat="45.5874353" lon="9.4590219"><ele>176.0</ele><time>2026-04-05T07:26:49.353Z</time></trkpt><trkpt lat="45.5873571" lon="9.4585911"><ele>176.0</ele><time>2026-04-05T07:26:50.353Z</time></trkpt><trkpt lat="45.5872742" lon="9.4581763"><ele>176.5</ele><time>2026-04-05T07:26:51.353Z</time></trkpt><trkpt lat="45.5871964" lon="9.4577674"><ele>177.0</ele><time>2026-04-05T07:26:52.353Z</time></trkpt><trkpt lat="45.5871168" lon="9.4573603"><ele>177.5</ele><time>2026-04-05T07:26:53.353Z</time></trkpt><trkpt lat="45.5870387" lon="9.4569583"><ele>178.0</ele><time>2026-04-05T07:26:54.353Z</time></trkpt><trkpt lat="45.586962" lon="9.4565555"><ele>177.5</ele><time>2026-04-05T07:26:55.353Z</time></trkpt><trkpt lat="45.5868846" lon="9.4561544"><ele>177.0</ele><time>2026-04-05T07:26:56.353Z</time></trkpt><trkpt lat="45.5868087" lon="9.4557561"><ele>176.5</ele><time>2026-04-05T07:26:57.353Z</time></trkpt><trkpt lat="45.5867335" lon="9.4553616"><ele>176.0</ele><time>2026-04-05T07:26:58.353Z</time></trkpt><trkpt lat="45.5866563" lon="9.4549589"><ele>175.5</ele><time>2026-04-05T07:26:59.353Z</time></trkpt><trkpt lat="45.5865772" lon="9.4545591"><ele>175.0</ele><time>2026-04-05T07:27:00.353Z</time></trkpt><trkpt lat="45.5864983" lon="9.454165"><ele>176.0</ele><time>2026-04-05T07:27:01.353Z</time></trkpt><trkpt lat="45.586421" lon="9.4537706"><ele>177.0</ele><time>2026-04-05T07:27:02.353Z</time></trkpt><trkpt lat="45.5863464" lon="9.4533753"><ele>177.0</ele><time>2026-04-05T07:27:03.353Z</time></trkpt><trkpt lat="45.5862713" lon="9.4529844"><ele>177.0</ele><time>2026-04-05T07:27:04.353Z</time></trkpt><trkpt lat="45.5861941" lon="9.4525932"><ele>175.5</ele><time>2026-04-05T07:27:05.353Z</time></trkpt><trkpt lat="45.5861209" lon="9.4522016"><ele>174.0</ele><time>2026-04-05T07:27:06.353Z</time></trkpt><trkpt lat="45.586045" lon="9.4518139"><ele>174.0</ele><time>2026-04-05T07:27:07.353Z</time></trkpt><trkpt lat="45.5859717" lon="9.4514271"><ele>174.0</ele><time>2026-04-05T07:27:08.353Z</time></trkpt><trkpt lat="45.5858949" lon="9.4510443"><ele>174.0</ele><time>2026-04-05T07:27:09.353Z</time></trkpt><trkpt lat="45.5858126" lon="9.4506629"><ele>174.0</ele><time>2026-04-05T07:27:10.353Z</time></trkpt><trkpt lat="45.5857285" lon="9.45028"><ele>174.0</ele><time>2026-04-05T07:27:11.353Z</time></trkpt><trkpt lat="45.5856457" lon="9.4498964"><ele>174.0</ele><time>2026-04-05T07:27:12.353Z</time></trkpt><trkpt lat="45.5855656" lon="9.4495116"><ele>174.0</ele><time>2026-04-05T07:27:13.353Z</time></trkpt><trkpt lat="45.5854918" lon="9.4491253"><ele>174.0</ele><time>2026-04-05T07:27:14.353Z</time></trkpt><trkpt lat="45.585419" lon="9.4487339"><ele>174.0</ele><time>2026-04-05T07:27:15.353Z</time></trkpt><trkpt lat="45.5853476" lon="9.4483416"><ele>174.0</ele><time>2026-04-05T07:27:16.353Z</time></trkpt><trkpt lat="45.585273" lon="9.4479532"><ele>173.5</ele><time>2026-04-05T07:27:17.353Z</time></trkpt><trkpt lat="45.5851956" lon="9.4475587"><ele>173.0</ele><time>2026-04-05T07:27:18.353Z</time></trkpt><trkpt lat="45.5851195" lon="9.4471665"><ele>173.5</ele><time>2026-04-05T07:27:19.353Z</time></trkpt><trkpt lat="45.585043" lon="9.4467735"><ele>174.0</ele><time>2026-04-05T07:27:20.353Z</time></trkpt><trkpt lat="45.5849698" lon="9.4463784"><ele>175.0</ele><time>2026-04-05T07:27:21.353Z</time></trkpt><trkpt lat="45.5848961" lon="9.4459845"><ele>176.0</ele><time>2026-04-05T07:27:22.353Z</time></trkpt><trkpt lat="45.5848243" lon="9.4455886"><ele>177.5</ele><time>2026-04-05T07:27:23.353Z</time></trkpt><trkpt lat="45.5847558" lon="9.4451917"><ele>179.0</ele><time>2026-04-05T07:27:24.353Z</time></trkpt><trkpt lat="45.5846888" lon="9.4447938"><ele>178.5</ele><time>2026-04-05T07:27:25.353Z</time></trkpt><trkpt lat="45.5846207" lon="9.4443952"><ele>178.0</ele><time>2026-04-05T07:27:26.353Z</time></trkpt><trkpt lat="45.5845452" lon="9.4439998"><ele>175.5</ele><time>2026-04-05T07:27:27.353Z</time></trkpt><trkpt lat="45.5844702" lon="9.4436078"><ele>173.0</ele><time>2026-04-05T07:27:28.353Z</time></trkpt><trkpt lat="45.5843936" lon="9.4432108"><ele>173.0</ele><time>2026-04-05T07:27:29.353Z</time></trkpt><trkpt lat="45.5843164" lon="9.4428164"><ele>173.0</ele><time>2026-04-05T07:27:30.353Z</time></trkpt><trkpt lat="45.5842419" lon="9.4424218"><ele>173.0</ele><time>2026-04-05T07:27:31.353Z</time></trkpt><trkpt lat="45.5841677" lon="9.4420247"><ele>173.0</ele><time>2026-04-05T07:27:32.353Z</time></trkpt><trkpt lat="45.584094" lon="9.4416278"><ele>173.0</ele><time>2026-04-05T07:27:33.353Z</time></trkpt><trkpt lat="45.5840157" lon="9.4412341"><ele>173.0</ele><time>2026-04-05T07:27:34.353Z</time></trkpt><trkpt lat="45.5839387" lon="9.4408396"><ele>174.0</ele><time>2026-04-05T07:27:35.353Z</time></trkpt><trkpt lat="45.5838636" lon="9.4404429"><ele>175.0</ele><time>2026-04-05T07:27:36.353Z</time></trkpt><trkpt lat="45.5837853" lon="9.4400459"><ele>175.0</ele><time>2026-04-05T07:27:37.353Z</time></trkpt><trkpt lat="45.5837127" lon="9.4396507"><ele>175.0</ele><time>2026-04-05T07:27:38.353Z</time></trkpt><trkpt lat="45.5836383" lon="9.439253"><ele>173.5</ele><time>2026-04-05T07:27:39.353Z</time></trkpt><trkpt lat="45.5835636" lon="9.4388521"><ele>172.0</ele><time>2026-04-05T07:27:40.353Z</time></trkpt><trkpt lat="45.5834873" lon="9.4384522"><ele>171.5</ele><time>2026-04-05T07:27:41.353Z</time></trkpt><trkpt lat="45.5834099" lon="9.4380547"><ele>171.0</ele><time>2026-04-05T07:27:42.353Z</time></trkpt><trkpt lat="45.5833329" lon="9.4376577"><ele>172.0</ele><time>2026-04-05T07:27:43.353Z</time></trkpt><trkpt lat="45.5832523" lon="9.4372575"><ele>173.0</ele><time>2026-04-05T07:27:44.353Z</time></trkpt><trkpt lat="45.5831763" lon="9.4368526"><ele>173.0</ele><time>2026-04-05T07:27:45.353Z</time></trkpt><trkpt lat="45.5831" lon="9.4364447"><ele>173.0</ele><time>2026-04-05T07:27:46.353Z</time></trkpt><trkpt lat="45.5830202" lon="9.4360292"><ele>173.5</ele><time>2026-04-05T07:27:47.354Z</time></trkpt><trkpt lat="45.5829381" lon="9.4356054"><ele>174.0</ele><time>2026-04-05T07:27:48.354Z</time></trkpt><trkpt lat="45.5828557" lon="9.4351717"><ele>172.0</ele><time>2026-04-05T07:27:49.354Z</time></trkpt><trkpt lat="45.5827719" lon="9.4347301"><ele>170.0</ele><time>2026-04-05T07:27:50.354Z</time></trkpt><trkpt lat="45.5826858" lon="9.4342784"><ele>170.0</ele><time>2026-04-05T07:27:51.354Z</time></trkpt><trkpt lat="45.582596" lon="9.4338168"><ele>170.0</ele><time>2026-04-05T07:27:52.354Z</time></trkpt><trkpt lat="45.5825035" lon="9.4333438"><ele>170.5</ele><time>2026-04-05T07:27:53.354Z</time></trkpt><trkpt lat="45.5824126" lon="9.4328661"><ele>171.0</ele><time>2026-04-05T07:27:54.354Z</time></trkpt><trkpt lat="45.5823209" lon="9.4323798"><ele>169.5</ele><time>2026-04-05T07:27:55.354Z</time></trkpt><trkpt lat="45.5822285" lon="9.4318924"><ele>168.0</ele><time>2026-04-05T07:27:56.354Z</time></trkpt><trkpt lat="45.5821329" lon="9.4314083"><ele>167.5</ele><time>2026-04-05T07:27:57.354Z</time></trkpt><trkpt lat="45.5820367" lon="9.4309257"><ele>167.0</ele><time>2026-04-05T07:27:58.354Z</time></trkpt><trkpt lat="45.581947" lon="9.4304449"><ele>167.0</ele><time>2026-04-05T07:27:59.354Z</time></trkpt><trkpt lat="45.581858" lon="9.4299694"><ele>167.0</ele><time>2026-04-05T07:28:00.354Z</time></trkpt><trkpt lat="45.5817656" lon="9.4294967"><ele>168.0</ele><time>2026-04-05T07:28:01.354Z</time></trkpt><trkpt lat="45.5816749" lon="9.4290294"><ele>169.0</ele><time>2026-04-05T07:28:02.354Z</time></trkpt><trkpt lat="45.5815888" lon="9.4285627"><ele>169.5</ele><time>2026-04-05T07:28:03.354Z</time></trkpt><trkpt lat="45.5815042" lon="9.4281064"><ele>170.0</ele><time>2026-04-05T07:28:04.354Z</time></trkpt><trkpt lat="45.5814167" lon="9.4276536"><ele>170.0</ele><time>2026-04-05T07:28:05.354Z</time></trkpt><trkpt lat="45.581331" lon="9.4272122"><ele>170.0</ele><time>2026-04-05T07:28:06.354Z</time></trkpt><trkpt lat="45.5812492" lon="9.4267854"><ele>170.0</ele><time>2026-04-05T07:28:07.354Z</time></trkpt><trkpt lat="45.581167" lon="9.4263653"><ele>170.0</ele><time>2026-04-05T07:28:08.354Z</time></trkpt><trkpt lat="45.5810872" lon="9.4259504"><ele>170.0</ele><time>2026-04-05T07:28:09.354Z</time></trkpt><trkpt lat="45.5810064" lon="9.4255256"><ele>170.0</ele><time>2026-04-05T07:28:10.354Z</time></trkpt><trkpt lat="45.5809236" lon="9.4251011"><ele>170.0</ele><time>2026-04-05T07:28:11.354Z</time></trkpt><trkpt lat="45.5808343" lon="9.4246705"><ele>170.0</ele><time>2026-04-05T07:28:12.354Z</time></trkpt><trkpt lat="45.5807497" lon="9.4242289"><ele>168.5</ele><time>2026-04-05T07:28:13.354Z</time></trkpt><trkpt lat="45.5806615" lon="9.4237754"><ele>167.0</ele><time>2026-04-05T07:28:14.354Z</time></trkpt><trkpt lat="45.5805717" lon="9.4233162"><ele>167.0</ele><time>2026-04-05T07:28:15.354Z</time></trkpt><trkpt lat="45.5804824" lon="9.4228449"><ele>167.0</ele><time>2026-04-05T07:28:16.354Z</time></trkpt><trkpt lat="45.5803896" lon="9.422374"><ele>167.0</ele><time>2026-04-05T07:28:17.354Z</time></trkpt><trkpt lat="45.5802938" lon="9.4219052"><ele>167.0</ele><time>2026-04-05T07:28:18.354Z</time></trkpt><trkpt lat="45.5802003" lon="9.4214434"><ele>167.5</ele><time>2026-04-05T07:28:19.354Z</time></trkpt><trkpt lat="45.580107" lon="9.4209856"><ele>168.0</ele><time>2026-04-05T07:28:20.354Z</time></trkpt><trkpt lat="45.5800151" lon="9.4205314"><ele>168.5</ele><time>2026-04-05T07:28:21.354Z</time></trkpt><trkpt lat="45.5799223" lon="9.4200854"><ele>169.0</ele><time>2026-04-05T07:28:22.354Z</time></trkpt><trkpt lat="45.5798279" lon="9.419646"><ele>169.0</ele><time>2026-04-05T07:28:23.354Z</time></trkpt><trkpt lat="45.5797376" lon="9.4192119"><ele>169.0</ele><time>2026-04-05T07:28:24.354Z</time></trkpt><trkpt lat="45.5796498" lon="9.4187838"><ele>168.5</ele><time>2026-04-05T07:28:25.354Z</time></trkpt><trkpt lat="45.5795659" lon="9.4183599"><ele>168.0</ele><time>2026-04-05T07:28:26.354Z</time></trkpt><trkpt lat="45.5794841" lon="9.4179402"><ele>167.0</ele><time>2026-04-05T07:28:27.354Z</time></trkpt><trkpt lat="45.5794047" lon="9.4175241"><ele>166.0</ele><time>2026-04-05T07:28:28.354Z</time></trkpt><trkpt lat="45.5793231" lon="9.4171003"><ele>165.5</ele><time>2026-04-05T07:28:29.354Z</time></trkpt><trkpt lat="45.5792397" lon="9.4166757"><ele>165.0</ele><time>2026-04-05T07:28:30.354Z</time></trkpt><trkpt lat="45.5791587" lon="9.4162557"><ele>166.0</ele><time>2026-04-05T07:28:31.354Z</time></trkpt><trkpt lat="45.5790774" lon="9.4158366"><ele>167.0</ele><time>2026-04-05T07:28:32.354Z</time></trkpt><trkpt lat="45.5789993" lon="9.415413"><ele>168.0</ele><time>2026-04-05T07:28:33.354Z</time></trkpt><trkpt lat="45.5789203" lon="9.4149954"><ele>169.0</ele><time>2026-04-05T07:28:34.354Z</time></trkpt><trkpt lat="45.5788403" lon="9.4145851"><ele>169.0</ele><time>2026-04-05T07:28:35.354Z</time></trkpt><trkpt lat="45.5787606" lon="9.4141751"><ele>169.0</ele><time>2026-04-05T07:28:36.354Z</time></trkpt><trkpt lat="45.5786796" lon="9.4137621"><ele>168.0</ele><time>2026-04-05T07:28:37.354Z</time></trkpt><trkpt lat="45.5786059" lon="9.4133511"><ele>167.0</ele><time>2026-04-05T07:28:38.354Z</time></trkpt><trkpt lat="45.5785334" lon="9.4129395"><ele>167.0</ele><time>2026-04-05T07:28:39.354Z</time></trkpt><trkpt lat="45.5784603" lon="9.4125303"><ele>167.0</ele><time>2026-04-05T07:28:40.354Z</time></trkpt><trkpt lat="45.5783869" lon="9.412112"><ele>167.0</ele><time>2026-04-05T07:28:41.354Z</time></trkpt><trkpt lat="45.5783087" lon="9.411681"><ele>167.0</ele><time>2026-04-05T07:28:42.354Z</time></trkpt><trkpt lat="45.5782313" lon="9.4112401"><ele>167.0</ele><time>2026-04-05T07:28:43.354Z</time></trkpt><trkpt lat="45.5781488" lon="9.4107934"><ele>167.0</ele><time>2026-04-05T07:28:44.354Z</time></trkpt><trkpt lat="45.5780715" lon="9.4103404"><ele>167.0</ele><time>2026-04-05T07:28:45.354Z</time></trkpt><trkpt lat="45.5779906" lon="9.4098901"><ele>167.0</ele><time>2026-04-05T07:28:46.354Z</time></trkpt><trkpt lat="45.5779058" lon="9.4094459"><ele>166.0</ele><time>2026-04-05T07:28:47.354Z</time></trkpt><trkpt lat="45.5778233" lon="9.4090089"><ele>165.0</ele><time>2026-04-05T07:28:48.354Z</time></trkpt><trkpt lat="45.5777413" lon="9.4085729"><ele>164.5</ele><time>2026-04-05T07:28:49.354Z</time></trkpt><trkpt lat="45.577659" lon="9.4081445"><ele>164.0</ele><time>2026-04-05T07:28:50.354Z</time></trkpt><trkpt lat="45.5775758" lon="9.4077188"><ele>164.0</ele><time>2026-04-05T07:28:51.354Z</time></trkpt><trkpt lat="45.5774943" lon="9.4072922"><ele>164.0</ele><time>2026-04-05T07:28:52.354Z</time></trkpt><trkpt lat="45.5774142" lon="9.4068679"><ele>164.5</ele><time>2026-04-05T07:28:53.354Z</time></trkpt><trkpt lat="45.5773314" lon="9.4064477"><ele>165.0</ele><time>2026-04-05T07:28:54.354Z</time></trkpt><trkpt lat="45.5772463" lon="9.406022"><ele>165.0</ele><time>2026-04-05T07:28:55.354Z</time></trkpt><trkpt lat="45.5771614" lon="9.4055909"><ele>165.0</ele><time>2026-04-05T07:28:56.354Z</time></trkpt><trkpt lat="45.577078" lon="9.4051574"><ele>164.5</ele><time>2026-04-05T07:28:57.354Z</time></trkpt><trkpt lat="45.5769942" lon="9.4047169"><ele>164.0</ele><time>2026-04-05T07:28:58.354Z</time></trkpt><trkpt lat="45.576911" lon="9.4042743"><ele>164.0</ele><time>2026-04-05T07:28:59.354Z</time></trkpt><trkpt lat="45.5768243" lon="9.4038319"><ele>164.0</ele><time>2026-04-05T07:29:00.354Z</time></trkpt><trkpt lat="45.5767388" lon="9.4033901"><ele>165.5</ele><time>2026-04-05T07:29:01.354Z</time></trkpt><trkpt lat="45.5766558" lon="9.4029466"><ele>167.0</ele><time>2026-04-05T07:29:02.354Z</time></trkpt><trkpt lat="45.5765736" lon="9.4025083"><ele>166.5</ele><time>2026-04-05T07:29:03.354Z</time></trkpt><trkpt lat="45.5764919" lon="9.4021008"><ele>166.0</ele><time>2026-04-05T07:29:04.354Z</time></trkpt><trkpt lat="45.57642" lon="9.4017142"><ele>166.0</ele><time>2026-04-05T07:29:05.354Z</time></trkpt><trkpt lat="45.576347" lon="9.4013396"><ele>166.0</ele><time>2026-04-05T07:29:06.354Z</time></trkpt><trkpt lat="45.576277" lon="9.4009729"><ele>166.0</ele><time>2026-04-05T07:29:07.354Z</time></trkpt><trkpt lat="45.5762066" lon="9.4006098"><ele>166.0</ele><time>2026-04-05T07:29:08.354Z</time></trkpt><trkpt lat="45.5761376" lon="9.4002419"><ele>166.0</ele><time>2026-04-05T07:29:09.354Z</time></trkpt><trkpt lat="45.5760646" lon="9.3998644"><ele>166.0</ele><time>2026-04-05T07:29:10.354Z</time></trkpt><trkpt lat="45.5759892" lon="9.3994804"><ele>166.5</ele><time>2026-04-05T07:29:11.354Z</time></trkpt><trkpt lat="45.5759139" lon="9.3990869"><ele>167.0</ele><time>2026-04-05T07:29:12.354Z</time></trkpt><trkpt lat="45.5758369" lon="9.3986906"><ele>165.5</ele><time>2026-04-05T07:29:13.354Z</time></trkpt><trkpt lat="45.5757572" lon="9.3982902"><ele>164.0</ele><time>2026-04-05T07:29:14.354Z</time></trkpt><trkpt lat="45.5756806" lon="9.3978861"><ele>164.0</ele><time>2026-04-05T07:29:15.354Z</time></trkpt><trkpt lat="45.5756017" lon="9.3974816"><ele>164.0</ele><time>2026-04-05T07:29:16.354Z</time></trkpt><trkpt lat="45.5755236" lon="9.3970791"><ele>163.5</ele><time>2026-04-05T07:29:17.354Z</time></trkpt><trkpt lat="45.5754455" lon="9.3966776"><ele>163.0</ele><time>2026-04-05T07:29:18.354Z</time></trkpt><trkpt lat="45.5753687" lon="9.3962768"><ele>163.0</ele><time>2026-04-05T07:29:19.354Z</time></trkpt><trkpt lat="45.575293" lon="9.395874"><ele>163.0</ele><time>2026-04-05T07:29:20.354Z</time></trkpt><trkpt lat="45.5752192" lon="9.3954696"><ele>163.0</ele><time>2026-04-05T07:29:21.354Z</time></trkpt><trkpt lat="45.5751442" lon="9.3950728"><ele>163.0</ele><time>2026-04-05T07:29:22.354Z</time></trkpt><trkpt lat="45.5750699" lon="9.3946792"><ele>163.0</ele><time>2026-04-05T07:29:23.354Z</time></trkpt><trkpt lat="45.574993" lon="9.3942847"><ele>163.0</ele><time>2026-04-05T07:29:24.354Z</time></trkpt><trkpt lat="45.5749201" lon="9.3938926"><ele>162.5</ele><time>2026-04-05T07:29:25.354Z</time></trkpt><trkpt lat="45.5748482" lon="9.3935007"><ele>162.0</ele><time>2026-04-05T07:29:26.354Z</time></trkpt><trkpt lat="45.5747731" lon="9.3931071"><ele>162.0</ele><time>2026-04-05T07:29:27.354Z</time></trkpt><trkpt lat="45.5746974" lon="9.3927078"><ele>162.0</ele><time>2026-04-05T07:29:28.354Z</time></trkpt><trkpt lat="45.5746197" lon="9.3923079"><ele>162.0</ele><time>2026-04-05T07:29:29.354Z</time></trkpt><trkpt lat="45.5745402" lon="9.3919059"><ele>162.0</ele><time>2026-04-05T07:29:30.354Z</time></trkpt><trkpt lat="45.5744596" lon="9.3915012"><ele>162.5</ele><time>2026-04-05T07:29:31.354Z</time></trkpt><trkpt lat="45.5743847" lon="9.3910985"><ele>163.0</ele><time>2026-04-05T07:29:32.354Z</time></trkpt><trkpt lat="45.5743135" lon="9.3906921"><ele>163.0</ele><time>2026-04-05T07:29:33.354Z</time></trkpt><trkpt lat="45.5742452" lon="9.3902921"><ele>163.0</ele><time>2026-04-05T07:29:34.354Z</time></trkpt><trkpt lat="45.5741796" lon="9.3898911"><ele>163.5</ele><time>2026-04-05T07:29:35.354Z</time></trkpt><trkpt lat="45.5741156" lon="9.389495"><ele>164.0</ele><time>2026-04-05T07:29:36.354Z</time></trkpt><trkpt lat="45.5740527" lon="9.389096"><ele>163.0</ele><time>2026-04-05T07:29:37.354Z</time></trkpt><trkpt lat="45.5739957" lon="9.3886912"><ele>162.0</ele><time>2026-04-05T07:29:38.354Z</time></trkpt><trkpt lat="45.5739441" lon="9.3882828"><ele>162.0</ele><time>2026-04-05T07:29:39.354Z</time></trkpt><trkpt lat="45.5738868" lon="9.3878707"><ele>162.0</ele><time>2026-04-05T07:29:40.354Z</time></trkpt><trkpt lat="45.5738276" lon="9.3874616"><ele>161.5</ele><time>2026-04-05T07:29:41.354Z</time></trkpt><trkpt lat="45.5737709" lon="9.3870488"><ele>161.0</ele><time>2026-04-05T07:29:42.354Z</time></trkpt><trkpt lat="45.5737067" lon="9.3866346"><ele>161.0</ele><time>2026-04-05T07:29:43.354Z</time></trkpt><trkpt lat="45.5736433" lon="9.386221"><ele>161.0</ele><time>2026-04-05T07:29:44.354Z</time></trkpt><trkpt lat="45.5735813" lon="9.3858028"><ele>162.5</ele><time>2026-04-05T07:29:45.354Z</time></trkpt><trkpt lat="45.5735204" lon="9.3853854"><ele>164.0</ele><time>2026-04-05T07:29:46.354Z</time></trkpt><trkpt lat="45.5734552" lon="9.3849629"><ele>164.0</ele><time>2026-04-05T07:29:47.354Z</time></trkpt><trkpt lat="45.5733899" lon="9.3845435"><ele>164.0</ele><time>2026-04-05T07:29:48.354Z</time></trkpt><trkpt lat="45.5733304" lon="9.3841227"><ele>162.0</ele><time>2026-04-05T07:29:49.354Z</time></trkpt><trkpt lat="45.5732711" lon="9.3837073"><ele>160.0</ele><time>2026-04-05T07:29:50.354Z</time></trkpt><trkpt lat="45.5732112" lon="9.3832991"><ele>160.5</ele><time>2026-04-05T07:29:51.354Z</time></trkpt><trkpt lat="45.5731517" lon="9.3828945"><ele>161.0</ele><time>2026-04-05T07:29:52.354Z</time></trkpt><trkpt lat="45.5730931" lon="9.3824991"><ele>162.5</ele><time>2026-04-05T07:29:53.354Z</time></trkpt><trkpt lat="45.5730325" lon="9.3821165"><ele>164.0</ele><time>2026-04-05T07:29:54.354Z</time></trkpt><trkpt lat="45.5729724" lon="9.3817278"><ele>164.5</ele><time>2026-04-05T07:29:55.354Z</time></trkpt><trkpt lat="45.572906" lon="9.3813239"><ele>165.0</ele><time>2026-04-05T07:29:56.354Z</time></trkpt><trkpt lat="45.5728327" lon="9.3809081"><ele>163.5</ele><time>2026-04-05T07:29:57.354Z</time></trkpt><trkpt lat="45.5727641" lon="9.380464"><ele>162.0</ele><time>2026-04-05T07:29:58.354Z</time></trkpt><trkpt lat="45.5726994" lon="9.3800017"><ele>161.0</ele><time>2026-04-05T07:29:59.354Z</time></trkpt><trkpt lat="45.5726283" lon="9.3795301"><ele>160.0</ele><time>2026-04-05T07:30:00.354Z</time></trkpt><trkpt lat="45.5725564" lon="9.3790479"><ele>161.0</ele><time>2026-04-05T07:30:01.354Z</time></trkpt><trkpt lat="45.5724837" lon="9.3785423"><ele>162.0</ele><time>2026-04-05T07:30:02.354Z</time></trkpt><trkpt lat="45.5724102" lon="9.3780334"><ele>162.0</ele><time>2026-04-05T07:30:03.354Z</time></trkpt><trkpt lat="45.5723384" lon="9.3775418"><ele>162.0</ele><time>2026-04-05T07:30:04.354Z</time></trkpt><trkpt lat="45.5722633" lon="9.3770472"><ele>162.0</ele><time>2026-04-05T07:30:05.354Z</time></trkpt><trkpt lat="45.5721867" lon="9.3765496"><ele>162.0</ele><time>2026-04-05T07:30:06.354Z</time></trkpt><trkpt lat="45.572114" lon="9.3760549"><ele>162.5</ele><time>2026-04-05T07:30:07.354Z</time></trkpt><trkpt lat="45.5720412" lon="9.3755647"><ele>163.0</ele><time>2026-04-05T07:30:08.354Z</time></trkpt><trkpt lat="45.5719675" lon="9.3750919"><ele>162.0</ele><time>2026-04-05T07:30:09.354Z</time></trkpt><trkpt lat="45.5718988" lon="9.3746269"><ele>161.0</ele><time>2026-04-05T07:30:10.354Z</time></trkpt><trkpt lat="45.571834" lon="9.3741644"><ele>162.0</ele><time>2026-04-05T07:30:11.354Z</time></trkpt><trkpt lat="45.571767" lon="9.3737111"><ele>163.0</ele><time>2026-04-05T07:30:12.354Z</time></trkpt><trkpt lat="45.5717029" lon="9.3732581"><ele>163.5</ele><time>2026-04-05T07:30:13.354Z</time></trkpt><trkpt lat="45.5716374" lon="9.3728061"><ele>164.0</ele><time>2026-04-05T07:30:14.354Z</time></trkpt><trkpt lat="45.5715695" lon="9.3723498"><ele>163.5</ele><time>2026-04-05T07:30:15.354Z</time></trkpt><trkpt lat="45.571504" lon="9.3718849"><ele>163.0</ele><time>2026-04-05T07:30:16.354Z</time></trkpt><trkpt lat="45.5714285" lon="9.37141"><ele>163.5</ele><time>2026-04-05T07:30:17.354Z</time></trkpt><trkpt lat="45.5713568" lon="9.3709251"><ele>164.0</ele><time>2026-04-05T07:30:18.354Z</time></trkpt><trkpt lat="45.5712896" lon="9.3704317"><ele>164.0</ele><time>2026-04-05T07:30:19.354Z</time></trkpt><trkpt lat="45.5712243" lon="9.36996"><ele>164.0</ele><time>2026-04-05T07:30:20.354Z</time></trkpt><trkpt lat="45.5711578" lon="9.369509"><ele>164.0</ele><time>2026-04-05T07:30:21.354Z</time></trkpt><trkpt lat="45.5710922" lon="9.3690752"><ele>164.0</ele><time>2026-04-05T07:30:22.354Z</time></trkpt><trkpt lat="45.5710293" lon="9.3686592"><ele>164.0</ele><time>2026-04-05T07:30:23.354Z</time></trkpt><trkpt lat="45.5709652" lon="9.3682524"><ele>164.0</ele><time>2026-04-05T07:30:24.354Z</time></trkpt><trkpt lat="45.5709039" lon="9.3678548"><ele>164.0</ele><time>2026-04-05T07:30:25.354Z</time></trkpt><trkpt lat="45.5708454" lon="9.3674578"><ele>164.0</ele><time>2026-04-05T07:30:26.354Z</time></trkpt><trkpt lat="45.5707859" lon="9.3670604"><ele>164.5</ele><time>2026-04-05T07:30:27.354Z</time></trkpt><trkpt lat="45.5707278" lon="9.3666631"><ele>165.0</ele><time>2026-04-05T07:30:28.354Z</time></trkpt><trkpt lat="45.570671" lon="9.3662664"><ele>165.5</ele><time>2026-04-05T07:30:29.354Z</time></trkpt><trkpt lat="45.5706142" lon="9.365867"><ele>166.0</ele><time>2026-04-05T07:30:30.354Z</time></trkpt><trkpt lat="45.5705569" lon="9.3654682"><ele>165.0</ele><time>2026-04-05T07:30:31.354Z</time></trkpt><trkpt lat="45.5704963" lon="9.3650697"><ele>164.0</ele><time>2026-04-05T07:30:32.354Z</time></trkpt><trkpt lat="45.5704371" lon="9.364676"><ele>164.0</ele><time>2026-04-05T07:30:33.354Z</time></trkpt><trkpt lat="45.5703743" lon="9.3642786"><ele>164.0</ele><time>2026-04-05T07:30:34.354Z</time></trkpt><trkpt lat="45.5703121" lon="9.3638746"><ele>163.0</ele><time>2026-04-05T07:30:35.354Z</time></trkpt><trkpt lat="45.5702529" lon="9.3634732"><ele>162.0</ele><time>2026-04-05T07:30:36.354Z</time></trkpt><trkpt lat="45.5701907" lon="9.3630694"><ele>162.0</ele><time>2026-04-05T07:30:37.354Z</time></trkpt><trkpt lat="45.5701303" lon="9.3626633"><ele>162.0</ele><time>2026-04-05T07:30:38.354Z</time></trkpt><trkpt lat="45.5700699" lon="9.3622542"><ele>161.0</ele><time>2026-04-05T07:30:39.354Z</time></trkpt><trkpt lat="45.5700097" lon="9.3618475"><ele>160.0</ele><time>2026-04-05T07:30:40.354Z</time></trkpt><trkpt lat="45.5699487" lon="9.3614436"><ele>160.0</ele><time>2026-04-05T07:30:41.354Z</time></trkpt><trkpt lat="45.5698852" lon="9.3610338"><ele>160.0</ele><time>2026-04-05T07:30:42.354Z</time></trkpt><trkpt lat="45.5698259" lon="9.360617"><ele>161.0</ele><time>2026-04-05T07:30:43.354Z</time></trkpt><trkpt lat="45.5697667" lon="9.360192"><ele>162.0</ele><time>2026-04-05T07:30:44.354Z</time></trkpt><trkpt lat="45.5697059" lon="9.3597623"><ele>161.5</ele><time>2026-04-05T07:30:45.354Z</time></trkpt><trkpt lat="45.569644" lon="9.3593309"><ele>161.0</ele><time>2026-04-05T07:30:46.354Z</time></trkpt><trkpt lat="45.5695862" lon="9.3588971"><ele>161.0</ele><time>2026-04-05T07:30:47.354Z</time></trkpt><trkpt lat="45.5695196" lon="9.35846"><ele>161.0</ele><time>2026-04-05T07:30:48.354Z</time></trkpt><trkpt lat="45.5694497" lon="9.358028"><ele>160.0</ele><time>2026-04-05T07:30:49.354Z</time></trkpt><trkpt lat="45.5693849" lon="9.3575927"><ele>159.0</ele><time>2026-04-05T07:30:50.354Z</time></trkpt><trkpt lat="45.5693195" lon="9.3571607"><ele>159.0</ele><time>2026-04-05T07:30:51.354Z</time></trkpt><trkpt lat="45.5692514" lon="9.3567287"><ele>159.0</ele><time>2026-04-05T07:30:52.354Z</time></trkpt><trkpt lat="45.5691854" lon="9.3562984"><ele>159.5</ele><time>2026-04-05T07:30:53.354Z</time></trkpt><trkpt lat="45.5691223" lon="9.3558617"><ele>160.0</ele><time>2026-04-05T07:30:54.354Z</time></trkpt><trkpt lat="45.5690586" lon="9.3554248"><ele>160.5</ele><time>2026-04-05T07:30:55.354Z</time></trkpt><trkpt lat="45.5689957" lon="9.3549942"><ele>161.0</ele><time>2026-04-05T07:30:56.354Z</time></trkpt><trkpt lat="45.5689298" lon="9.3545668"><ele>161.5</ele><time>2026-04-05T07:30:57.354Z</time></trkpt><trkpt lat="45.5688692" lon="9.3541402"><ele>162.0</ele><time>2026-04-05T07:30:58.354Z</time></trkpt><trkpt lat="45.5688077" lon="9.3537107"><ele>162.0</ele><time>2026-04-05T07:30:59.354Z</time></trkpt><trkpt lat="45.5687435" lon="9.3532865"><ele>162.0</ele><time>2026-04-05T07:31:00.354Z</time></trkpt><trkpt lat="45.5686832" lon="9.3528608"><ele>161.0</ele><time>2026-04-05T07:31:01.354Z</time></trkpt><trkpt lat="45.5686205" lon="9.3524395"><ele>160.0</ele><time>2026-04-05T07:31:02.354Z</time></trkpt><trkpt lat="45.568558" lon="9.3520207"><ele>160.0</ele><time>2026-04-05T07:31:03.354Z</time></trkpt><trkpt lat="45.5684945" lon="9.3516051"><ele>160.0</ele><time>2026-04-05T07:31:04.354Z</time></trkpt><trkpt lat="45.5684358" lon="9.3511937"><ele>160.5</ele><time>2026-04-05T07:31:05.354Z</time></trkpt><trkpt lat="45.5683828" lon="9.3507904"><ele>161.0</ele><time>2026-04-05T07:31:06.354Z</time></trkpt><trkpt lat="45.5683293" lon="9.3503963"><ele>161.5</ele><time>2026-04-05T07:31:07.354Z</time></trkpt><trkpt lat="45.5682733" lon="9.3500096"><ele>162.0</ele><time>2026-04-05T07:31:08.354Z</time></trkpt><trkpt lat="45.5682196" lon="9.3496285"><ele>161.0</ele><time>2026-04-05T07:31:09.354Z</time></trkpt><trkpt lat="45.568168" lon="9.3492533"><ele>160.0</ele><time>2026-04-05T07:31:10.354Z</time></trkpt><trkpt lat="45.5681195" lon="9.3488809"><ele>160.0</ele><time>2026-04-05T07:31:11.354Z</time></trkpt><trkpt lat="45.5680717" lon="9.3485099"><ele>160.0</ele><time>2026-04-05T07:31:12.354Z</time></trkpt><trkpt lat="45.5680213" lon="9.3481375"><ele>160.0</ele><time>2026-04-05T07:31:13.354Z</time></trkpt><trkpt lat="45.5679687" lon="9.3477559"><ele>160.0</ele><time>2026-04-05T07:31:14.354Z</time></trkpt><trkpt lat="45.567913" lon="9.3473603"><ele>160.0</ele><time>2026-04-05T07:31:15.354Z</time></trkpt><trkpt lat="45.5678582" lon="9.3469576"><ele>160.0</ele><time>2026-04-05T07:31:16.354Z</time></trkpt><trkpt lat="45.5678015" lon="9.3465457"><ele>159.0</ele><time>2026-04-05T07:31:17.354Z</time></trkpt><trkpt lat="45.5677444" lon="9.3461221"><ele>158.0</ele><time>2026-04-05T07:31:18.354Z</time></trkpt><trkpt lat="45.5676798" lon="9.345678"><ele>157.5</ele><time>2026-04-05T07:31:19.354Z</time></trkpt><trkpt lat="45.5676147" lon="9.3452302"><ele>157.0</ele><time>2026-04-05T07:31:20.354Z</time></trkpt><trkpt lat="45.5675455" lon="9.3447772"><ele>156.5</ele><time>2026-04-05T07:31:21.354Z</time></trkpt><trkpt lat="45.5674763" lon="9.3443183"><ele>156.0</ele><time>2026-04-05T07:31:22.354Z</time></trkpt><trkpt lat="45.5674058" lon="9.343848"><ele>156.0</ele><time>2026-04-05T07:31:23.354Z</time></trkpt><trkpt lat="45.5673344" lon="9.3433728"><ele>156.0</ele><time>2026-04-05T07:31:24.354Z</time></trkpt><trkpt lat="45.5672636" lon="9.3428882"><ele>156.0</ele><time>2026-04-05T07:31:25.354Z</time></trkpt><trkpt lat="45.5671896" lon="9.3424003"><ele>156.0</ele><time>2026-04-05T07:31:26.354Z</time></trkpt><trkpt lat="45.5671205" lon="9.3419292"><ele>156.0</ele><time>2026-04-05T07:31:27.354Z</time></trkpt><trkpt lat="45.5670506" lon="9.3414795"><ele>156.0</ele><time>2026-04-05T07:31:28.354Z</time></trkpt><trkpt lat="45.5669898" lon="9.3410322"><ele>157.0</ele><time>2026-04-05T07:31:29.354Z</time></trkpt><trkpt lat="45.566927" lon="9.3406138"><ele>158.0</ele><time>2026-04-05T07:31:30.354Z</time></trkpt><trkpt lat="45.5668643" lon="9.340201"><ele>158.0</ele><time>2026-04-05T07:31:31.354Z</time></trkpt><trkpt lat="45.5668034" lon="9.3397825"><ele>158.0</ele><time>2026-04-05T07:31:32.354Z</time></trkpt><trkpt lat="45.5667423" lon="9.3393582"><ele>157.5</ele><time>2026-04-05T07:31:33.354Z</time></trkpt><trkpt lat="45.5666781" lon="9.338931"><ele>157.0</ele><time>2026-04-05T07:31:34.354Z</time></trkpt><trkpt lat="45.5666156" lon="9.338505"><ele>157.0</ele><time>2026-04-05T07:31:35.354Z</time></trkpt><trkpt lat="45.5665541" lon="9.3380769"><ele>157.0</ele><time>2026-04-05T07:31:36.354Z</time></trkpt><trkpt lat="45.5664921" lon="9.3376504"><ele>157.5</ele><time>2026-04-05T07:31:37.354Z</time></trkpt><trkpt lat="45.5664307" lon="9.3372232"><ele>158.0</ele><time>2026-04-05T07:31:38.354Z</time></trkpt><trkpt lat="45.5663667" lon="9.3367961"><ele>158.0</ele><time>2026-04-05T07:31:39.354Z</time></trkpt><trkpt lat="45.5663012" lon="9.3363703"><ele>158.0</ele><time>2026-04-05T07:31:40.354Z</time></trkpt><trkpt lat="45.5662397" lon="9.335939"><ele>158.5</ele><time>2026-04-05T07:31:41.354Z</time></trkpt><trkpt lat="45.5661739" lon="9.3355143"><ele>159.0</ele><time>2026-04-05T07:31:42.354Z</time></trkpt><trkpt lat="45.5661056" lon="9.3350813"><ele>159.0</ele><time>2026-04-05T07:31:43.354Z</time></trkpt><trkpt lat="45.5660439" lon="9.3346579"><ele>159.0</ele><time>2026-04-05T07:31:44.354Z</time></trkpt><trkpt lat="45.5659839" lon="9.3342381"><ele>157.5</ele><time>2026-04-05T07:31:45.354Z</time></trkpt><trkpt lat="45.565924" lon="9.3338191"><ele>156.0</ele><time>2026-04-05T07:31:46.354Z</time></trkpt><trkpt lat="45.5658622" lon="9.3334035"><ele>156.0</ele><time>2026-04-05T07:31:47.354Z</time></trkpt><trkpt lat="45.5658034" lon="9.3329868"><ele>156.0</ele><time>2026-04-05T07:31:48.354Z</time></trkpt><trkpt lat="45.5657422" lon="9.3325727"><ele>156.5</ele><time>2026-04-05T07:31:49.354Z</time></trkpt><trkpt lat="45.5656805" lon="9.3321567"><ele>157.0</ele><time>2026-04-05T07:31:50.354Z</time></trkpt><trkpt lat="45.5656136" lon="9.3317427"><ele>155.5</ele><time>2026-04-05T07:31:51.354Z</time></trkpt><trkpt lat="45.5655533" lon="9.331327"><ele>154.0</ele><time>2026-04-05T07:31:52.354Z</time></trkpt><trkpt lat="45.5654928" lon="9.3309113"><ele>154.0</ele><time>2026-04-05T07:31:53.354Z</time></trkpt><trkpt lat="45.5654357" lon="9.3304965"><ele>154.0</ele><time>2026-04-05T07:31:54.354Z</time></trkpt><trkpt lat="45.5653745" lon="9.3300801"><ele>153.5</ele><time>2026-04-05T07:31:55.354Z</time></trkpt><trkpt lat="45.5653133" lon="9.3296601"><ele>153.0</ele><time>2026-04-05T07:31:56.354Z</time></trkpt><trkpt lat="45.5652491" lon="9.3292439"><ele>153.0</ele><time>2026-04-05T07:31:57.354Z</time></trkpt><trkpt lat="45.5651878" lon="9.3288284"><ele>153.0</ele><time>2026-04-05T07:31:58.354Z</time></trkpt><trkpt lat="45.5651226" lon="9.3284135"><ele>154.0</ele><time>2026-04-05T07:31:59.354Z</time></trkpt><trkpt lat="45.5650612" lon="9.3279994"><ele>155.0</ele><time>2026-04-05T07:32:00.354Z</time></trkpt><trkpt lat="45.5649996" lon="9.3275905"><ele>154.0</ele><time>2026-04-05T07:32:01.354Z</time></trkpt><trkpt lat="45.5649395" lon="9.3271771"><ele>153.0</ele><time>2026-04-05T07:32:02.354Z</time></trkpt><trkpt lat="45.5648798" lon="9.3267612"><ele>153.5</ele><time>2026-04-05T07:32:03.354Z</time></trkpt><trkpt lat="45.5648187" lon="9.3263447"><ele>154.0</ele><time>2026-04-05T07:32:04.354Z</time></trkpt><trkpt lat="45.564757" lon="9.3259234"><ele>154.5</ele><time>2026-04-05T07:32:05.354Z</time></trkpt><trkpt lat="45.5646948" lon="9.3255006"><ele>155.0</ele><time>2026-04-05T07:32:06.354Z</time></trkpt><trkpt lat="45.5646304" lon="9.3250774"><ele>154.0</ele><time>2026-04-05T07:32:07.354Z</time></trkpt><trkpt lat="45.5645676" lon="9.3246531"><ele>153.0</ele><time>2026-04-05T07:32:08.354Z</time></trkpt><trkpt lat="45.5645029" lon="9.3242254"><ele>152.5</ele><time>2026-04-05T07:32:09.354Z</time></trkpt><trkpt lat="45.5644424" lon="9.3237985"><ele>152.0</ele><time>2026-04-05T07:32:10.354Z</time></trkpt><trkpt lat="45.5643784" lon="9.32337"><ele>152.5</ele><time>2026-04-05T07:32:11.354Z</time></trkpt><trkpt lat="45.5643131" lon="9.3229428"><ele>153.0</ele><time>2026-04-05T07:32:12.354Z</time></trkpt><trkpt lat="45.5642502" lon="9.3225172"><ele>152.5</ele><time>2026-04-05T07:32:13.354Z</time></trkpt><trkpt lat="45.5641862" lon="9.322096"><ele>152.0</ele><time>2026-04-05T07:32:14.354Z</time></trkpt><trkpt lat="45.5641241" lon="9.3216756"><ele>152.5</ele><time>2026-04-05T07:32:15.354Z</time></trkpt><trkpt lat="45.5640649" lon="9.3212471"><ele>153.0</ele><time>2026-04-05T07:32:16.354Z</time></trkpt><trkpt lat="45.5639993" lon="9.3208221"><ele>153.0</ele><time>2026-04-05T07:32:17.354Z</time></trkpt><trkpt lat="45.5639359" lon="9.320398"><ele>153.0</ele><time>2026-04-05T07:32:18.354Z</time></trkpt><trkpt lat="45.5638714" lon="9.3199755"><ele>152.5</ele><time>2026-04-05T07:32:19.354Z</time></trkpt><trkpt lat="45.5638091" lon="9.3195515"><ele>152.0</ele><time>2026-04-05T07:32:20.354Z</time></trkpt><trkpt lat="45.563743" lon="9.3191286"><ele>152.5</ele><time>2026-04-05T07:32:21.36Z</time></trkpt><trkpt lat="45.563677" lon="9.3187058"><ele>153.0</ele><time>2026-04-05T07:32:22.36Z</time></trkpt><trkpt lat="45.5636128" lon="9.3182809"><ele>152.5</ele><time>2026-04-05T07:32:23.36Z</time></trkpt><trkpt lat="45.5635517" lon="9.3178552"><ele>152.0</ele><time>2026-04-05T07:32:24.36Z</time></trkpt><trkpt lat="45.5634892" lon="9.3174255"><ele>151.0</ele><time>2026-04-05T07:32:25.36Z</time></trkpt><trkpt lat="45.5634257" lon="9.3169973"><ele>150.0</ele><time>2026-04-05T07:32:26.36Z</time></trkpt><trkpt lat="45.5633645" lon="9.3165699"><ele>151.0</ele><time>2026-04-05T07:32:27.36Z</time></trkpt><trkpt lat="45.5632993" lon="9.3161438"><ele>152.0</ele><time>2026-04-05T07:32:28.36Z</time></trkpt><trkpt lat="45.563238" lon="9.3157156"><ele>151.0</ele><time>2026-04-05T07:32:29.36Z</time></trkpt><trkpt lat="45.563174" lon="9.3152839"><ele>150.0</ele><time>2026-04-05T07:32:30.36Z</time></trkpt><trkpt lat="45.563113" lon="9.3148553"><ele>149.5</ele><time>2026-04-05T07:32:31.36Z</time></trkpt><trkpt lat="45.5630518" lon="9.314427"><ele>149.0</ele><time>2026-04-05T07:32:32.36Z</time></trkpt><trkpt lat="45.5629927" lon="9.3139965"><ele>149.5</ele><time>2026-04-05T07:32:33.36Z</time></trkpt><trkpt lat="45.5629289" lon="9.3135689"><ele>150.0</ele><time>2026-04-05T07:32:34.36Z</time></trkpt><trkpt lat="45.5628657" lon="9.3131435"><ele>151.5</ele><time>2026-04-05T07:32:35.36Z</time></trkpt><trkpt lat="45.5628052" lon="9.3127148"><ele>153.0</ele><time>2026-04-05T07:32:36.36Z</time></trkpt><trkpt lat="45.562748" lon="9.312282"><ele>153.0</ele><time>2026-04-05T07:32:37.36Z</time></trkpt><trkpt lat="45.5626966" lon="9.3118336"><ele>153.0</ele><time>2026-04-05T07:32:38.36Z</time></trkpt><trkpt lat="45.5626428" lon="9.3113774"><ele>152.5</ele><time>2026-04-05T07:32:39.36Z</time></trkpt><trkpt lat="45.5625842" lon="9.310924"><ele>152.0</ele><time>2026-04-05T07:32:40.36Z</time></trkpt><trkpt lat="45.5625215" lon="9.3104787"><ele>151.5</ele><time>2026-04-05T07:32:41.36Z</time></trkpt><trkpt lat="45.5624562" lon="9.3100423"><ele>151.0</ele><time>2026-04-05T07:32:42.36Z</time></trkpt><trkpt lat="45.5623918" lon="9.3096133"><ele>151.0</ele><time>2026-04-05T07:32:43.36Z</time></trkpt><trkpt lat="45.5623267" lon="9.3091908"><ele>151.0</ele><time>2026-04-05T07:32:44.36Z</time></trkpt><trkpt lat="45.5622641" lon="9.3087787"><ele>151.5</ele><time>2026-04-05T07:32:45.36Z</time></trkpt><trkpt lat="45.5622069" lon="9.3083839"><ele>152.0</ele><time>2026-04-05T07:32:46.36Z</time></trkpt><trkpt lat="45.5621462" lon="9.3080004"><ele>151.0</ele><time>2026-04-05T07:32:47.36Z</time></trkpt><trkpt lat="45.5620885" lon="9.3076156"><ele>150.0</ele><time>2026-04-05T07:32:48.36Z</time></trkpt><trkpt lat="45.5620334" lon="9.3072375"><ele>150.0</ele><time>2026-04-05T07:32:49.36Z</time></trkpt><trkpt lat="45.5619782" lon="9.306866"><ele>150.0</ele><time>2026-04-05T07:32:50.36Z</time></trkpt><trkpt lat="45.5619212" lon="9.3064936"><ele>150.0</ele><time>2026-04-05T07:32:51.36Z</time></trkpt><trkpt lat="45.5618662" lon="9.3061145"><ele>150.0</ele><time>2026-04-05T07:32:52.36Z</time></trkpt><trkpt lat="45.5618139" lon="9.3057301"><ele>150.5</ele><time>2026-04-05T07:32:53.36Z</time></trkpt><trkpt lat="45.5617575" lon="9.3053446"><ele>151.0</ele><time>2026-04-05T07:32:54.36Z</time></trkpt><trkpt lat="45.5617031" lon="9.3049514"><ele>151.5</ele><time>2026-04-05T07:32:55.36Z</time></trkpt><trkpt lat="45.5616443" lon="9.3045648"><ele>152.0</ele><time>2026-04-05T07:32:56.36Z</time></trkpt><trkpt lat="45.5615869" lon="9.3041701"><ele>152.5</ele><time>2026-04-05T07:32:57.36Z</time></trkpt><trkpt lat="45.5615249" lon="9.3037783"><ele>153.0</ele><time>2026-04-05T07:32:58.36Z</time></trkpt><trkpt lat="45.5614651" lon="9.3033848"><ele>152.5</ele><time>2026-04-05T07:32:59.36Z</time></trkpt><trkpt lat="45.5614076" lon="9.3029915"><ele>152.0</ele><time>2026-04-05T07:33:00.36Z</time></trkpt><trkpt lat="45.5613456" lon="9.3026027"><ele>150.0</ele><time>2026-04-05T07:33:01.36Z</time></trkpt><trkpt lat="45.5612815" lon="9.3022089"><ele>148.0</ele><time>2026-04-05T07:33:02.36Z</time></trkpt><trkpt lat="45.5612175" lon="9.3018149"><ele>148.0</ele><time>2026-04-05T07:33:03.36Z</time></trkpt><trkpt lat="45.561152" lon="9.3014202"><ele>148.0</ele><time>2026-04-05T07:33:04.36Z</time></trkpt><trkpt lat="45.5610871" lon="9.3010214"><ele>148.5</ele><time>2026-04-05T07:33:05.36Z</time></trkpt><trkpt lat="45.5610209" lon="9.300624"><ele>149.0</ele><time>2026-04-05T07:33:06.36Z</time></trkpt><trkpt lat="45.560952" lon="9.3002264"><ele>149.0</ele><time>2026-04-05T07:33:07.36Z</time></trkpt><trkpt lat="45.560884" lon="9.2998227"><ele>149.0</ele><time>2026-04-05T07:33:08.36Z</time></trkpt><trkpt lat="45.5608178" lon="9.2994226"><ele>150.5</ele><time>2026-04-05T07:33:09.36Z</time></trkpt><trkpt lat="45.5607533" lon="9.2990194"><ele>152.0</ele><time>2026-04-05T07:33:10.36Z</time></trkpt><trkpt lat="45.5606926" lon="9.2986131"><ele>152.5</ele><time>2026-04-05T07:33:11.36Z</time></trkpt><trkpt lat="45.5606321" lon="9.2982042"><ele>153.0</ele><time>2026-04-05T07:33:12.36Z</time></trkpt><trkpt lat="45.5605674" lon="9.2977966"><ele>152.0</ele><time>2026-04-05T07:33:13.36Z</time></trkpt><trkpt lat="45.5605015" lon="9.2973921"><ele>151.0</ele><time>2026-04-05T07:33:14.36Z</time></trkpt><trkpt lat="45.5604307" lon="9.2969793"><ele>150.5</ele><time>2026-04-05T07:33:15.36Z</time></trkpt><trkpt lat="45.5603572" lon="9.2965608"><ele>150.0</ele><time>2026-04-05T07:33:16.36Z</time></trkpt><trkpt lat="45.560289" lon="9.2961592"><ele>149.5</ele><time>2026-04-05T07:33:17.36Z</time></trkpt><trkpt lat="45.5602312" lon="9.2957729"><ele>149.0</ele><time>2026-04-05T07:33:18.36Z</time></trkpt><trkpt lat="45.560175" lon="9.2954071"><ele>148.0</ele><time>2026-04-05T07:33:19.36Z</time></trkpt><trkpt lat="45.5601205" lon="9.2950423"><ele>147.0</ele><time>2026-04-05T07:33:20.36Z</time></trkpt><trkpt lat="45.5600732" lon="9.294675"><ele>147.0</ele><time>2026-04-05T07:33:21.36Z</time></trkpt><trkpt lat="45.5600243" lon="9.294304"><ele>147.0</ele><time>2026-04-05T07:33:22.36Z</time></trkpt><trkpt lat="45.5599767" lon="9.2939339"><ele>147.0</ele><time>2026-04-05T07:33:23.36Z</time></trkpt><trkpt lat="45.5599154" lon="9.2935615"><ele>147.0</ele><time>2026-04-05T07:33:24.36Z</time></trkpt><trkpt lat="45.5598595" lon="9.2931728"><ele>146.5</ele><time>2026-04-05T07:33:25.36Z</time></trkpt><trkpt lat="45.5598038" lon="9.2927875"><ele>146.0</ele><time>2026-04-05T07:33:26.36Z</time></trkpt><trkpt lat="45.559748" lon="9.2923986"><ele>147.5</ele><time>2026-04-05T07:33:27.36Z</time></trkpt><trkpt lat="45.5596842" lon="9.2920043"><ele>149.0</ele><time>2026-04-05T07:33:28.36Z</time></trkpt><trkpt lat="45.5596206" lon="9.2916092"><ele>149.5</ele><time>2026-04-05T07:33:29.36Z</time></trkpt><trkpt lat="45.559562" lon="9.2912062"><ele>150.0</ele><time>2026-04-05T07:33:30.36Z</time></trkpt><trkpt lat="45.5595035" lon="9.2908056"><ele>150.0</ele><time>2026-04-05T07:33:31.36Z</time></trkpt><trkpt lat="45.5594427" lon="9.2904005"><ele>150.0</ele><time>2026-04-05T07:33:32.36Z</time></trkpt><trkpt lat="45.5593828" lon="9.2899912"><ele>148.0</ele><time>2026-04-05T07:33:33.36Z</time></trkpt><trkpt lat="45.5593226" lon="9.2895887"><ele>146.0</ele><time>2026-04-05T07:33:34.36Z</time></trkpt><trkpt lat="45.5592631" lon="9.2891831"><ele>145.5</ele><time>2026-04-05T07:33:35.36Z</time></trkpt><trkpt lat="45.5592027" lon="9.2887802"><ele>145.0</ele><time>2026-04-05T07:33:36.36Z</time></trkpt><trkpt lat="45.5591422" lon="9.2883753"><ele>146.0</ele><time>2026-04-05T07:33:37.36Z</time></trkpt><trkpt lat="45.5590812" lon="9.2879744"><ele>147.0</ele><time>2026-04-05T07:33:38.36Z</time></trkpt><trkpt lat="45.559024" lon="9.2875801"><ele>148.0</ele><time>2026-04-05T07:33:39.36Z</time></trkpt><trkpt lat="45.5589668" lon="9.2871829"><ele>149.0</ele><time>2026-04-05T07:33:40.36Z</time></trkpt><trkpt lat="45.5589139" lon="9.2867831"><ele>149.5</ele><time>2026-04-05T07:33:41.36Z</time></trkpt><trkpt lat="45.5588554" lon="9.2863841"><ele>150.0</ele><time>2026-04-05T07:33:42.36Z</time></trkpt><trkpt lat="45.5587939" lon="9.2859934"><ele>150.0</ele><time>2026-04-05T07:33:43.36Z</time></trkpt><trkpt lat="45.5587335" lon="9.2856018"><ele>150.0</ele><time>2026-04-05T07:33:44.36Z</time></trkpt><trkpt lat="45.558679" lon="9.2852163"><ele>149.5</ele><time>2026-04-05T07:33:45.36Z</time></trkpt><trkpt lat="45.5586257" lon="9.2848317"><ele>149.0</ele><time>2026-04-05T07:33:46.36Z</time></trkpt><trkpt lat="45.558565" lon="9.2844449"><ele>148.5</ele><time>2026-04-05T07:33:47.36Z</time></trkpt><trkpt lat="45.5585068" lon="9.2840619"><ele>148.0</ele><time>2026-04-05T07:33:48.36Z</time></trkpt><trkpt lat="45.558445" lon="9.2836821"><ele>147.5</ele><time>2026-04-05T07:33:49.36Z</time></trkpt><trkpt lat="45.5583919" lon="9.2832973"><ele>147.0</ele><time>2026-04-05T07:33:50.36Z</time></trkpt><trkpt lat="45.558338" lon="9.2829156"><ele>146.5</ele><time>2026-04-05T07:33:51.36Z</time></trkpt><trkpt lat="45.5582884" lon="9.2825362"><ele>146.0</ele><time>2026-04-05T07:33:52.36Z</time></trkpt><trkpt lat="45.55824" lon="9.282164"><ele>146.0</ele><time>2026-04-05T07:33:53.36Z</time></trkpt><trkpt lat="45.5581944" lon="9.2817939"><ele>146.0</ele><time>2026-04-05T07:33:54.36Z</time></trkpt><trkpt lat="45.5581394" lon="9.2814314"><ele>147.0</ele><time>2026-04-05T07:33:55.36Z</time></trkpt><trkpt lat="45.5580735" lon="9.2810834"><ele>148.0</ele><time>2026-04-05T07:33:56.36Z</time></trkpt><trkpt lat="45.5580132" lon="9.2807452"><ele>146.5</ele><time>2026-04-05T07:33:57.36Z</time></trkpt><trkpt lat="45.5579631" lon="9.280417"><ele>145.0</ele><time>2026-04-05T07:33:58.36Z</time></trkpt><trkpt lat="45.5579155" lon="9.2800966"><ele>145.0</ele><time>2026-04-05T07:33:59.36Z</time></trkpt><trkpt lat="45.557866" lon="9.2797739"><ele>145.0</ele><time>2026-04-05T07:34:00.36Z</time></trkpt><trkpt lat="45.5578156" lon="9.2794473"><ele>145.0</ele><time>2026-04-05T07:34:01.36Z</time></trkpt><trkpt lat="45.5577685" lon="9.2791207"><ele>145.0</ele><time>2026-04-05T07:34:02.36Z</time></trkpt><trkpt lat="45.5577191" lon="9.2787846"><ele>145.0</ele><time>2026-04-05T07:34:03.36Z</time></trkpt><trkpt lat="45.557667" lon="9.2784427"><ele>145.0</ele><time>2026-04-05T07:34:04.36Z</time></trkpt><trkpt lat="45.5576152" lon="9.278094"><ele>145.5</ele><time>2026-04-05T07:34:05.36Z</time></trkpt><trkpt lat="45.5575595" lon="9.2777452"><ele>146.0</ele><time>2026-04-05T07:34:06.36Z</time></trkpt><trkpt lat="45.5575117" lon="9.2774121"><ele>145.5</ele><time>2026-04-05T07:34:07.36Z</time></trkpt><trkpt lat="45.5574612" lon="9.2770836"><ele>145.0</ele><time>2026-04-05T07:34:08.36Z</time></trkpt><trkpt lat="45.5574112" lon="9.2767619"><ele>145.0</ele><time>2026-04-05T07:34:09.36Z</time></trkpt><trkpt lat="45.5573676" lon="9.2764681"><ele>145.0</ele><time>2026-04-05T07:34:10.36Z</time></trkpt><trkpt lat="45.5573099" lon="9.2761486"><ele>145.0</ele><time>2026-04-05T07:34:11.36Z</time></trkpt><trkpt lat="45.5572683" lon="9.2758295"><ele>146.0</ele><time>2026-04-05T07:34:12.36Z</time></trkpt><trkpt lat="45.5572204" lon="9.2755003"><ele>147.0</ele><time>2026-04-05T07:34:13.36Z</time></trkpt><trkpt lat="45.5571747" lon="9.2751736"><ele>147.0</ele><time>2026-04-05T07:34:14.36Z</time></trkpt><trkpt lat="45.5571278" lon="9.2748442"><ele>147.0</ele><time>2026-04-05T07:34:15.36Z</time></trkpt><trkpt lat="45.5570802" lon="9.2745184"><ele>148.0</ele><time>2026-04-05T07:34:16.36Z</time></trkpt><trkpt lat="45.5570295" lon="9.2741774"><ele>149.0</ele><time>2026-04-05T07:34:17.36Z</time></trkpt><trkpt lat="45.5569782" lon="9.273831"><ele>147.0</ele><time>2026-04-05T07:34:18.36Z</time></trkpt><trkpt lat="45.556927" lon="9.2734912"><ele>145.0</ele><time>2026-04-05T07:34:19.36Z</time></trkpt><trkpt lat="45.5568771" lon="9.2731596"><ele>144.5</ele><time>2026-04-05T07:34:20.36Z</time></trkpt><trkpt lat="45.5568288" lon="9.2728356"><ele>144.0</ele><time>2026-04-05T07:34:21.36Z</time></trkpt><trkpt lat="45.5567826" lon="9.2725216"><ele>144.0</ele><time>2026-04-05T07:34:22.36Z</time></trkpt><trkpt lat="45.5567387" lon="9.2722179"><ele>144.0</ele><time>2026-04-05T07:34:23.36Z</time></trkpt><trkpt lat="45.5567002" lon="9.2719349"><ele>144.0</ele><time>2026-04-05T07:34:24.36Z</time></trkpt><trkpt lat="45.5566597" lon="9.2716576"><ele>143.66666666666666</ele><time>2026-04-05T07:34:25.36Z</time></trkpt><trkpt lat="45.5566243" lon="9.2713939"><ele>143.33333333333331</ele><time>2026-04-05T07:34:26.36Z</time></trkpt><trkpt lat="45.5565925" lon="9.271138"><ele>143.0</ele><time>2026-04-05T07:34:27.36Z</time></trkpt><trkpt lat="45.5565632" lon="9.2708818"><ele>143.0</ele><time>2026-04-05T07:34:28.36Z</time></trkpt><trkpt lat="45.55654" lon="9.2706166"><ele>143.0</ele><time>2026-04-05T07:34:29.36Z</time></trkpt><trkpt lat="45.556517" lon="9.2703358"><ele>143.0</ele><time>2026-04-05T07:34:30.36Z</time></trkpt><trkpt lat="45.5564947" lon="9.2700625"><ele>144.0</ele><time>2026-04-05T07:34:31.36Z</time></trkpt><trkpt lat="45.5564681" lon="9.2698061"><ele>145.0</ele><time>2026-04-05T07:34:32.36Z</time></trkpt><trkpt lat="45.5564393" lon="9.2695621"><ele>146.0</ele><time>2026-04-05T07:34:33.36Z</time></trkpt><trkpt lat="45.5564125" lon="9.2693366"><ele>146.25</ele><time>2026-04-05T07:34:34.36Z</time></trkpt><trkpt lat="45.556382" lon="9.2691309"><ele>146.5</ele><time>2026-04-05T07:34:35.36Z</time></trkpt><trkpt lat="45.5563567" lon="9.2689529"><ele>146.75</ele><time>2026-04-05T07:34:36.36Z</time></trkpt><trkpt lat="45.556335" lon="9.2687995"><ele>147.0</ele><time>2026-04-05T07:34:37.36Z</time></trkpt><trkpt lat="45.5563166" lon="9.2686756"><ele>146.66666666666666</ele><time>2026-04-05T07:34:38.36Z</time></trkpt><trkpt lat="45.5562924" lon="9.2685713"><ele>146.33333333333334</ele><time>2026-04-05T07:34:39.36Z</time></trkpt><trkpt lat="45.5562907" lon="9.2684784"><ele>146.0</ele><time>2026-04-05T07:34:41.36Z</time></trkpt><trkpt lat="45.5562825" lon="9.2683793"><ele>145.66666666666669</ele><time>2026-04-05T07:35:32.36Z</time></trkpt><trkpt lat="45.556258" lon="9.2682141"><ele>145.33333333333334</ele><time>2026-04-05T07:35:34.36Z</time></trkpt><trkpt lat="45.55624" lon="9.2681026"><ele>145.0</ele><time>2026-04-05T07:35:35.36Z</time></trkpt><trkpt lat="45.5562236" lon="9.2679874"><ele>144.8</ele><time>2026-04-05T07:35:36.36Z</time></trkpt><trkpt lat="45.5562046" lon="9.2678684"><ele>144.6</ele><time>2026-04-05T07:35:37.36Z</time></trkpt><trkpt lat="45.5561857" lon="9.2677387"><ele>144.4</ele><time>2026-04-05T07:35:38.36Z</time></trkpt><trkpt lat="45.5561643" lon="9.2676103"><ele>144.2</ele><time>2026-04-05T07:35:39.36Z</time></trkpt><trkpt lat="45.5561481" lon="9.2674858"><ele>144.0</ele><time>2026-04-05T07:35:40.36Z</time></trkpt><trkpt lat="45.556127" lon="9.267357"><ele>144.8</ele><time>2026-04-05T07:35:41.36Z</time></trkpt><trkpt lat="45.5561075" lon="9.2672269"><ele>145.60000000000002</ele><time>2026-04-05T07:35:42.36Z</time></trkpt><trkpt lat="45.556087" lon="9.267098"><ele>146.4</ele><time>2026-04-05T07:35:43.36Z</time></trkpt><trkpt lat="45.5560665" lon="9.2669708"><ele>147.20000000000002</ele><time>2026-04-05T07:35:44.36Z</time></trkpt><trkpt lat="45.5560444" lon="9.2668404"><ele>148.0</ele><time>2026-04-05T07:35:45.36Z</time></trkpt><trkpt lat="45.5560241" lon="9.2667128"><ele>148.0</ele><time>2026-04-05T07:35:46.36Z</time></trkpt><trkpt lat="45.5560044" lon="9.2665925"><ele>148.0</ele><time>2026-04-05T07:35:47.36Z</time></trkpt><trkpt lat="45.5559851" lon="9.266481"><ele>148.0</ele><time>2026-04-05T07:35:48.36Z</time></trkpt><trkpt lat="45.5559584" lon="9.2663711"><ele>148.0</ele><time>2026-04-05T07:35:49.36Z</time></trkpt><trkpt lat="45.5559301" lon="9.2662714"><ele>148.0</ele><time>2026-04-05T07:35:50.36Z</time></trkpt><trkpt lat="45.5559014" lon="9.2661697"><ele>148.0</ele><time>2026-04-05T07:35:51.36Z</time></trkpt><trkpt lat="45.5558731" lon="9.2660711"><ele>147.66666666666669</ele><time>2026-04-05T07:35:52.36Z</time></trkpt><trkpt lat="45.5558472" lon="9.2659775"><ele>147.33333333333334</ele><time>2026-04-05T07:35:53.36Z</time></trkpt><trkpt lat="45.5558165" lon="9.2658826"><ele>147.0</ele><time>2026-04-05T07:35:54.36Z</time></trkpt><trkpt lat="45.5557878" lon="9.2657915"><ele>146.66666666666666</ele><time>2026-04-05T07:35:55.36Z</time></trkpt><trkpt lat="45.5557594" lon="9.265692"><ele>146.33333333333331</ele><time>2026-04-05T07:35:56.36Z</time></trkpt><trkpt lat="45.5557351" lon="9.2655823"><ele>146.0</ele><time>2026-04-05T07:35:57.36Z</time></trkpt><trkpt lat="45.5557183" lon="9.2654636"><ele>145.8</ele><time>2026-04-05T07:35:58.36Z</time></trkpt><trkpt lat="45.555697" lon="9.2653329"><ele>145.6</ele><time>2026-04-05T07:35:59.36Z</time></trkpt><trkpt lat="45.5556695" lon="9.2652042"><ele>145.4</ele><time>2026-04-05T07:36:00.36Z</time></trkpt><trkpt lat="45.5556431" lon="9.2650607"><ele>145.2</ele><time>2026-04-05T07:36:01.36Z</time></trkpt><trkpt lat="45.5556206" lon="9.2649085"><ele>145.0</ele><time>2026-04-05T07:36:02.36Z</time></trkpt><trkpt lat="45.5555984" lon="9.2647488"><ele>144.33333333333334</ele><time>2026-04-05T07:36:03.361Z</time></trkpt><trkpt lat="45.5555629" lon="9.2645564"><ele>143.66666666666666</ele><time>2026-04-05T07:36:04.36Z</time></trkpt><trkpt lat="45.5555169" lon="9.2643138"><ele>143.0</ele><time>2026-04-05T07:36:05.36Z</time></trkpt><trkpt lat="45.5554711" lon="9.2640478"><ele>143.0</ele><time>2026-04-05T07:36:06.36Z</time></trkpt><trkpt lat="45.5554278" lon="9.2637619"><ele>143.0</ele><time>2026-04-05T07:36:07.36Z</time></trkpt><trkpt lat="45.5553852" lon="9.2634721"><ele>143.0</ele><time>2026-04-05T07:36:08.36Z</time></trkpt><trkpt lat="45.5553431" lon="9.2631923"><ele>143.33333333333331</ele><time>2026-04-05T07:36:09.36Z</time></trkpt><trkpt lat="45.5552974" lon="9.2629098"><ele>143.66666666666666</ele><time>2026-04-05T07:36:10.36Z</time></trkpt><trkpt lat="45.555256" lon="9.2626237"><ele>144.0</ele><time>2026-04-05T07:36:11.36Z</time></trkpt><trkpt lat="45.5552129" lon="9.2623371"><ele>144.33333333333334</ele><time>2026-04-05T07:36:12.361Z</time></trkpt><trkpt lat="45.5551663" lon="9.2620479"><ele>144.66666666666669</ele><time>2026-04-05T07:36:13.36Z</time></trkpt><trkpt lat="45.5551175" lon="9.2617484"><ele>145.0</ele><time>2026-04-05T07:36:14.361Z</time></trkpt><trkpt lat="45.5550731" lon="9.2614456"><ele>146.0</ele><time>2026-04-05T07:36:15.36Z</time></trkpt><trkpt lat="45.5550258" lon="9.2611398"><ele>147.0</ele><time>2026-04-05T07:36:16.36Z</time></trkpt><trkpt lat="45.5549825" lon="9.2608305"><ele>148.0</ele><time>2026-04-05T07:36:17.36Z</time></trkpt><trkpt lat="45.5549438" lon="9.2605249"><ele>148.0</ele><time>2026-04-05T07:36:18.36Z</time></trkpt><trkpt lat="45.554886" lon="9.2602068"><ele>148.0</ele><time>2026-04-05T07:36:19.36Z</time></trkpt><trkpt lat="45.5548505" lon="9.2598836"><ele>148.0</ele><time>2026-04-05T07:36:20.36Z</time></trkpt><trkpt lat="45.5548033" lon="9.2595636"><ele>148.0</ele><time>2026-04-05T07:36:21.36Z</time></trkpt><trkpt lat="45.5547498" lon="9.2592449"><ele>148.0</ele><time>2026-04-05T07:36:22.36Z</time></trkpt><trkpt lat="45.5547" lon="9.258924"><ele>148.0</ele><time>2026-04-05T07:36:23.36Z</time></trkpt><trkpt lat="45.5546455" lon="9.2586019"><ele>148.0</ele><time>2026-04-05T07:36:24.36Z</time></trkpt><trkpt lat="45.5545996" lon="9.2582733"><ele>148.0</ele><time>2026-04-05T07:36:25.36Z</time></trkpt><trkpt lat="45.5545486" lon="9.2579417"><ele>147.5</ele><time>2026-04-05T07:36:26.36Z</time></trkpt><trkpt lat="45.5545066" lon="9.2576116"><ele>147.0</ele><time>2026-04-05T07:36:27.36Z</time></trkpt><trkpt lat="45.5544527" lon="9.2572762"><ele>147.0</ele><time>2026-04-05T07:36:28.36Z</time></trkpt><trkpt lat="45.5544048" lon="9.2569312"><ele>147.0</ele><time>2026-04-05T07:36:29.36Z</time></trkpt><trkpt lat="45.5543475" lon="9.2565926"><ele>147.5</ele><time>2026-04-05T07:36:30.36Z</time></trkpt><trkpt lat="45.5542945" lon="9.2562573"><ele>148.0</ele><time>2026-04-05T07:36:31.36Z</time></trkpt><trkpt lat="45.5542513" lon="9.2559152"><ele>148.0</ele><time>2026-04-05T07:36:32.36Z</time></trkpt><trkpt lat="45.5542017" lon="9.2555784"><ele>148.0</ele><time>2026-04-05T07:36:33.36Z</time></trkpt><trkpt lat="45.5541529" lon="9.2552397"><ele>148.0</ele><time>2026-04-05T07:36:34.36Z</time></trkpt><trkpt lat="45.554093" lon="9.2549121"><ele>148.0</ele><time>2026-04-05T07:36:35.36Z</time></trkpt><trkpt lat="45.5540373" lon="9.2546014"><ele>148.0</ele><time>2026-04-05T07:36:36.36Z</time></trkpt><trkpt lat="45.5539881" lon="9.2542887"><ele>148.0</ele><time>2026-04-05T07:36:37.36Z</time></trkpt><trkpt lat="45.553942" lon="9.2539813"><ele>148.0</ele><time>2026-04-05T07:36:38.36Z</time></trkpt><trkpt lat="45.5538907" lon="9.2536697"><ele>148.0</ele><time>2026-04-05T07:36:39.36Z</time></trkpt><trkpt lat="45.5538382" lon="9.2533541"><ele>148.0</ele><time>2026-04-05T07:36:40.36Z</time></trkpt><trkpt lat="45.5537906" lon="9.2530331"><ele>149.0</ele><time>2026-04-05T07:36:41.36Z</time></trkpt><trkpt lat="45.5537431" lon="9.252708"><ele>150.0</ele><time>2026-04-05T07:36:42.36Z</time></trkpt><trkpt lat="45.5536965" lon="9.2523787"><ele>150.0</ele><time>2026-04-05T07:36:43.36Z</time></trkpt><trkpt lat="45.5536496" lon="9.252048"><ele>150.0</ele><time>2026-04-05T07:36:44.36Z</time></trkpt><trkpt lat="45.5536019" lon="9.2517134"><ele>150.5</ele><time>2026-04-05T07:36:45.36Z</time></trkpt><trkpt lat="45.5535535" lon="9.2513768"><ele>151.0</ele><time>2026-04-05T07:36:46.36Z</time></trkpt><trkpt lat="45.553505" lon="9.2510386"><ele>151.0</ele><time>2026-04-05T07:36:47.36Z</time></trkpt><trkpt lat="45.5534535" lon="9.2507082"><ele>151.0</ele><time>2026-04-05T07:36:48.36Z</time></trkpt><trkpt lat="45.5534035" lon="9.2503879"><ele>151.5</ele><time>2026-04-05T07:36:49.36Z</time></trkpt><trkpt lat="45.5533574" lon="9.2500752"><ele>152.0</ele><time>2026-04-05T07:36:50.36Z</time></trkpt><trkpt lat="45.5533076" lon="9.2497543"><ele>152.0</ele><time>2026-04-05T07:36:51.36Z</time></trkpt><trkpt lat="45.5532537" lon="9.249425"><ele>152.0</ele><time>2026-04-05T07:36:52.36Z</time></trkpt><trkpt lat="45.553209" lon="9.2490952"><ele>151.5</ele><time>2026-04-05T07:36:53.36Z</time></trkpt><trkpt lat="45.553157" lon="9.2487598"><ele>151.0</ele><time>2026-04-05T07:36:54.36Z</time></trkpt><trkpt lat="45.5531024" lon="9.2484153"><ele>152.0</ele><time>2026-04-05T07:36:55.36Z</time></trkpt><trkpt lat="45.5530545" lon="9.2480638"><ele>153.0</ele><time>2026-04-05T07:36:56.36Z</time></trkpt><trkpt lat="45.5529995" lon="9.2477082"><ele>153.0</ele><time>2026-04-05T07:36:57.36Z</time></trkpt><trkpt lat="45.552942" lon="9.2473484"><ele>153.0</ele><time>2026-04-05T07:36:58.36Z</time></trkpt><trkpt lat="45.552883" lon="9.2469878"><ele>151.5</ele><time>2026-04-05T07:36:59.36Z</time></trkpt><trkpt lat="45.5528288" lon="9.2466241"><ele>150.0</ele><time>2026-04-05T07:37:00.36Z</time></trkpt><trkpt lat="45.5527708" lon="9.2462603"><ele>150.0</ele><time>2026-04-05T07:37:01.36Z</time></trkpt><trkpt lat="45.5527168" lon="9.2458906"><ele>150.0</ele><time>2026-04-05T07:37:02.36Z</time></trkpt><trkpt lat="45.5526637" lon="9.2455223"><ele>149.0</ele><time>2026-04-05T07:37:03.36Z</time></trkpt><trkpt lat="45.5526115" lon="9.2451502"><ele>148.0</ele><time>2026-04-05T07:37:04.36Z</time></trkpt><trkpt lat="45.5525594" lon="9.2447928"><ele>150.0</ele><time>2026-04-05T07:37:05.36Z</time></trkpt><trkpt lat="45.5525032" lon="9.2444347"><ele>152.0</ele><time>2026-04-05T07:37:06.36Z</time></trkpt><trkpt lat="45.5524491" lon="9.2440781"><ele>152.0</ele><time>2026-04-05T07:37:07.36Z</time></trkpt><trkpt lat="45.5523929" lon="9.2437221"><ele>152.0</ele><time>2026-04-05T07:37:08.36Z</time></trkpt><trkpt lat="45.5523381" lon="9.2433658"><ele>151.5</ele><time>2026-04-05T07:37:09.36Z</time></trkpt><trkpt lat="45.5522857" lon="9.2430115"><ele>151.0</ele><time>2026-04-05T07:37:10.36Z</time></trkpt><trkpt lat="45.5522383" lon="9.242664"><ele>151.0</ele><time>2026-04-05T07:37:11.36Z</time></trkpt><trkpt lat="45.5521879" lon="9.2423301"><ele>151.0</ele><time>2026-04-05T07:37:12.36Z</time></trkpt><trkpt lat="45.5521453" lon="9.2420018"><ele>151.0</ele><time>2026-04-05T07:37:13.36Z</time></trkpt><trkpt lat="45.5520937" lon="9.241668"><ele>151.0</ele><time>2026-04-05T07:37:14.36Z</time></trkpt><trkpt lat="45.5520455" lon="9.241345"><ele>152.5</ele><time>2026-04-05T07:37:15.36Z</time></trkpt><trkpt lat="45.5519927" lon="9.2410223"><ele>154.0</ele><time>2026-04-05T07:37:16.36Z</time></trkpt><trkpt lat="45.5519398" lon="9.2406969"><ele>152.5</ele><time>2026-04-05T07:37:17.36Z</time></trkpt><trkpt lat="45.5518932" lon="9.2403771"><ele>151.0</ele><time>2026-04-05T07:37:18.36Z</time></trkpt><trkpt lat="45.5518438" lon="9.2400526"><ele>151.5</ele><time>2026-04-05T07:37:19.36Z</time></trkpt><trkpt lat="45.5517918" lon="9.239732"><ele>152.0</ele><time>2026-04-05T07:37:20.36Z</time></trkpt><trkpt lat="45.5517506" lon="9.2394166"><ele>152.0</ele><time>2026-04-05T07:37:21.36Z</time></trkpt><trkpt lat="45.551703" lon="9.2390958"><ele>152.0</ele><time>2026-04-05T07:37:22.36Z</time></trkpt><trkpt lat="45.5516538" lon="9.2387767"><ele>151.5</ele><time>2026-04-05T07:37:23.36Z</time></trkpt><trkpt lat="45.5516052" lon="9.2384613"><ele>151.0</ele><time>2026-04-05T07:37:24.36Z</time></trkpt><trkpt lat="45.551561" lon="9.2381404"><ele>150.33333333333334</ele><time>2026-04-05T07:37:25.36Z</time></trkpt><trkpt lat="45.5515102" lon="9.2378241"><ele>149.66666666666666</ele><time>2026-04-05T07:37:26.36Z</time></trkpt><trkpt lat="45.5514619" lon="9.2375257"><ele>149.0</ele><time>2026-04-05T07:37:27.36Z</time></trkpt><trkpt lat="45.5514172" lon="9.2372165"><ele>148.66666666666666</ele><time>2026-04-05T07:37:28.36Z</time></trkpt><trkpt lat="45.5513719" lon="9.2369082"><ele>148.33333333333334</ele><time>2026-04-05T07:37:29.36Z</time></trkpt><trkpt lat="45.5513234" lon="9.2365978"><ele>148.0</ele><time>2026-04-05T07:37:30.36Z</time></trkpt><trkpt lat="45.5512797" lon="9.2362893"><ele>148.33333333333334</ele><time>2026-04-05T07:37:31.36Z</time></trkpt><trkpt lat="45.5512363" lon="9.2359816"><ele>148.66666666666666</ele><time>2026-04-05T07:37:32.36Z</time></trkpt><trkpt lat="45.5511877" lon="9.2356742"><ele>149.0</ele><time>2026-04-05T07:37:33.36Z</time></trkpt><trkpt lat="45.5510751" lon="9.2353758"><ele>149.0</ele><time>2026-04-05T07:37:34.36Z</time></trkpt><trkpt lat="45.5505072" lon="9.2303068"><ele>149.0</ele><time>2026-04-05T07:37:48.36Z</time></trkpt><trkpt lat="45.550444" lon="9.230046"><ele>149.0</ele><time>2026-04-05T07:37:49.36Z</time></trkpt><trkpt lat="45.5503987" lon="9.2296717"><ele>149.0</ele><time>2026-04-05T07:37:50.36Z</time></trkpt><trkpt lat="45.5503395" lon="9.2293205"><ele>149.0</ele><time>2026-04-05T07:37:51.36Z</time></trkpt><trkpt lat="45.5502868" lon="9.2289729"><ele>148.5</ele><time>2026-04-05T07:37:52.36Z</time></trkpt><trkpt lat="45.5502345" lon="9.2286498"><ele>148.0</ele><time>2026-04-05T07:37:53.36Z</time></trkpt><trkpt lat="45.5501793" lon="9.2283393"><ele>147.66666666666669</ele><time>2026-04-05T07:37:54.36Z</time></trkpt><trkpt lat="45.5501337" lon="9.228028"><ele>147.33333333333334</ele><time>2026-04-05T07:37:55.36Z</time></trkpt><trkpt lat="45.5500828" lon="9.2277231"><ele>147.0</ele><time>2026-04-05T07:37:56.36Z</time></trkpt><trkpt lat="45.5500345" lon="9.2274096"><ele>148.5</ele><time>2026-04-05T07:37:57.36Z</time></trkpt><trkpt lat="45.5499807" lon="9.2270984"><ele>150.0</ele><time>2026-04-05T07:37:58.36Z</time></trkpt><trkpt lat="45.5499288" lon="9.2267842"><ele>150.0</ele><time>2026-04-05T07:37:59.36Z</time></trkpt><trkpt lat="45.549875" lon="9.2264718"><ele>150.0</ele><time>2026-04-05T07:38:00.36Z</time></trkpt><trkpt lat="45.5498248" lon="9.226162"><ele>150.0</ele><time>2026-04-05T07:38:01.36Z</time></trkpt><trkpt lat="45.5497784" lon="9.2258619"><ele>149.66666666666666</ele><time>2026-04-05T07:38:02.36Z</time></trkpt><trkpt lat="45.5497314" lon="9.2255598"><ele>149.33333333333331</ele><time>2026-04-05T07:38:03.36Z</time></trkpt><trkpt lat="45.5496845" lon="9.2252681"><ele>149.0</ele><time>2026-04-05T07:38:04.36Z</time></trkpt><trkpt lat="45.5496396" lon="9.2249749"><ele>148.66666666666666</ele><time>2026-04-05T07:38:05.36Z</time></trkpt><trkpt lat="45.5495905" lon="9.2246818"><ele>148.33333333333334</ele><time>2026-04-05T07:38:06.36Z</time></trkpt><trkpt lat="45.5495473" lon="9.2243849"><ele>148.0</ele><time>2026-04-05T07:38:07.36Z</time></trkpt><trkpt lat="45.5495034" lon="9.2240922"><ele>148.0</ele><time>2026-04-05T07:38:08.36Z</time></trkpt><trkpt lat="45.5494559" lon="9.2237962"><ele>148.0</ele><time>2026-04-05T07:38:09.36Z</time></trkpt><trkpt lat="45.5494186" lon="9.2235042"><ele>148.0</ele><time>2026-04-05T07:38:10.36Z</time></trkpt><trkpt lat="45.5493772" lon="9.2232021"><ele>148.5</ele><time>2026-04-05T07:38:11.36Z</time></trkpt><trkpt lat="45.5493293" lon="9.2228906"><ele>149.0</ele><time>2026-04-05T07:38:12.36Z</time></trkpt><trkpt lat="45.5492774" lon="9.2225656"><ele>149.5</ele><time>2026-04-05T07:38:13.36Z</time></trkpt><trkpt lat="45.549221" lon="9.2222415"><ele>150.0</ele><time>2026-04-05T07:38:14.36Z</time></trkpt><trkpt lat="45.5491709" lon="9.221906"><ele>150.0</ele><time>2026-04-05T07:38:15.36Z</time></trkpt><trkpt lat="45.5491238" lon="9.2215654"><ele>150.0</ele><time>2026-04-05T07:38:16.36Z</time></trkpt><trkpt lat="45.5490789" lon="9.2212302"><ele>149.5</ele><time>2026-04-05T07:38:17.36Z</time></trkpt><trkpt lat="45.5490383" lon="9.2209093"><ele>149.0</ele><time>2026-04-05T07:38:18.36Z</time></trkpt><trkpt lat="45.5489993" lon="9.2205883"><ele>150.0</ele><time>2026-04-05T07:38:19.36Z</time></trkpt><trkpt lat="45.5489591" lon="9.2202653"><ele>151.0</ele><time>2026-04-05T07:38:20.36Z</time></trkpt><trkpt lat="45.5489262" lon="9.2199319"><ele>151.5</ele><time>2026-04-05T07:38:21.36Z</time></trkpt><trkpt lat="45.5489008" lon="9.2195982"><ele>152.0</ele><time>2026-04-05T07:38:22.36Z</time></trkpt><trkpt lat="45.5488738" lon="9.2192604"><ele>153.0</ele><time>2026-04-05T07:38:23.36Z</time></trkpt><trkpt lat="45.5488514" lon="9.2189316"><ele>154.0</ele><time>2026-04-05T07:38:24.36Z</time></trkpt><trkpt lat="45.5488372" lon="9.2186149"><ele>154.0</ele><time>2026-04-05T07:38:25.36Z</time></trkpt><trkpt lat="45.5488103" lon="9.2182927"><ele>154.0</ele><time>2026-04-05T07:38:26.36Z</time></trkpt><trkpt lat="45.5487987" lon="9.2179794"><ele>154.0</ele><time>2026-04-05T07:38:27.36Z</time></trkpt><trkpt lat="45.5487962" lon="9.2176541"><ele>152.0</ele><time>2026-04-05T07:38:28.36Z</time></trkpt><trkpt lat="45.5487974" lon="9.2173159"><ele>150.0</ele><time>2026-04-05T07:38:29.361Z</time></trkpt><trkpt lat="45.548772" lon="9.2169697"><ele>150.0</ele><time>2026-04-05T07:38:30.36Z</time></trkpt><trkpt lat="45.5487491" lon="9.2166149"><ele>150.0</ele><time>2026-04-05T07:38:31.36Z</time></trkpt><trkpt lat="45.5487259" lon="9.2162568"><ele>150.0</ele><time>2026-04-05T07:38:32.36Z</time></trkpt><trkpt lat="45.548714" lon="9.2158927"><ele>150.0</ele><time>2026-04-05T07:38:33.36Z</time></trkpt><trkpt lat="45.5487023" lon="9.2155299"><ele>149.5</ele><time>2026-04-05T07:38:34.36Z</time></trkpt><trkpt lat="45.5486904" lon="9.2151625"><ele>149.0</ele><time>2026-04-05T07:38:35.36Z</time></trkpt><trkpt lat="45.5486773" lon="9.2147952"><ele>147.5</ele><time>2026-04-05T07:38:36.36Z</time></trkpt><trkpt lat="45.5486669" lon="9.2144303"><ele>146.0</ele><time>2026-04-05T07:38:37.36Z</time></trkpt><trkpt lat="45.5486529" lon="9.2140647"><ele>146.0</ele><time>2026-04-05T07:38:38.36Z</time></trkpt><trkpt lat="45.5486382" lon="9.2137047"><ele>146.0</ele><time>2026-04-05T07:38:39.36Z</time></trkpt><trkpt lat="45.5486252" lon="9.2133415"><ele>147.5</ele><time>2026-04-05T07:38:40.36Z</time></trkpt><trkpt lat="45.5486182" lon="9.2129835"><ele>149.0</ele><time>2026-04-05T07:38:41.36Z</time></trkpt><trkpt lat="45.5486096" lon="9.2126271"><ele>148.5</ele><time>2026-04-05T07:38:42.36Z</time></trkpt><trkpt lat="45.548598" lon="9.2122742"><ele>148.0</ele><time>2026-04-05T07:38:43.36Z</time></trkpt><trkpt lat="45.5485889" lon="9.2119246"><ele>148.0</ele><time>2026-04-05T07:38:44.36Z</time></trkpt><trkpt lat="45.5485809" lon="9.2115755"><ele>148.0</ele><time>2026-04-05T07:38:45.36Z</time></trkpt><trkpt lat="45.5485731" lon="9.2112326"><ele>148.5</ele><time>2026-04-05T07:38:46.36Z</time></trkpt><trkpt lat="45.548557" lon="9.2108936"><ele>149.0</ele><time>2026-04-05T07:38:47.36Z</time></trkpt><trkpt lat="45.5485407" lon="9.2105747"><ele>149.0</ele><time>2026-04-05T07:38:48.36Z</time></trkpt><trkpt lat="45.5485376" lon="9.2102689"><ele>149.0</ele><time>2026-04-05T07:38:49.36Z</time></trkpt><trkpt lat="45.5485235" lon="9.2099659"><ele>149.0</ele><time>2026-04-05T07:38:50.36Z</time></trkpt><trkpt lat="45.5485161" lon="9.2096636"><ele>149.0</ele><time>2026-04-05T07:38:51.36Z</time></trkpt><trkpt lat="45.548511" lon="9.2093706"><ele>149.0</ele><time>2026-04-05T07:38:52.36Z</time></trkpt><trkpt lat="45.5485034" lon="9.2090807"><ele>149.0</ele><time>2026-04-05T07:38:53.36Z</time></trkpt><trkpt lat="45.5484988" lon="9.2087986"><ele>149.0</ele><time>2026-04-05T07:38:54.36Z</time></trkpt><trkpt lat="45.5484884" lon="9.2085125"><ele>149.0</ele><time>2026-04-05T07:38:55.36Z</time></trkpt><trkpt lat="45.5484752" lon="9.2082224"><ele>149.0</ele><time>2026-04-05T07:38:56.36Z</time></trkpt><trkpt lat="45.5484652" lon="9.2079317"><ele>149.0</ele><time>2026-04-05T07:38:57.36Z</time></trkpt><trkpt lat="45.5484592" lon="9.2076433"><ele>149.0</ele><time>2026-04-05T07:38:58.36Z</time></trkpt><trkpt lat="45.5484487" lon="9.2073449"><ele>149.0</ele><time>2026-04-05T07:38:59.36Z</time></trkpt><trkpt lat="45.5484455" lon="9.2070417"><ele>149.0</ele><time>2026-04-05T07:39:00.36Z</time></trkpt><trkpt lat="45.5484378" lon="9.2067343"><ele>149.0</ele><time>2026-04-05T07:39:01.367Z</time></trkpt><trkpt lat="45.5484301" lon="9.2064146"><ele>149.0</ele><time>2026-04-05T07:39:02.367Z</time></trkpt><trkpt lat="45.5484206" lon="9.2060964"><ele>149.0</ele><time>2026-04-05T07:39:03.367Z</time></trkpt><trkpt lat="45.5484101" lon="9.2057806"><ele>149.0</ele><time>2026-04-05T07:39:04.367Z</time></trkpt><trkpt lat="45.5483967" lon="9.205458"><ele>149.0</ele><time>2026-04-05T07:39:05.367Z</time></trkpt><trkpt lat="45.5483845" lon="9.2051342"><ele>149.0</ele><time>2026-04-05T07:39:06.367Z</time></trkpt><trkpt lat="45.5483712" lon="9.2048153"><ele>149.0</ele><time>2026-04-05T07:39:07.367Z</time></trkpt><trkpt lat="45.5483585" lon="9.2045057"><ele>149.0</ele><time>2026-04-05T07:39:08.367Z</time></trkpt><trkpt lat="45.5483446" lon="9.2042062"><ele>148.66666666666666</ele><time>2026-04-05T07:39:09.367Z</time></trkpt><trkpt lat="45.5483239" lon="9.2039138"><ele>148.33333333333334</ele><time>2026-04-05T07:39:10.367Z</time></trkpt><trkpt lat="45.5483073" lon="9.2036186"><ele>148.0</ele><time>2026-04-05T07:39:11.367Z</time></trkpt><trkpt lat="45.5482894" lon="9.2033302"><ele>147.66666666666669</ele><time>2026-04-05T07:39:12.367Z</time></trkpt><trkpt lat="45.5482775" lon="9.2030351"><ele>147.33333333333334</ele><time>2026-04-05T07:39:13.367Z</time></trkpt><trkpt lat="45.5482557" lon="9.2027525"><ele>147.0</ele><time>2026-04-05T07:39:14.367Z</time></trkpt><trkpt lat="45.5482296" lon="9.202467"><ele>147.66666666666666</ele><time>2026-04-05T07:39:15.367Z</time></trkpt><trkpt lat="45.5481999" lon="9.2021864"><ele>148.33333333333331</ele><time>2026-04-05T07:39:16.367Z</time></trkpt><trkpt lat="45.5481671" lon="9.2019008"><ele>149.0</ele><time>2026-04-05T07:39:17.367Z</time></trkpt><trkpt lat="45.5481305" lon="9.2016112"><ele>149.0</ele><time>2026-04-05T07:39:18.367Z</time></trkpt><trkpt lat="45.5480919" lon="9.2013207"><ele>149.0</ele><time>2026-04-05T07:39:19.367Z</time></trkpt><trkpt lat="45.548049" lon="9.2010248"><ele>149.0</ele><time>2026-04-05T07:39:20.367Z</time></trkpt><trkpt lat="45.5479955" lon="9.2007281"><ele>148.66666666666666</ele><time>2026-04-05T07:39:21.367Z</time></trkpt><trkpt lat="45.5479401" lon="9.2004285"><ele>148.33333333333334</ele><time>2026-04-05T07:39:22.367Z</time></trkpt><trkpt lat="45.5478856" lon="9.2001337"><ele>148.0</ele><time>2026-04-05T07:39:23.367Z</time></trkpt><trkpt lat="45.5478252" lon="9.1998319"><ele>148.0</ele><time>2026-04-05T07:39:24.367Z</time></trkpt><trkpt lat="45.5477593" lon="9.199522"><ele>148.0</ele><time>2026-04-05T07:39:25.367Z</time></trkpt><trkpt lat="45.5476882" lon="9.1992148"><ele>147.5</ele><time>2026-04-05T07:39:26.367Z</time></trkpt><trkpt lat="45.5476142" lon="9.1989079"><ele>147.0</ele><time>2026-04-05T07:39:27.367Z</time></trkpt><trkpt lat="45.5475377" lon="9.1986035"><ele>147.0</ele><time>2026-04-05T07:39:28.367Z</time></trkpt><trkpt lat="45.5474613" lon="9.1983005"><ele>147.0</ele><time>2026-04-05T07:39:29.367Z</time></trkpt><trkpt lat="45.5473861" lon="9.1980016"><ele>147.0</ele><time>2026-04-05T07:39:30.367Z</time></trkpt><trkpt lat="45.5473136" lon="9.1977216"><ele>147.66666666666666</ele><time>2026-04-05T07:39:31.367Z</time></trkpt><trkpt lat="45.5472461" lon="9.1974416"><ele>148.33333333333331</ele><time>2026-04-05T07:39:32.367Z</time></trkpt><trkpt lat="45.5471798" lon="9.1971553"><ele>149.0</ele><time>2026-04-05T07:39:33.367Z</time></trkpt><trkpt lat="45.5471134" lon="9.1968676"><ele>148.66666666666666</ele><time>2026-04-05T07:39:34.367Z</time></trkpt><trkpt lat="45.5470374" lon="9.1965709"><ele>148.33333333333334</ele><time>2026-04-05T07:39:35.367Z</time></trkpt><trkpt lat="45.5469567" lon="9.1962756"><ele>148.0</ele><time>2026-04-05T07:39:36.367Z</time></trkpt><trkpt lat="45.5468738" lon="9.1959851"><ele>148.0</ele><time>2026-04-05T07:39:37.367Z</time></trkpt><trkpt lat="45.5467905" lon="9.1956813"><ele>148.0</ele><time>2026-04-05T07:39:38.367Z</time></trkpt><trkpt lat="45.5467109" lon="9.1953728"><ele>148.5</ele><time>2026-04-05T07:39:39.367Z</time></trkpt><trkpt lat="45.5466321" lon="9.1950555"><ele>149.0</ele><time>2026-04-05T07:39:40.367Z</time></trkpt><trkpt lat="45.5465487" lon="9.1947357"><ele>149.5</ele><time>2026-04-05T07:39:41.367Z</time></trkpt><trkpt lat="45.5464598" lon="9.1944085"><ele>150.0</ele><time>2026-04-05T07:39:42.367Z</time></trkpt><trkpt lat="45.5463735" lon="9.1940678"><ele>150.0</ele><time>2026-04-05T07:39:43.367Z</time></trkpt><trkpt lat="45.5462905" lon="9.1937349"><ele>150.0</ele><time>2026-04-05T07:39:44.367Z</time></trkpt><trkpt lat="45.5462048" lon="9.19342"><ele>150.0</ele><time>2026-04-05T07:39:45.367Z</time></trkpt><trkpt lat="45.5461268" lon="9.1931103"><ele>150.0</ele><time>2026-04-05T07:39:46.367Z</time></trkpt><trkpt lat="45.5460499" lon="9.1928032"><ele>150.0</ele><time>2026-04-05T07:39:47.367Z</time></trkpt><trkpt lat="45.5459744" lon="9.1924972"><ele>150.0</ele><time>2026-04-05T07:39:48.367Z</time></trkpt><trkpt lat="45.5458969" lon="9.192194"><ele>150.0</ele><time>2026-04-05T07:39:49.367Z</time></trkpt><trkpt lat="45.5458121" lon="9.1918851"><ele>150.0</ele><time>2026-04-05T07:39:50.367Z</time></trkpt><trkpt lat="45.5457275" lon="9.1915779"><ele>151.5</ele><time>2026-04-05T07:39:51.367Z</time></trkpt><trkpt lat="45.5456438" lon="9.1912689"><ele>153.0</ele><time>2026-04-05T07:39:52.367Z</time></trkpt><trkpt lat="45.5455663" lon="9.1909593"><ele>153.0</ele><time>2026-04-05T07:39:53.367Z</time></trkpt><trkpt lat="45.5454891" lon="9.1906493"><ele>153.0</ele><time>2026-04-05T07:39:54.367Z</time></trkpt><trkpt lat="45.5454087" lon="9.1903353"><ele>152.0</ele><time>2026-04-05T07:39:55.367Z</time></trkpt><trkpt lat="45.5453272" lon="9.1900144"><ele>151.0</ele><time>2026-04-05T07:39:56.367Z</time></trkpt><trkpt lat="45.5452382" lon="9.1896864"><ele>151.0</ele><time>2026-04-05T07:39:57.367Z</time></trkpt><trkpt lat="45.5451501" lon="9.1893529"><ele>151.0</ele><time>2026-04-05T07:39:58.367Z</time></trkpt><trkpt lat="45.5450648" lon="9.1890175"><ele>151.0</ele><time>2026-04-05T07:39:59.367Z</time></trkpt><trkpt lat="45.5449806" lon="9.1886846"><ele>151.0</ele><time>2026-04-05T07:40:00.367Z</time></trkpt><trkpt lat="45.5448999" lon="9.1883625"><ele>150.5</ele><time>2026-04-05T07:40:01.367Z</time></trkpt><trkpt lat="45.5448183" lon="9.1880489"><ele>150.0</ele><time>2026-04-05T07:40:02.367Z</time></trkpt><trkpt lat="45.544736" lon="9.1877419"><ele>150.0</ele><time>2026-04-05T07:40:03.367Z</time></trkpt><trkpt lat="45.544654" lon="9.1874343"><ele>150.0</ele><time>2026-04-05T07:40:04.367Z</time></trkpt><trkpt lat="45.5445759" lon="9.187127"><ele>150.0</ele><time>2026-04-05T07:40:05.367Z</time></trkpt><trkpt lat="45.5444983" lon="9.1868178"><ele>150.0</ele><time>2026-04-05T07:40:06.367Z</time></trkpt><trkpt lat="45.544418" lon="9.1865005"><ele>150.5</ele><time>2026-04-05T07:40:07.367Z</time></trkpt><trkpt lat="45.5443391" lon="9.1861878"><ele>151.0</ele><time>2026-04-05T07:40:08.367Z</time></trkpt><trkpt lat="45.5442534" lon="9.1858797"><ele>150.33333333333334</ele><time>2026-04-05T07:40:09.367Z</time></trkpt><trkpt lat="45.5441766" lon="9.1855813"><ele>149.66666666666666</ele><time>2026-04-05T07:40:10.367Z</time></trkpt><trkpt lat="45.5441013" lon="9.1852762"><ele>149.0</ele><time>2026-04-05T07:40:11.367Z</time></trkpt><trkpt lat="45.5440168" lon="9.1849653"><ele>148.5</ele><time>2026-04-05T07:40:12.367Z</time></trkpt><trkpt lat="45.5439334" lon="9.1846397"><ele>148.0</ele><time>2026-04-05T07:40:13.367Z</time></trkpt><trkpt lat="45.5438463" lon="9.1842914"><ele>148.0</ele><time>2026-04-05T07:40:14.367Z</time></trkpt><trkpt lat="45.5437514" lon="9.1839358"><ele>148.0</ele><time>2026-04-05T07:40:15.367Z</time></trkpt><trkpt lat="45.5436615" lon="9.1835716"><ele>148.0</ele><time>2026-04-05T07:40:16.367Z</time></trkpt><trkpt lat="45.5435658" lon="9.1832023"><ele>148.0</ele><time>2026-04-05T07:40:17.367Z</time></trkpt><trkpt lat="45.5434724" lon="9.1828353"><ele>148.0</ele><time>2026-04-05T07:40:18.367Z</time></trkpt><trkpt lat="45.5433808" lon="9.1824797"><ele>148.0</ele><time>2026-04-05T07:40:19.367Z</time></trkpt><trkpt lat="45.5432806" lon="9.1821204"><ele>147.5</ele><time>2026-04-05T07:40:20.367Z</time></trkpt><trkpt lat="45.5431872" lon="9.1817645"><ele>147.0</ele><time>2026-04-05T07:40:21.367Z</time></trkpt><trkpt lat="45.5430942" lon="9.181411"><ele>148.0</ele><time>2026-04-05T07:40:22.367Z</time></trkpt><trkpt lat="45.5430033" lon="9.1810644"><ele>149.0</ele><time>2026-04-05T07:40:23.367Z</time></trkpt><trkpt lat="45.5429074" lon="9.1807263"><ele>149.5</ele><time>2026-04-05T07:40:24.367Z</time></trkpt><trkpt lat="45.5428167" lon="9.1803913"><ele>150.0</ele><time>2026-04-05T07:40:25.367Z</time></trkpt><trkpt lat="45.5427255" lon="9.180052"><ele>150.5</ele><time>2026-04-05T07:40:26.367Z</time></trkpt><trkpt lat="45.5426356" lon="9.1797096"><ele>151.0</ele><time>2026-04-05T07:40:27.367Z</time></trkpt><trkpt lat="45.5425441" lon="9.1793766"><ele>151.0</ele><time>2026-04-05T07:40:28.367Z</time></trkpt><trkpt lat="45.5424552" lon="9.1790507"><ele>151.0</ele><time>2026-04-05T07:40:29.367Z</time></trkpt><trkpt lat="45.5423596" lon="9.17873"><ele>150.5</ele><time>2026-04-05T07:40:30.367Z</time></trkpt><trkpt lat="45.5422663" lon="9.1784133"><ele>150.0</ele><time>2026-04-05T07:40:31.367Z</time></trkpt><trkpt lat="45.5421752" lon="9.1781014"><ele>150.0</ele><time>2026-04-05T07:40:32.367Z</time></trkpt><trkpt lat="45.5420858" lon="9.1777873"><ele>150.0</ele><time>2026-04-05T07:40:33.367Z</time></trkpt><trkpt lat="45.5419924" lon="9.1774715"><ele>149.5</ele><time>2026-04-05T07:40:34.367Z</time></trkpt><trkpt lat="45.5418963" lon="9.177158"><ele>149.0</ele><time>2026-04-05T07:40:35.367Z</time></trkpt><trkpt lat="45.5418045" lon="9.1768442"><ele>149.0</ele><time>2026-04-05T07:40:36.367Z</time></trkpt><trkpt lat="45.541719" lon="9.1765244"><ele>149.0</ele><time>2026-04-05T07:40:37.367Z</time></trkpt><trkpt lat="45.5416305" lon="9.1762052"><ele>149.0</ele><time>2026-04-05T07:40:38.367Z</time></trkpt><trkpt lat="45.5415434" lon="9.1758875"><ele>149.0</ele><time>2026-04-05T07:40:39.367Z</time></trkpt><trkpt lat="45.5414549" lon="9.1755715"><ele>151.0</ele><time>2026-04-05T07:40:40.367Z</time></trkpt><trkpt lat="45.5413637" lon="9.1752622"><ele>153.0</ele><time>2026-04-05T07:40:41.367Z</time></trkpt><trkpt lat="45.5412713" lon="9.1749509"><ele>151.0</ele><time>2026-04-05T07:40:42.367Z</time></trkpt><trkpt lat="45.5411807" lon="9.1746435"><ele>149.0</ele><time>2026-04-05T07:40:43.367Z</time></trkpt><trkpt lat="45.5410889" lon="9.1743283"><ele>149.5</ele><time>2026-04-05T07:40:44.367Z</time></trkpt><trkpt lat="45.5409899" lon="9.1740213"><ele>150.0</ele><time>2026-04-05T07:40:45.367Z</time></trkpt><trkpt lat="45.5408924" lon="9.1737104"><ele>150.0</ele><time>2026-04-05T07:40:46.367Z</time></trkpt><trkpt lat="45.5408001" lon="9.1734058"><ele>150.0</ele><time>2026-04-05T07:40:47.367Z</time></trkpt><trkpt lat="45.5406946" lon="9.1730861"><ele>149.5</ele><time>2026-04-05T07:40:48.367Z</time></trkpt><trkpt lat="45.5405804" lon="9.1727502"><ele>149.0</ele><time>2026-04-05T07:40:49.367Z</time></trkpt><trkpt lat="45.5404616" lon="9.1724049"><ele>149.0</ele><time>2026-04-05T07:40:50.367Z</time></trkpt><trkpt lat="45.5403381" lon="9.1720517"><ele>149.0</ele><time>2026-04-05T07:40:51.367Z</time></trkpt><trkpt lat="45.5402136" lon="9.1717024"><ele>149.0</ele><time>2026-04-05T07:40:52.367Z</time></trkpt><trkpt lat="45.5400873" lon="9.1713603"><ele>149.0</ele><time>2026-04-05T07:40:53.367Z</time></trkpt><trkpt lat="45.5399575" lon="9.1710138"><ele>149.5</ele><time>2026-04-05T07:40:54.367Z</time></trkpt><trkpt lat="45.5398288" lon="9.170673"><ele>150.0</ele><time>2026-04-05T07:40:55.367Z</time></trkpt><trkpt lat="45.5396973" lon="9.1703322"><ele>150.0</ele><time>2026-04-05T07:40:56.367Z</time></trkpt><trkpt lat="45.539563" lon="9.169995"><ele>150.0</ele><time>2026-04-05T07:40:57.367Z</time></trkpt><trkpt lat="45.5394285" lon="9.169659"><ele>150.0</ele><time>2026-04-05T07:40:58.367Z</time></trkpt><trkpt lat="45.5392915" lon="9.169325"><ele>150.0</ele><time>2026-04-05T07:40:59.367Z</time></trkpt><trkpt lat="45.5391549" lon="9.1689932"><ele>150.0</ele><time>2026-04-05T07:41:00.367Z</time></trkpt><trkpt lat="45.5390179" lon="9.1686654"><ele>150.0</ele><time>2026-04-05T07:41:01.367Z</time></trkpt><trkpt lat="45.5388803" lon="9.1683448"><ele>150.5</ele><time>2026-04-05T07:41:02.367Z</time></trkpt><trkpt lat="45.538742" lon="9.1680311"><ele>151.0</ele><time>2026-04-05T07:41:03.367Z</time></trkpt><trkpt lat="45.5385965" lon="9.1677241"><ele>151.0</ele><time>2026-04-05T07:41:04.367Z</time></trkpt><trkpt lat="45.538435" lon="9.1673971"><ele>151.0</ele><time>2026-04-05T07:41:05.367Z</time></trkpt><trkpt lat="45.5382745" lon="9.1670636"><ele>150.5</ele><time>2026-04-05T07:41:06.367Z</time></trkpt><trkpt lat="45.5381182" lon="9.1667426"><ele>150.0</ele><time>2026-04-05T07:41:07.367Z</time></trkpt><trkpt lat="45.537965" lon="9.1664232"><ele>148.0</ele><time>2026-04-05T07:41:08.367Z</time></trkpt><trkpt lat="45.537812" lon="9.1661088"><ele>146.0</ele><time>2026-04-05T07:41:09.367Z</time></trkpt><trkpt lat="45.5376633" lon="9.165799"><ele>146.5</ele><time>2026-04-05T07:41:10.367Z</time></trkpt><trkpt lat="45.5375177" lon="9.1654935"><ele>147.0</ele><time>2026-04-05T07:41:11.367Z</time></trkpt><trkpt lat="45.5373741" lon="9.165194"><ele>147.0</ele><time>2026-04-05T07:41:12.367Z</time></trkpt><trkpt lat="45.537233" lon="9.1648993"><ele>147.0</ele><time>2026-04-05T07:41:13.367Z</time></trkpt><trkpt lat="45.5370947" lon="9.1646074"><ele>147.0</ele><time>2026-04-05T07:41:14.367Z</time></trkpt><trkpt lat="45.536957" lon="9.164317"><ele>147.0</ele><time>2026-04-05T07:41:15.367Z</time></trkpt><trkpt lat="45.5368187" lon="9.1640261"><ele>147.0</ele><time>2026-04-05T07:41:16.367Z</time></trkpt><trkpt lat="45.5366792" lon="9.1637347"><ele>147.0</ele><time>2026-04-05T07:41:17.367Z</time></trkpt><trkpt lat="45.5365463" lon="9.1634472"><ele>146.5</ele><time>2026-04-05T07:41:18.367Z</time></trkpt><trkpt lat="45.5364044" lon="9.1631525"><ele>146.0</ele><time>2026-04-05T07:41:19.367Z</time></trkpt><trkpt lat="45.5362595" lon="9.162852"><ele>146.0</ele><time>2026-04-05T07:41:20.367Z</time></trkpt><trkpt lat="45.5361067" lon="9.1625412"><ele>146.0</ele><time>2026-04-05T07:41:21.367Z</time></trkpt><trkpt lat="45.5359471" lon="9.1622127"><ele>146.0</ele><time>2026-04-05T07:41:22.367Z</time></trkpt><trkpt lat="45.535781" lon="9.1618735"><ele>146.0</ele><time>2026-04-05T07:41:23.367Z</time></trkpt><trkpt lat="45.5356226" lon="9.1615446"><ele>146.0</ele><time>2026-04-05T07:41:24.367Z</time></trkpt><trkpt lat="45.5354727" lon="9.1612296"><ele>146.0</ele><time>2026-04-05T07:41:25.367Z</time></trkpt><trkpt lat="45.5353291" lon="9.1609285"><ele>147.0</ele><time>2026-04-05T07:41:26.367Z</time></trkpt><trkpt lat="45.5351839" lon="9.1606219"><ele>148.0</ele><time>2026-04-05T07:41:27.367Z</time></trkpt><trkpt lat="45.5350314" lon="9.1603126"><ele>148.0</ele><time>2026-04-05T07:41:28.367Z</time></trkpt><trkpt lat="45.5348781" lon="9.1600007"><ele>148.0</ele><time>2026-04-05T07:41:29.367Z</time></trkpt><trkpt lat="45.5347257" lon="9.1596818"><ele>148.0</ele><time>2026-04-05T07:41:30.367Z</time></trkpt><trkpt lat="45.5345705" lon="9.1593508"><ele>148.0</ele><time>2026-04-05T07:41:31.367Z</time></trkpt><trkpt lat="45.5344084" lon="9.15901"><ele>147.0</ele><time>2026-04-05T07:41:32.367Z</time></trkpt><trkpt lat="45.5342517" lon="9.1586812"><ele>146.0</ele><time>2026-04-05T07:41:33.367Z</time></trkpt><trkpt lat="45.5341043" lon="9.1583758"><ele>147.0</ele><time>2026-04-05T07:41:34.367Z</time></trkpt><trkpt lat="45.5339672" lon="9.1580955"><ele>148.0</ele><time>2026-04-05T07:41:35.367Z</time></trkpt><trkpt lat="45.5338271" lon="9.157811"><ele>147.5</ele><time>2026-04-05T07:41:36.367Z</time></trkpt><trkpt lat="45.5336945" lon="9.1575411"><ele>147.0</ele><time>2026-04-05T07:41:37.367Z</time></trkpt><trkpt lat="45.5335666" lon="9.1572747"><ele>146.0</ele><time>2026-04-05T07:41:38.367Z</time></trkpt><trkpt lat="45.5334407" lon="9.157011"><ele>145.0</ele><time>2026-04-05T07:41:39.367Z</time></trkpt><trkpt lat="45.5333064" lon="9.1567473"><ele>146.0</ele><time>2026-04-05T07:41:40.367Z</time></trkpt><trkpt lat="45.53317" lon="9.1564806"><ele>147.0</ele><time>2026-04-05T07:41:41.367Z</time></trkpt><trkpt lat="45.533036" lon="9.1562174"><ele>147.0</ele><time>2026-04-05T07:41:42.367Z</time></trkpt><trkpt lat="45.5329059" lon="9.1559551"><ele>147.0</ele><time>2026-04-05T07:41:43.367Z</time></trkpt><trkpt lat="45.532775" lon="9.1556859"><ele>147.5</ele><time>2026-04-05T07:41:44.368Z</time></trkpt><trkpt lat="45.5326522" lon="9.1554156"><ele>148.0</ele><time>2026-04-05T07:41:45.367Z</time></trkpt><trkpt lat="45.532534" lon="9.1551408"><ele>147.5</ele><time>2026-04-05T07:41:46.367Z</time></trkpt><trkpt lat="45.5324103" lon="9.1548666"><ele>147.0</ele><time>2026-04-05T07:41:47.367Z</time></trkpt><trkpt lat="45.5322861" lon="9.1545932"><ele>147.0</ele><time>2026-04-05T07:41:48.367Z</time></trkpt><trkpt lat="45.5321581" lon="9.1543267"><ele>147.0</ele><time>2026-04-05T07:41:49.367Z</time></trkpt><trkpt lat="45.5320387" lon="9.1540754"><ele>147.0</ele><time>2026-04-05T07:41:50.367Z</time></trkpt><trkpt lat="45.5319136" lon="9.1538006"><ele>145.5</ele><time>2026-04-05T07:41:51.367Z</time></trkpt><trkpt lat="45.5317875" lon="9.1535292"><ele>144.0</ele><time>2026-04-05T07:41:52.367Z</time></trkpt><trkpt lat="45.5316648" lon="9.1532618"><ele>144.33333333333334</ele><time>2026-04-05T07:41:53.367Z</time></trkpt><trkpt lat="45.5315421" lon="9.1529956"><ele>144.66666666666669</ele><time>2026-04-05T07:41:54.367Z</time></trkpt><trkpt lat="45.5314168" lon="9.1527323"><ele>145.0</ele><time>2026-04-05T07:41:55.367Z</time></trkpt><trkpt lat="45.5312882" lon="9.1524691"><ele>145.0</ele><time>2026-04-05T07:41:56.367Z</time></trkpt><trkpt lat="45.5311592" lon="9.1522094"><ele>145.0</ele><time>2026-04-05T07:41:57.367Z</time></trkpt><trkpt lat="45.5310313" lon="9.1519476"><ele>145.0</ele><time>2026-04-05T07:41:58.367Z</time></trkpt><trkpt lat="45.530903" lon="9.1516826"><ele>145.0</ele><time>2026-04-05T07:41:59.367Z</time></trkpt><trkpt lat="45.5307748" lon="9.1514184"><ele>145.0</ele><time>2026-04-05T07:42:00.367Z</time></trkpt><trkpt lat="45.5306433" lon="9.1511526"><ele>145.0</ele><time>2026-04-05T07:42:01.367Z</time></trkpt><trkpt lat="45.5305052" lon="9.1508852"><ele>145.0</ele><time>2026-04-05T07:42:02.367Z</time></trkpt><trkpt lat="45.5303721" lon="9.1506147"><ele>144.0</ele><time>2026-04-05T07:42:03.367Z</time></trkpt><trkpt lat="45.5302365" lon="9.1503376"><ele>143.0</ele><time>2026-04-05T07:42:04.367Z</time></trkpt><trkpt lat="45.5301015" lon="9.150055"><ele>143.5</ele><time>2026-04-05T07:42:05.367Z</time></trkpt><trkpt lat="45.5299647" lon="9.1497738"><ele>144.0</ele><time>2026-04-05T07:42:06.367Z</time></trkpt><trkpt lat="45.5298325" lon="9.1494981"><ele>144.0</ele><time>2026-04-05T07:42:07.367Z</time></trkpt><trkpt lat="45.5296965" lon="9.1492242"><ele>144.0</ele><time>2026-04-05T07:42:08.367Z</time></trkpt><trkpt lat="45.5295625" lon="9.1489558"><ele>143.5</ele><time>2026-04-05T07:42:09.367Z</time></trkpt><trkpt lat="45.5294274" lon="9.1486857"><ele>143.0</ele><time>2026-04-05T07:42:10.367Z</time></trkpt><trkpt lat="45.5292928" lon="9.1484202"><ele>143.0</ele><time>2026-04-05T07:42:11.367Z</time></trkpt><trkpt lat="45.5291618" lon="9.148152"><ele>143.0</ele><time>2026-04-05T07:42:12.367Z</time></trkpt><trkpt lat="45.5290291" lon="9.1478814"><ele>143.0</ele><time>2026-04-05T07:42:13.367Z</time></trkpt><trkpt lat="45.5288991" lon="9.1476113"><ele>143.0</ele><time>2026-04-05T07:42:14.367Z</time></trkpt><trkpt lat="45.5287682" lon="9.1473416"><ele>143.0</ele><time>2026-04-05T07:42:15.367Z</time></trkpt><trkpt lat="45.5286359" lon="9.1470631"><ele>143.0</ele><time>2026-04-05T07:42:16.367Z</time></trkpt><trkpt lat="45.5285028" lon="9.1467872"><ele>143.0</ele><time>2026-04-05T07:42:17.367Z</time></trkpt><trkpt lat="45.5283649" lon="9.1465124"><ele>143.0</ele><time>2026-04-05T07:42:18.367Z</time></trkpt><trkpt lat="45.5282469" lon="9.1462341"><ele>143.0</ele><time>2026-04-05T07:42:19.367Z</time></trkpt><trkpt lat="45.5281259" lon="9.1459415"><ele>143.0</ele><time>2026-04-05T07:42:20.367Z</time></trkpt><trkpt lat="45.5279943" lon="9.1456668"><ele>142.0</ele><time>2026-04-05T07:42:21.367Z</time></trkpt><trkpt lat="45.5278567" lon="9.1453878"><ele>141.0</ele><time>2026-04-05T07:42:22.367Z</time></trkpt><trkpt lat="45.5277204" lon="9.1451015"><ele>142.0</ele><time>2026-04-05T07:42:23.367Z</time></trkpt><trkpt lat="45.5275886" lon="9.14483"><ele>143.0</ele><time>2026-04-05T07:42:24.367Z</time></trkpt><trkpt lat="45.5274632" lon="9.1445642"><ele>143.0</ele><time>2026-04-05T07:42:25.367Z</time></trkpt><trkpt lat="45.5273393" lon="9.1443022"><ele>143.0</ele><time>2026-04-05T07:42:26.367Z</time></trkpt><trkpt lat="45.5272098" lon="9.1440402"><ele>143.0</ele><time>2026-04-05T07:42:27.367Z</time></trkpt><trkpt lat="45.5270793" lon="9.1437722"><ele>142.5</ele><time>2026-04-05T07:42:28.367Z</time></trkpt><trkpt lat="45.5269477" lon="9.1435051"><ele>142.0</ele><time>2026-04-05T07:42:29.367Z</time></trkpt><trkpt lat="45.5268145" lon="9.1432314"><ele>143.0</ele><time>2026-04-05T07:42:30.367Z</time></trkpt><trkpt lat="45.5266842" lon="9.1429601"><ele>144.0</ele><time>2026-04-05T07:42:31.367Z</time></trkpt><trkpt lat="45.5265523" lon="9.1426821"><ele>144.0</ele><time>2026-04-05T07:42:32.367Z</time></trkpt><trkpt lat="45.5264201" lon="9.1424048"><ele>144.0</ele><time>2026-04-05T07:42:33.367Z</time></trkpt><trkpt lat="45.526284" lon="9.1421274"><ele>143.5</ele><time>2026-04-05T07:42:34.367Z</time></trkpt><trkpt lat="45.5261507" lon="9.141853"><ele>143.0</ele><time>2026-04-05T07:42:35.367Z</time></trkpt><trkpt lat="45.5260155" lon="9.1415779"><ele>145.0</ele><time>2026-04-05T07:42:36.367Z</time></trkpt><trkpt lat="45.5258848" lon="9.1413102"><ele>147.0</ele><time>2026-04-05T07:42:37.367Z</time></trkpt><trkpt lat="45.5257519" lon="9.1410423"><ele>147.0</ele><time>2026-04-05T07:42:38.368Z</time></trkpt><trkpt lat="45.5256234" lon="9.1407703"><ele>147.0</ele><time>2026-04-05T07:42:39.367Z</time></trkpt><trkpt lat="45.525496" lon="9.1404987"><ele>145.5</ele><time>2026-04-05T07:42:40.367Z</time></trkpt><trkpt lat="45.5253675" lon="9.140231"><ele>144.0</ele><time>2026-04-05T07:42:41.367Z</time></trkpt><trkpt lat="45.5252335" lon="9.1399686"><ele>143.5</ele><time>2026-04-05T07:42:42.367Z</time></trkpt><trkpt lat="45.5251017" lon="9.1397061"><ele>143.0</ele><time>2026-04-05T07:42:43.367Z</time></trkpt><trkpt lat="45.5249748" lon="9.1394421"><ele>143.0</ele><time>2026-04-05T07:42:44.367Z</time></trkpt><trkpt lat="45.5248457" lon="9.1391779"><ele>143.0</ele><time>2026-04-05T07:42:45.367Z</time></trkpt><trkpt lat="45.5247178" lon="9.1389136"><ele>143.0</ele><time>2026-04-05T07:42:46.367Z</time></trkpt><trkpt lat="45.52459" lon="9.1386485"><ele>143.0</ele><time>2026-04-05T07:42:47.367Z</time></trkpt><trkpt lat="45.5244626" lon="9.1383838"><ele>142.66666666666666</ele><time>2026-04-05T07:42:48.367Z</time></trkpt><trkpt lat="45.5243377" lon="9.1381177"><ele>142.33333333333334</ele><time>2026-04-05T07:42:49.367Z</time></trkpt><trkpt lat="45.5242124" lon="9.137857"><ele>142.0</ele><time>2026-04-05T07:42:50.367Z</time></trkpt><trkpt lat="45.5240836" lon="9.1375906"><ele>142.0</ele><time>2026-04-05T07:42:51.367Z</time></trkpt><trkpt lat="45.5239576" lon="9.1373297"><ele>142.0</ele><time>2026-04-05T07:42:52.367Z</time></trkpt><trkpt lat="45.5238291" lon="9.1370701"><ele>142.0</ele><time>2026-04-05T07:42:53.367Z</time></trkpt><trkpt lat="45.5237055" lon="9.136806"><ele>142.0</ele><time>2026-04-05T07:42:54.367Z</time></trkpt><trkpt lat="45.5235848" lon="9.1365509"><ele>142.0</ele><time>2026-04-05T07:42:55.367Z</time></trkpt><trkpt lat="45.5234653" lon="9.1363019"><ele>142.0</ele><time>2026-04-05T07:42:56.367Z</time></trkpt><trkpt lat="45.5233517" lon="9.1360626"><ele>142.0</ele><time>2026-04-05T07:42:57.367Z</time></trkpt><trkpt lat="45.5232407" lon="9.1358187"><ele>142.0</ele><time>2026-04-05T07:42:58.367Z</time></trkpt><trkpt lat="45.5231303" lon="9.1355926"><ele>142.0</ele><time>2026-04-05T07:42:59.367Z</time></trkpt><trkpt lat="45.5230239" lon="9.1353666"><ele>142.33333333333334</ele><time>2026-04-05T07:43:00.367Z</time></trkpt><trkpt lat="45.5229161" lon="9.135136"><ele>142.66666666666666</ele><time>2026-04-05T07:43:01.367Z</time></trkpt><trkpt lat="45.5228102" lon="9.1349091"><ele>143.0</ele><time>2026-04-05T07:43:02.367Z</time></trkpt><trkpt lat="45.5227038" lon="9.1346819"><ele>143.0</ele><time>2026-04-05T07:43:03.367Z</time></trkpt><trkpt lat="45.5225997" lon="9.1344542"><ele>143.0</ele><time>2026-04-05T07:43:04.367Z</time></trkpt><trkpt lat="45.5224851" lon="9.1342192"><ele>143.0</ele><time>2026-04-05T07:43:05.367Z</time></trkpt><trkpt lat="45.5223581" lon="9.1339973"><ele>143.0</ele><time>2026-04-05T07:43:06.367Z</time></trkpt><trkpt lat="45.5222348" lon="9.1337563"><ele>143.0</ele><time>2026-04-05T07:43:07.367Z</time></trkpt><trkpt lat="45.5221013" lon="9.1334996"><ele>143.0</ele><time>2026-04-05T07:43:08.367Z</time></trkpt><trkpt lat="45.5219712" lon="9.1332332"><ele>141.5</ele><time>2026-04-05T07:43:09.367Z</time></trkpt><trkpt lat="45.5218382" lon="9.1329627"><ele>140.0</ele><time>2026-04-05T07:43:10.367Z</time></trkpt><trkpt lat="45.5217114" lon="9.1326965"><ele>140.0</ele><time>2026-04-05T07:43:11.367Z</time></trkpt><trkpt lat="45.521582" lon="9.1324296"><ele>140.0</ele><time>2026-04-05T07:43:12.367Z</time></trkpt><trkpt lat="45.5214522" lon="9.1321607"><ele>140.0</ele><time>2026-04-05T07:43:13.367Z</time></trkpt><trkpt lat="45.5213206" lon="9.1318918"><ele>140.0</ele><time>2026-04-05T07:43:14.367Z</time></trkpt><trkpt lat="45.5211981" lon="9.1316311"><ele>140.66666666666666</ele><time>2026-04-05T07:43:15.367Z</time></trkpt><trkpt lat="45.5210784" lon="9.1313814"><ele>141.33333333333334</ele><time>2026-04-05T07:43:16.367Z</time></trkpt><trkpt lat="45.5209565" lon="9.1311319"><ele>142.0</ele><time>2026-04-05T07:43:17.367Z</time></trkpt><trkpt lat="45.5208357" lon="9.1308731"><ele>141.5</ele><time>2026-04-05T07:43:18.367Z</time></trkpt><trkpt lat="45.5207068" lon="9.1306047"><ele>141.0</ele><time>2026-04-05T07:43:19.367Z</time></trkpt><trkpt lat="45.5205686" lon="9.1303211"><ele>141.0</ele><time>2026-04-05T07:43:20.367Z</time></trkpt><trkpt lat="45.5204301" lon="9.1300314"><ele>141.0</ele><time>2026-04-05T07:43:21.367Z</time></trkpt><trkpt lat="45.5202968" lon="9.1297583"><ele>140.5</ele><time>2026-04-05T07:43:22.367Z</time></trkpt><trkpt lat="45.5201651" lon="9.1294912"><ele>140.0</ele><time>2026-04-05T07:43:23.367Z</time></trkpt><trkpt lat="45.5200348" lon="9.1292192"><ele>139.5</ele><time>2026-04-05T07:43:24.367Z</time></trkpt><trkpt lat="45.5198973" lon="9.1289431"><ele>139.0</ele><time>2026-04-05T07:43:25.367Z</time></trkpt><trkpt lat="45.5197561" lon="9.1286586"><ele>139.0</ele><time>2026-04-05T07:43:26.367Z</time></trkpt><trkpt lat="45.519615" lon="9.128371"><ele>139.0</ele><time>2026-04-05T07:43:27.367Z</time></trkpt><trkpt lat="45.5194753" lon="9.1280815"><ele>140.0</ele><time>2026-04-05T07:43:28.367Z</time></trkpt><trkpt lat="45.51934" lon="9.1277974"><ele>141.0</ele><time>2026-04-05T07:43:29.367Z</time></trkpt><trkpt lat="45.5192094" lon="9.1275168"><ele>141.5</ele><time>2026-04-05T07:43:30.367Z</time></trkpt><trkpt lat="45.5190835" lon="9.1272409"><ele>142.0</ele><time>2026-04-05T07:43:31.367Z</time></trkpt><trkpt lat="45.5189514" lon="9.1269722"><ele>142.0</ele><time>2026-04-05T07:43:32.367Z</time></trkpt><trkpt lat="45.5188197" lon="9.126717"><ele>142.0</ele><time>2026-04-05T07:43:33.367Z</time></trkpt><trkpt lat="45.5186845" lon="9.1264712"><ele>142.0</ele><time>2026-04-05T07:43:34.367Z</time></trkpt><trkpt lat="45.518548" lon="9.1262399"><ele>142.0</ele><time>2026-04-05T07:43:35.367Z</time></trkpt><trkpt lat="45.5184086" lon="9.1260155"><ele>142.0</ele><time>2026-04-05T07:43:36.367Z</time></trkpt><trkpt lat="45.5182669" lon="9.1257946"><ele>142.0</ele><time>2026-04-05T07:43:37.367Z</time></trkpt><trkpt lat="45.5181256" lon="9.1255726"><ele>142.0</ele><time>2026-04-05T07:43:38.367Z</time></trkpt><trkpt lat="45.517983" lon="9.125357"><ele>142.0</ele><time>2026-04-05T07:43:39.367Z</time></trkpt><trkpt lat="45.5178321" lon="9.1251387"><ele>142.0</ele><time>2026-04-05T07:43:40.367Z</time></trkpt><trkpt lat="45.517681" lon="9.1249166"><ele>141.0</ele><time>2026-04-05T07:43:41.367Z</time></trkpt><trkpt lat="45.5175254" lon="9.1246918"><ele>140.0</ele><time>2026-04-05T07:43:42.367Z</time></trkpt><trkpt lat="45.5173775" lon="9.1244643"><ele>139.0</ele><time>2026-04-05T07:43:43.367Z</time></trkpt><trkpt lat="45.5172274" lon="9.1242387"><ele>138.5</ele><time>2026-04-05T07:43:44.367Z</time></trkpt><trkpt lat="45.517075" lon="9.124007"><ele>138.0</ele><time>2026-04-05T07:43:45.367Z</time></trkpt><trkpt lat="45.5169249" lon="9.1237641"><ele>138.0</ele><time>2026-04-05T07:43:46.367Z</time></trkpt><trkpt lat="45.5167816" lon="9.1235229"><ele>138.0</ele><time>2026-04-05T07:43:47.367Z</time></trkpt><trkpt lat="45.5166468" lon="9.1232721"><ele>138.0</ele><time>2026-04-05T07:43:48.367Z</time></trkpt><trkpt lat="45.5165303" lon="9.1230352"><ele>138.33333333333334</ele><time>2026-04-05T07:43:49.367Z</time></trkpt><trkpt lat="45.5164097" lon="9.1227923"><ele>138.66666666666669</ele><time>2026-04-05T07:43:50.367Z</time></trkpt><trkpt lat="45.5162995" lon="9.1225552"><ele>139.0</ele><time>2026-04-05T07:43:51.367Z</time></trkpt><trkpt lat="45.5161932" lon="9.1223099"><ele>139.0</ele><time>2026-04-05T07:43:52.367Z</time></trkpt><trkpt lat="45.5160997" lon="9.1220634"><ele>139.0</ele><time>2026-04-05T07:43:53.367Z</time></trkpt><trkpt lat="45.5160092" lon="9.1218046"><ele>139.0</ele><time>2026-04-05T07:43:54.367Z</time></trkpt><trkpt lat="45.5159211" lon="9.1215315"><ele>139.33333333333334</ele><time>2026-04-05T07:43:55.367Z</time></trkpt><trkpt lat="45.5158424" lon="9.121241"><ele>139.66666666666666</ele><time>2026-04-05T07:43:56.367Z</time></trkpt><trkpt lat="45.5157737" lon="9.1209326"><ele>140.0</ele><time>2026-04-05T07:43:57.367Z</time></trkpt><trkpt lat="45.5157129" lon="9.1206103"><ele>140.0</ele><time>2026-04-05T07:43:58.367Z</time></trkpt><trkpt lat="45.5156734" lon="9.1202652"><ele>140.0</ele><time>2026-04-05T07:43:59.367Z</time></trkpt><trkpt lat="45.5156425" lon="9.1199059"><ele>140.0</ele><time>2026-04-05T07:44:00.367Z</time></trkpt><trkpt lat="45.5156243" lon="9.1195674"><ele>140.0</ele><time>2026-04-05T07:44:01.367Z</time></trkpt><trkpt lat="45.5156176" lon="9.1192371"><ele>139.0</ele><time>2026-04-05T07:44:02.367Z</time></trkpt><trkpt lat="45.5156061" lon="9.1189166"><ele>138.0</ele><time>2026-04-05T07:44:03.367Z</time></trkpt><trkpt lat="45.5155888" lon="9.1186127"><ele>137.0</ele><time>2026-04-05T07:44:04.367Z</time></trkpt><trkpt lat="45.5155704" lon="9.1183238"><ele>136.0</ele><time>2026-04-05T07:44:05.367Z</time></trkpt><trkpt lat="45.5155594" lon="9.1180359"><ele>135.0</ele><time>2026-04-05T07:44:06.367Z</time></trkpt><trkpt lat="45.5155466" lon="9.1177483"><ele>134.0</ele><time>2026-04-05T07:44:07.367Z</time></trkpt><trkpt lat="45.5155324" lon="9.1174637"><ele>134.66666666666666</ele><time>2026-04-05T07:44:08.367Z</time></trkpt><trkpt lat="45.51552" lon="9.1171799"><ele>135.33333333333334</ele><time>2026-04-05T07:44:09.367Z</time></trkpt><trkpt lat="45.5155084" lon="9.1168881"><ele>136.0</ele><time>2026-04-05T07:44:10.367Z</time></trkpt><trkpt lat="45.5154964" lon="9.1165923"><ele>136.0</ele><time>2026-04-05T07:44:11.367Z</time></trkpt><trkpt lat="45.515483" lon="9.1162852"><ele>136.0</ele><time>2026-04-05T07:44:12.367Z</time></trkpt><trkpt lat="45.5154672" lon="9.1159778"><ele>136.0</ele><time>2026-04-05T07:44:13.367Z</time></trkpt><trkpt lat="45.5154577" lon="9.1156645"><ele>135.5</ele><time>2026-04-05T07:44:14.367Z</time></trkpt><trkpt lat="45.5154435" lon="9.1153449"><ele>135.0</ele><time>2026-04-05T07:44:15.367Z</time></trkpt><trkpt lat="45.51543" lon="9.1150118"><ele>135.0</ele><time>2026-04-05T07:44:16.367Z</time></trkpt><trkpt lat="45.5154162" lon="9.114677"><ele>135.0</ele><time>2026-04-05T07:44:17.367Z</time></trkpt><trkpt lat="45.5153996" lon="9.1143338"><ele>136.0</ele><time>2026-04-05T07:44:18.367Z</time></trkpt><trkpt lat="45.5153852" lon="9.1139896"><ele>137.0</ele><time>2026-04-05T07:44:19.367Z</time></trkpt><trkpt lat="45.5153699" lon="9.1136401"><ele>137.0</ele><time>2026-04-05T07:44:20.367Z</time></trkpt><trkpt lat="45.5153561" lon="9.1132842"><ele>137.0</ele><time>2026-04-05T07:44:21.367Z</time></trkpt><trkpt lat="45.5153454" lon="9.1129206"><ele>137.0</ele><time>2026-04-05T07:44:22.367Z</time></trkpt><trkpt lat="45.5153308" lon="9.1125731"><ele>137.0</ele><time>2026-04-05T07:44:23.367Z</time></trkpt><trkpt lat="45.5153203" lon="9.1122498"><ele>137.0</ele><time>2026-04-05T07:44:24.367Z</time></trkpt><trkpt lat="45.5153071" lon="9.1118986"><ele>137.0</ele><time>2026-04-05T07:44:25.367Z</time></trkpt><trkpt lat="45.5152903" lon="9.1115538"><ele>139.5</ele><time>2026-04-05T07:44:26.367Z</time></trkpt><trkpt lat="45.515281" lon="9.1112129"><ele>142.0</ele><time>2026-04-05T07:44:27.367Z</time></trkpt><trkpt lat="45.515265" lon="9.1108832"><ele>142.5</ele><time>2026-04-05T07:44:28.367Z</time></trkpt><trkpt lat="45.5152506" lon="9.110553"><ele>143.0</ele><time>2026-04-05T07:44:29.367Z</time></trkpt><trkpt lat="45.5152358" lon="9.110224"><ele>142.33333333333331</ele><time>2026-04-05T07:44:30.367Z</time></trkpt><trkpt lat="45.5152211" lon="9.1099045"><ele>141.66666666666666</ele><time>2026-04-05T07:44:31.367Z</time></trkpt><trkpt lat="45.5152047" lon="9.1095882"><ele>141.0</ele><time>2026-04-05T07:44:32.367Z</time></trkpt><trkpt lat="45.5151918" lon="9.1092788"><ele>141.33333333333334</ele><time>2026-04-05T07:44:33.367Z</time></trkpt><trkpt lat="45.5151807" lon="9.1089697"><ele>141.66666666666669</ele><time>2026-04-05T07:44:34.367Z</time></trkpt><trkpt lat="45.515166" lon="9.1086609"><ele>142.0</ele><time>2026-04-05T07:44:35.367Z</time></trkpt><trkpt lat="45.5151549" lon="9.1083546"><ele>142.0</ele><time>2026-04-05T07:44:36.367Z</time></trkpt><trkpt lat="45.5151416" lon="9.1080445"><ele>142.0</ele><time>2026-04-05T07:44:37.367Z</time></trkpt><trkpt lat="45.515126" lon="9.1077316"><ele>142.0</ele><time>2026-04-05T07:44:38.367Z</time></trkpt><trkpt lat="45.5151128" lon="9.1074148"><ele>142.33333333333334</ele><time>2026-04-05T07:44:39.367Z</time></trkpt><trkpt lat="45.5150985" lon="9.1070981"><ele>142.66666666666666</ele><time>2026-04-05T07:44:40.367Z</time></trkpt><trkpt lat="45.5150852" lon="9.106785"><ele>143.0</ele><time>2026-04-05T07:44:41.367Z</time></trkpt><trkpt lat="45.5150751" lon="9.1064716"><ele>142.33333333333331</ele><time>2026-04-05T07:44:42.367Z</time></trkpt><trkpt lat="45.5150625" lon="9.1061553"><ele>141.66666666666666</ele><time>2026-04-05T07:44:43.367Z</time></trkpt><trkpt lat="45.5150484" lon="9.1058373"><ele>141.0</ele><time>2026-04-05T07:44:44.367Z</time></trkpt><trkpt lat="45.5150324" lon="9.1055203"><ele>141.0</ele><time>2026-04-05T07:44:45.367Z</time></trkpt><trkpt lat="45.5150147" lon="9.1052007"><ele>141.0</ele><time>2026-04-05T07:44:46.367Z</time></trkpt><trkpt lat="45.5149975" lon="9.1048732"><ele>141.5</ele><time>2026-04-05T07:44:47.367Z</time></trkpt><trkpt lat="45.5149822" lon="9.1045479"><ele>142.0</ele><time>2026-04-05T07:44:48.367Z</time></trkpt><trkpt lat="45.5149686" lon="9.1042251"><ele>142.66666666666669</ele><time>2026-04-05T07:44:49.367Z</time></trkpt><trkpt lat="45.5149562" lon="9.1039043"><ele>143.33333333333334</ele><time>2026-04-05T07:44:50.367Z</time></trkpt><trkpt lat="45.5149414" lon="9.1035851"><ele>144.0</ele><time>2026-04-05T07:44:51.367Z</time></trkpt><trkpt lat="45.5149279" lon="9.1032709"><ele>143.66666666666666</ele><time>2026-04-05T07:44:52.367Z</time></trkpt><trkpt lat="45.5149137" lon="9.1029685"><ele>143.33333333333331</ele><time>2026-04-05T07:44:53.367Z</time></trkpt><trkpt lat="45.5149048" lon="9.1026719"><ele>143.0</ele><time>2026-04-05T07:44:54.367Z</time></trkpt><trkpt lat="45.5148942" lon="9.1023869"><ele>142.66666666666666</ele><time>2026-04-05T07:44:55.367Z</time></trkpt><trkpt lat="45.5148816" lon="9.1021049"><ele>142.33333333333334</ele><time>2026-04-05T07:44:56.367Z</time></trkpt><trkpt lat="45.5148726" lon="9.1018195"><ele>142.0</ele><time>2026-04-05T07:44:57.367Z</time></trkpt><trkpt lat="45.5148611" lon="9.1015326"><ele>142.0</ele><time>2026-04-05T07:44:58.367Z</time></trkpt><trkpt lat="45.5148496" lon="9.1012419"><ele>142.0</ele><time>2026-04-05T07:44:59.367Z</time></trkpt><trkpt lat="45.5148354" lon="9.1009501"><ele>142.0</ele><time>2026-04-05T07:45:00.367Z</time></trkpt><trkpt lat="45.514824" lon="9.1006563"><ele>142.0</ele><time>2026-04-05T07:45:01.367Z</time></trkpt><trkpt lat="45.5148093" lon="9.1003603"><ele>142.0</ele><time>2026-04-05T07:45:02.367Z</time></trkpt><trkpt lat="45.5147955" lon="9.1000603"><ele>142.0</ele><time>2026-04-05T07:45:03.367Z</time></trkpt><trkpt lat="45.5147838" lon="9.099761"><ele>142.33333333333334</ele><time>2026-04-05T07:45:04.367Z</time></trkpt><trkpt lat="45.5147706" lon="9.0994596"><ele>142.66666666666666</ele><time>2026-04-05T07:45:05.367Z</time></trkpt><trkpt lat="45.5147585" lon="9.099157"><ele>143.0</ele><time>2026-04-05T07:45:06.367Z</time></trkpt><trkpt lat="45.5147472" lon="9.098852"><ele>143.0</ele><time>2026-04-05T07:45:07.367Z</time></trkpt><trkpt lat="45.5147342" lon="9.0985378"><ele>143.0</ele><time>2026-04-05T07:45:08.367Z</time></trkpt><trkpt lat="45.5147166" lon="9.0982181"><ele>143.0</ele><time>2026-04-05T07:45:09.367Z</time></trkpt><trkpt lat="45.5147043" lon="9.0978898"><ele>142.5</ele><time>2026-04-05T07:45:10.367Z</time></trkpt><trkpt lat="45.5146905" lon="9.0975598"><ele>142.0</ele><time>2026-04-05T07:45:11.367Z</time></trkpt><trkpt lat="45.5146757" lon="9.0972213"><ele>142.0</ele><time>2026-04-05T07:45:12.367Z</time></trkpt><trkpt lat="45.5146606" lon="9.0968797"><ele>142.0</ele><time>2026-04-05T07:45:13.367Z</time></trkpt><trkpt lat="45.5146429" lon="9.0965358"><ele>142.0</ele><time>2026-04-05T07:45:14.367Z</time></trkpt><trkpt lat="45.5146227" lon="9.0961902"><ele>142.0</ele><time>2026-04-05T07:45:15.367Z</time></trkpt><trkpt lat="45.5146039" lon="9.0958433"><ele>142.5</ele><time>2026-04-05T07:45:16.367Z</time></trkpt><trkpt lat="45.5145873" lon="9.0954974"><ele>143.0</ele><time>2026-04-05T07:45:17.367Z</time></trkpt><trkpt lat="45.5145733" lon="9.0951512"><ele>143.0</ele><time>2026-04-05T07:45:18.367Z</time></trkpt><trkpt lat="45.5145576" lon="9.0948041"><ele>143.0</ele><time>2026-04-05T07:45:19.367Z</time></trkpt><trkpt lat="45.5145453" lon="9.0944587"><ele>143.0</ele><time>2026-04-05T07:45:20.367Z</time></trkpt><trkpt lat="45.5145309" lon="9.094116"><ele>143.0</ele><time>2026-04-05T07:45:21.367Z</time></trkpt><trkpt lat="45.5145165" lon="9.0937778"><ele>143.0</ele><time>2026-04-05T07:45:22.367Z</time></trkpt><trkpt lat="45.5145032" lon="9.093432"><ele>143.0</ele><time>2026-04-05T07:45:23.367Z</time></trkpt><trkpt lat="45.5144892" lon="9.0930937"><ele>143.0</ele><time>2026-04-05T07:45:24.367Z</time></trkpt><trkpt lat="45.5144762" lon="9.0927534"><ele>143.0</ele><time>2026-04-05T07:45:25.367Z</time></trkpt><trkpt lat="45.5144588" lon="9.0924179"><ele>142.5</ele><time>2026-04-05T07:45:26.367Z</time></trkpt><trkpt lat="45.5144434" lon="9.0920856"><ele>142.0</ele><time>2026-04-05T07:45:27.367Z</time></trkpt><trkpt lat="45.51443" lon="9.091753"><ele>141.5</ele><time>2026-04-05T07:45:28.367Z</time></trkpt><trkpt lat="45.514416" lon="9.0914204"><ele>141.0</ele><time>2026-04-05T07:45:29.367Z</time></trkpt><trkpt lat="45.514402" lon="9.0910898"><ele>140.5</ele><time>2026-04-05T07:45:30.367Z</time></trkpt><trkpt lat="45.5143865" lon="9.0907529"><ele>140.0</ele><time>2026-04-05T07:45:31.367Z</time></trkpt><trkpt lat="45.5143742" lon="9.0904125"><ele>140.0</ele><time>2026-04-05T07:45:32.367Z</time></trkpt><trkpt lat="45.5143586" lon="9.0900613"><ele>140.0</ele><time>2026-04-05T07:45:33.367Z</time></trkpt><trkpt lat="45.5143336" lon="9.0896903"><ele>140.5</ele><time>2026-04-05T07:45:34.367Z</time></trkpt><trkpt lat="45.5143116" lon="9.0892982"><ele>141.0</ele><time>2026-04-05T07:45:35.367Z</time></trkpt><trkpt lat="45.5142995" lon="9.0888914"><ele>141.5</ele><time>2026-04-05T07:45:36.367Z</time></trkpt><trkpt lat="45.5142844" lon="9.088487"><ele>142.0</ele><time>2026-04-05T07:45:37.367Z</time></trkpt><trkpt lat="45.5142665" lon="9.0881002"><ele>143.0</ele><time>2026-04-05T07:45:38.367Z</time></trkpt><trkpt lat="45.5142485" lon="9.0877266"><ele>144.0</ele><time>2026-04-05T07:45:39.367Z</time></trkpt><trkpt lat="45.5142316" lon="9.0873585"><ele>144.5</ele><time>2026-04-05T07:45:40.367Z</time></trkpt><trkpt lat="45.5142161" lon="9.0869928"><ele>145.0</ele><time>2026-04-05T07:45:41.367Z</time></trkpt><trkpt lat="45.5142007" lon="9.0866305"><ele>144.5</ele><time>2026-04-05T07:45:42.371Z</time></trkpt><trkpt lat="45.514182" lon="9.0862637"><ele>144.0</ele><time>2026-04-05T07:45:43.371Z</time></trkpt><trkpt lat="45.5141683" lon="9.0858972"><ele>143.5</ele><time>2026-04-05T07:45:44.371Z</time></trkpt><trkpt lat="45.514147" lon="9.0855278"><ele>143.0</ele><time>2026-04-05T07:45:45.371Z</time></trkpt><trkpt lat="45.5141288" lon="9.085161"><ele>142.5</ele><time>2026-04-05T07:45:46.371Z</time></trkpt><trkpt lat="45.5141085" lon="9.0847853"><ele>142.0</ele><time>2026-04-05T07:45:47.371Z</time></trkpt><trkpt lat="45.5140874" lon="9.0844073"><ele>142.5</ele><time>2026-04-05T07:45:48.371Z</time></trkpt><trkpt lat="45.514069" lon="9.0840241"><ele>143.0</ele><time>2026-04-05T07:45:49.371Z</time></trkpt><trkpt lat="45.5140521" lon="9.0836355"><ele>143.5</ele><time>2026-04-05T07:45:50.371Z</time></trkpt><trkpt lat="45.5140325" lon="9.0832423"><ele>144.0</ele><time>2026-04-05T07:45:51.371Z</time></trkpt><trkpt lat="45.5140156" lon="9.0828535"><ele>144.0</ele><time>2026-04-05T07:45:52.371Z</time></trkpt><trkpt lat="45.513997" lon="9.0824683"><ele>144.0</ele><time>2026-04-05T07:45:53.371Z</time></trkpt><trkpt lat="45.5139795" lon="9.0820829"><ele>143.5</ele><time>2026-04-05T07:45:54.371Z</time></trkpt><trkpt lat="45.5139588" lon="9.0817001"><ele>143.0</ele><time>2026-04-05T07:45:55.371Z</time></trkpt><trkpt lat="45.5139374" lon="9.0813224"><ele>143.0</ele><time>2026-04-05T07:45:56.371Z</time></trkpt><trkpt lat="45.5139165" lon="9.0809499"><ele>143.0</ele><time>2026-04-05T07:45:57.371Z</time></trkpt><trkpt lat="45.5139009" lon="9.0805773"><ele>143.5</ele><time>2026-04-05T07:45:58.371Z</time></trkpt><trkpt lat="45.5138827" lon="9.0802088"><ele>144.0</ele><time>2026-04-05T07:45:59.371Z</time></trkpt><trkpt lat="45.5138669" lon="9.0798425"><ele>145.0</ele><time>2026-04-05T07:46:00.371Z</time></trkpt><trkpt lat="45.5138489" lon="9.0794755"><ele>146.0</ele><time>2026-04-05T07:46:01.371Z</time></trkpt><trkpt lat="45.5138259" lon="9.0791134"><ele>146.0</ele><time>2026-04-05T07:46:02.371Z</time></trkpt><trkpt lat="45.5138074" lon="9.0787573"><ele>146.0</ele><time>2026-04-05T07:46:03.371Z</time></trkpt><trkpt lat="45.5137882" lon="9.0783827"><ele>146.0</ele><time>2026-04-05T07:46:04.371Z</time></trkpt><trkpt lat="45.5137683" lon="9.0780119"><ele>146.0</ele><time>2026-04-05T07:46:05.371Z</time></trkpt><trkpt lat="45.5137433" lon="9.0776294"><ele>145.5</ele><time>2026-04-05T07:46:06.371Z</time></trkpt><trkpt lat="45.5137233" lon="9.0772449"><ele>145.0</ele><time>2026-04-05T07:46:07.371Z</time></trkpt><trkpt lat="45.5137097" lon="9.0768484"><ele>144.5</ele><time>2026-04-05T07:46:08.371Z</time></trkpt><trkpt lat="45.5136864" lon="9.0764464"><ele>144.0</ele><time>2026-04-05T07:46:09.371Z</time></trkpt><trkpt lat="45.5136662" lon="9.0760315"><ele>143.5</ele><time>2026-04-05T07:46:10.371Z</time></trkpt><trkpt lat="45.5136484" lon="9.0756232"><ele>143.0</ele><time>2026-04-05T07:46:11.371Z</time></trkpt><trkpt lat="45.5136258" lon="9.0752218"><ele>143.5</ele><time>2026-04-05T07:46:12.371Z</time></trkpt><trkpt lat="45.5135985" lon="9.0748359"><ele>144.0</ele><time>2026-04-05T07:46:13.371Z</time></trkpt><trkpt lat="45.5135777" lon="9.0744614"><ele>143.5</ele><time>2026-04-05T07:46:14.371Z</time></trkpt><trkpt lat="45.5135573" lon="9.0740882"><ele>143.0</ele><time>2026-04-05T07:46:15.371Z</time></trkpt><trkpt lat="45.5135333" lon="9.0737203"><ele>143.0</ele><time>2026-04-05T07:46:16.371Z</time></trkpt><trkpt lat="45.513512" lon="9.0733518"><ele>143.0</ele><time>2026-04-05T07:46:17.371Z</time></trkpt><trkpt lat="45.5134769" lon="9.0729714"><ele>143.0</ele><time>2026-04-05T07:46:18.371Z</time></trkpt><trkpt lat="45.5134539" lon="9.0725967"><ele>143.0</ele><time>2026-04-05T07:46:19.371Z</time></trkpt><trkpt lat="45.5134264" lon="9.0722065"><ele>143.0</ele><time>2026-04-05T07:46:20.371Z</time></trkpt><trkpt lat="45.513398" lon="9.0718185"><ele>143.0</ele><time>2026-04-05T07:46:21.371Z</time></trkpt><trkpt lat="45.5133622" lon="9.0714308"><ele>143.0</ele><time>2026-04-05T07:46:22.371Z</time></trkpt><trkpt lat="45.5133323" lon="9.0710447"><ele>143.0</ele><time>2026-04-05T07:46:23.371Z</time></trkpt><trkpt lat="45.513299" lon="9.0706539"><ele>143.0</ele><time>2026-04-05T07:46:24.371Z</time></trkpt><trkpt lat="45.513263" lon="9.0702627"><ele>143.0</ele><time>2026-04-05T07:46:25.371Z</time></trkpt><trkpt lat="45.5132244" lon="9.0698735"><ele>143.5</ele><time>2026-04-05T07:46:26.371Z</time></trkpt><trkpt lat="45.5131872" lon="9.069481"><ele>144.0</ele><time>2026-04-05T07:46:27.371Z</time></trkpt><trkpt lat="45.5131551" lon="9.0690902"><ele>144.0</ele><time>2026-04-05T07:46:28.371Z</time></trkpt><trkpt lat="45.5131216" lon="9.0687164"><ele>144.0</ele><time>2026-04-05T07:46:29.371Z</time></trkpt><trkpt lat="45.5130869" lon="9.0683637"><ele>144.5</ele><time>2026-04-05T07:46:30.371Z</time></trkpt><trkpt lat="45.5130529" lon="9.0680129"><ele>145.0</ele><time>2026-04-05T07:46:31.371Z</time></trkpt><trkpt lat="45.5130187" lon="9.0676691"><ele>145.0</ele><time>2026-04-05T07:46:32.371Z</time></trkpt><trkpt lat="45.5129872" lon="9.0673279"><ele>145.0</ele><time>2026-04-05T07:46:33.371Z</time></trkpt><trkpt lat="45.5129541" lon="9.0669928"><ele>145.0</ele><time>2026-04-05T07:46:34.371Z</time></trkpt><trkpt lat="45.5129213" lon="9.0666572"><ele>145.0</ele><time>2026-04-05T07:46:35.372Z</time></trkpt><trkpt lat="45.5128878" lon="9.0663273"><ele>144.5</ele><time>2026-04-05T07:46:36.371Z</time></trkpt><trkpt lat="45.5128526" lon="9.0660089"><ele>144.0</ele><time>2026-04-05T07:46:37.371Z</time></trkpt><trkpt lat="45.5128182" lon="9.0656891"><ele>145.0</ele><time>2026-04-05T07:46:38.371Z</time></trkpt><trkpt lat="45.5127884" lon="9.0653871"><ele>146.0</ele><time>2026-04-05T07:46:39.371Z</time></trkpt><trkpt lat="45.5127611" lon="9.0651005"><ele>147.0</ele><time>2026-04-05T07:46:40.371Z</time></trkpt><trkpt lat="45.5127339" lon="9.0648229"><ele>147.0</ele><time>2026-04-05T07:46:41.371Z</time></trkpt><trkpt lat="45.5127036" lon="9.0645565"><ele>147.0</ele><time>2026-04-05T07:46:42.371Z</time></trkpt><trkpt lat="45.5126756" lon="9.0642987"><ele>147.0</ele><time>2026-04-05T07:46:43.371Z</time></trkpt><trkpt lat="45.512648" lon="9.0640592"><ele>147.0</ele><time>2026-04-05T07:46:44.371Z</time></trkpt><trkpt lat="45.5126245" lon="9.0638254"><ele>147.0</ele><time>2026-04-05T07:46:45.371Z</time></trkpt><trkpt lat="45.5126014" lon="9.0635882"><ele>147.0</ele><time>2026-04-05T07:46:46.371Z</time></trkpt><trkpt lat="45.5125793" lon="9.0633835"><ele>147.0</ele><time>2026-04-05T07:46:47.371Z</time></trkpt><trkpt lat="45.5125669" lon="9.0631775"><ele>147.0</ele><time>2026-04-05T07:46:48.371Z</time></trkpt><trkpt lat="45.5125559" lon="9.0629954"><ele>147.0</ele><time>2026-04-05T07:46:49.371Z</time></trkpt><trkpt lat="45.512554" lon="9.0628136"><ele>147.0</ele><time>2026-04-05T07:46:50.371Z</time></trkpt><trkpt lat="45.512558" lon="9.0626435"><ele>147.0</ele><time>2026-04-05T07:46:51.371Z</time></trkpt><trkpt lat="45.5125677" lon="9.0624825"><ele>147.0</ele><time>2026-04-05T07:46:52.371Z</time></trkpt><trkpt lat="45.5125846" lon="9.0623203"><ele>147.0</ele><time>2026-04-05T07:46:53.371Z</time></trkpt><trkpt lat="45.5126038" lon="9.0621685"><ele>147.0</ele><time>2026-04-05T07:46:54.371Z</time></trkpt><trkpt lat="45.5126241" lon="9.0620172"><ele>147.0</ele><time>2026-04-05T07:46:55.371Z</time></trkpt><trkpt lat="45.5126421" lon="9.0618714"><ele>146.5</ele><time>2026-04-05T07:46:56.371Z</time></trkpt><trkpt lat="45.5126581" lon="9.0617297"><ele>146.0</ele><time>2026-04-05T07:46:57.371Z</time></trkpt><trkpt lat="45.5126695" lon="9.0615938"><ele>145.5</ele><time>2026-04-05T07:46:58.371Z</time></trkpt><trkpt lat="45.512674" lon="9.0614811"><ele>145.0</ele><time>2026-04-05T07:46:59.371Z</time></trkpt><trkpt lat="45.5126701" lon="9.0613842"><ele>144.5</ele><time>2026-04-05T07:47:00.371Z</time></trkpt><trkpt lat="45.5126597" lon="9.0612496"><ele>144.0</ele><time>2026-04-05T07:47:02.371Z</time></trkpt><trkpt lat="45.5126527" lon="9.0611563"><ele>144.0</ele><time>2026-04-05T07:47:04.371Z</time></trkpt><trkpt lat="45.5126366" lon="9.0610275"><ele>144.0</ele><time>2026-04-05T07:47:06.371Z</time></trkpt><trkpt lat="45.5126185" lon="9.0609274"><ele>144.0</ele><time>2026-04-05T07:47:09.371Z</time></trkpt><trkpt lat="45.5125998" lon="9.0608348"><ele>144.0</ele><time>2026-04-05T07:47:26.371Z</time></trkpt><trkpt lat="45.5125794" lon="9.0606862"><ele>144.0</ele><time>2026-04-05T07:47:28.371Z</time></trkpt><trkpt lat="45.5125557" lon="9.0605911"><ele>144.0</ele><time>2026-04-05T07:47:29.371Z</time></trkpt><trkpt lat="45.5125289" lon="9.0604961"><ele>144.16666666666666</ele><time>2026-04-05T07:47:30.371Z</time></trkpt><trkpt lat="45.5125086" lon="9.0604026"><ele>144.33333333333334</ele><time>2026-04-05T07:47:31.371Z</time></trkpt><trkpt lat="45.5124861" lon="9.0603062"><ele>144.5</ele><time>2026-04-05T07:47:32.371Z</time></trkpt><trkpt lat="45.5124617" lon="9.0602037"><ele>144.66666666666669</ele><time>2026-04-05T07:47:33.371Z</time></trkpt><trkpt lat="45.5124396" lon="9.0600985"><ele>144.83333333333334</ele><time>2026-04-05T07:47:34.371Z</time></trkpt><trkpt lat="45.5124126" lon="9.0599958"><ele>145.0</ele><time>2026-04-05T07:47:35.371Z</time></trkpt><trkpt lat="45.5123906" lon="9.0598841"><ele>145.0</ele><time>2026-04-05T07:47:36.371Z</time></trkpt><trkpt lat="45.5123704" lon="9.0597647"><ele>145.0</ele><time>2026-04-05T07:47:37.371Z</time></trkpt><trkpt lat="45.5123494" lon="9.0596495"><ele>145.0</ele><time>2026-04-05T07:47:38.371Z</time></trkpt><trkpt lat="45.5123266" lon="9.0595252"><ele>145.0</ele><time>2026-04-05T07:47:39.371Z</time></trkpt><trkpt lat="45.5123075" lon="9.0593788"><ele>145.0</ele><time>2026-04-05T07:47:40.371Z</time></trkpt><trkpt lat="45.5122856" lon="9.0592096"><ele>145.25</ele><time>2026-04-05T07:47:41.371Z</time></trkpt><trkpt lat="45.5122612" lon="9.05904"><ele>145.5</ele><time>2026-04-05T07:47:42.371Z</time></trkpt><trkpt lat="45.5122278" lon="9.0588795"><ele>145.75</ele><time>2026-04-05T07:47:43.371Z</time></trkpt><trkpt lat="45.5121967" lon="9.0587296"><ele>146.0</ele><time>2026-04-05T07:47:44.371Z</time></trkpt><trkpt lat="45.5121665" lon="9.0585825"><ele>146.0</ele><time>2026-04-05T07:47:45.371Z</time></trkpt><trkpt lat="45.5121346" lon="9.0584379"><ele>146.0</ele><time>2026-04-05T07:47:46.371Z</time></trkpt><trkpt lat="45.512108" lon="9.0582941"><ele>146.0</ele><time>2026-04-05T07:47:47.371Z</time></trkpt><trkpt lat="45.5120895" lon="9.0581501"><ele>146.0</ele><time>2026-04-05T07:47:48.371Z</time></trkpt><trkpt lat="45.5120697" lon="9.0580094"><ele>146.0</ele><time>2026-04-05T07:47:49.371Z</time></trkpt><trkpt lat="45.5120548" lon="9.0578643"><ele>146.0</ele><time>2026-04-05T07:47:50.371Z</time></trkpt><trkpt lat="45.5120386" lon="9.0577224"><ele>146.0</ele><time>2026-04-05T07:47:51.371Z</time></trkpt><trkpt lat="45.5120222" lon="9.0575789"><ele>146.0</ele><time>2026-04-05T07:47:52.371Z</time></trkpt><trkpt lat="45.5120074" lon="9.057434"><ele>146.0</ele><time>2026-04-05T07:47:53.371Z</time></trkpt><trkpt lat="45.5119949" lon="9.0572872"><ele>146.0</ele><time>2026-04-05T07:47:54.371Z</time></trkpt><trkpt lat="45.5119833" lon="9.0571362"><ele>145.5</ele><time>2026-04-05T07:47:55.371Z</time></trkpt><trkpt lat="45.5119601" lon="9.0569722"><ele>145.0</ele><time>2026-04-05T07:47:56.371Z</time></trkpt><trkpt lat="45.5119435" lon="9.0568137"><ele>144.5</ele><time>2026-04-05T07:47:57.371Z</time></trkpt><trkpt lat="45.5119213" lon="9.0566457"><ele>144.0</ele><time>2026-04-05T07:47:58.371Z</time></trkpt><trkpt lat="45.5119041" lon="9.05647"><ele>143.75</ele><time>2026-04-05T07:47:59.371Z</time></trkpt><trkpt lat="45.5118851" lon="9.056295"><ele>143.5</ele><time>2026-04-05T07:48:00.371Z</time></trkpt><trkpt lat="45.5118614" lon="9.0561204"><ele>143.25</ele><time>2026-04-05T07:48:01.371Z</time></trkpt><trkpt lat="45.5118431" lon="9.055939"><ele>143.0</ele><time>2026-04-05T07:48:02.371Z</time></trkpt><trkpt lat="45.5118249" lon="9.0557529"><ele>143.25</ele><time>2026-04-05T07:48:03.371Z</time></trkpt><trkpt lat="45.5118058" lon="9.0555561"><ele>143.5</ele><time>2026-04-05T07:48:04.371Z</time></trkpt><trkpt lat="45.5117831" lon="9.0553477"><ele>143.75</ele><time>2026-04-05T07:48:05.371Z</time></trkpt><trkpt lat="45.511762" lon="9.0551325"><ele>144.0</ele><time>2026-04-05T07:48:06.371Z</time></trkpt><trkpt lat="45.5117363" lon="9.054907"><ele>144.0</ele><time>2026-04-05T07:48:07.371Z</time></trkpt><trkpt lat="45.5117112" lon="9.0546696"><ele>144.0</ele><time>2026-04-05T07:48:08.371Z</time></trkpt><trkpt lat="45.5116825" lon="9.0544058"><ele>144.0</ele><time>2026-04-05T07:48:09.371Z</time></trkpt><trkpt lat="45.5116522" lon="9.054107"><ele>145.0</ele><time>2026-04-05T07:48:10.371Z</time></trkpt><trkpt lat="45.5116144" lon="9.0537715"><ele>146.0</ele><time>2026-04-05T07:48:11.371Z</time></trkpt><trkpt lat="45.5115764" lon="9.0534271"><ele>146.0</ele><time>2026-04-05T07:48:12.371Z</time></trkpt><trkpt lat="45.5115407" lon="9.0530957"><ele>146.0</ele><time>2026-04-05T07:48:13.371Z</time></trkpt><trkpt lat="45.5115044" lon="9.0527557"><ele>145.0</ele><time>2026-04-05T07:48:14.371Z</time></trkpt><trkpt lat="45.5114668" lon="9.0524031"><ele>144.0</ele><time>2026-04-05T07:48:15.371Z</time></trkpt><trkpt lat="45.5114313" lon="9.0520507"><ele>144.0</ele><time>2026-04-05T07:48:16.371Z</time></trkpt><trkpt lat="45.5113966" lon="9.0517073"><ele>144.0</ele><time>2026-04-05T07:48:17.371Z</time></trkpt><trkpt lat="45.51136" lon="9.0513646"><ele>143.5</ele><time>2026-04-05T07:48:18.371Z</time></trkpt><trkpt lat="45.5113237" lon="9.0510141"><ele>143.0</ele><time>2026-04-05T07:48:19.371Z</time></trkpt><trkpt lat="45.5112846" lon="9.0506631"><ele>144.0</ele><time>2026-04-05T07:48:20.371Z</time></trkpt><trkpt lat="45.5112455" lon="9.0503129"><ele>145.0</ele><time>2026-04-05T07:48:21.371Z</time></trkpt><trkpt lat="45.511205" lon="9.049947"><ele>146.0</ele><time>2026-04-05T07:48:22.371Z</time></trkpt><trkpt lat="45.5111603" lon="9.0495624"><ele>147.0</ele><time>2026-04-05T07:48:23.371Z</time></trkpt><trkpt lat="45.5111248" lon="9.0491845"><ele>146.5</ele><time>2026-04-05T07:48:24.371Z</time></trkpt><trkpt lat="45.5110837" lon="9.0488235"><ele>146.0</ele><time>2026-04-05T07:48:25.371Z</time></trkpt><trkpt lat="45.5110481" lon="9.0484742"><ele>146.5</ele><time>2026-04-05T07:48:26.371Z</time></trkpt><trkpt lat="45.5110124" lon="9.0481153"><ele>147.0</ele><time>2026-04-05T07:48:27.371Z</time></trkpt><trkpt lat="45.5109736" lon="9.0477413"><ele>146.5</ele><time>2026-04-05T07:48:28.371Z</time></trkpt><trkpt lat="45.510935" lon="9.0473569"><ele>146.0</ele><time>2026-04-05T07:48:29.371Z</time></trkpt><trkpt lat="45.5108894" lon="9.0469623"><ele>147.5</ele><time>2026-04-05T07:48:30.371Z</time></trkpt><trkpt lat="45.5108444" lon="9.0465609"><ele>149.0</ele><time>2026-04-05T07:48:31.371Z</time></trkpt><trkpt lat="45.5108017" lon="9.0461488"><ele>150.5</ele><time>2026-04-05T07:48:32.371Z</time></trkpt><trkpt lat="45.5107566" lon="9.0457371"><ele>152.0</ele><time>2026-04-05T07:48:33.371Z</time></trkpt><trkpt lat="45.5107154" lon="9.0453263"><ele>149.0</ele><time>2026-04-05T07:48:34.371Z</time></trkpt><trkpt lat="45.5106714" lon="9.0449183"><ele>146.0</ele><time>2026-04-05T07:48:35.371Z</time></trkpt><trkpt lat="45.5106274" lon="9.0445243"><ele>146.0</ele><time>2026-04-05T07:48:36.371Z</time></trkpt><trkpt lat="45.5105807" lon="9.0441329"><ele>146.0</ele><time>2026-04-05T07:48:37.371Z</time></trkpt><trkpt lat="45.5105399" lon="9.0437325"><ele>144.5</ele><time>2026-04-05T07:48:38.371Z</time></trkpt><trkpt lat="45.5104942" lon="9.0433306"><ele>143.0</ele><time>2026-04-05T07:48:39.371Z</time></trkpt><trkpt lat="45.5104481" lon="9.0429244"><ele>144.0</ele><time>2026-04-05T07:48:40.371Z</time></trkpt><trkpt lat="45.5104014" lon="9.042519"><ele>145.0</ele><time>2026-04-05T07:48:41.371Z</time></trkpt><trkpt lat="45.5103586" lon="9.0421075"><ele>145.0</ele><time>2026-04-05T07:48:42.371Z</time></trkpt><trkpt lat="45.5103191" lon="9.0416978"><ele>145.0</ele><time>2026-04-05T07:48:43.371Z</time></trkpt><trkpt lat="45.5102747" lon="9.0412891"><ele>145.0</ele><time>2026-04-05T07:48:44.371Z</time></trkpt><trkpt lat="45.5102293" lon="9.0408875"><ele>145.0</ele><time>2026-04-05T07:48:45.371Z</time></trkpt><trkpt lat="45.5101891" lon="9.0404878"><ele>145.0</ele><time>2026-04-05T07:48:46.371Z</time></trkpt><trkpt lat="45.5101445" lon="9.0400887"><ele>145.0</ele><time>2026-04-05T07:48:47.371Z</time></trkpt><trkpt lat="45.5101003" lon="9.0396895"><ele>145.0</ele><time>2026-04-05T07:48:48.371Z</time></trkpt><trkpt lat="45.5100583" lon="9.0392916"><ele>145.0</ele><time>2026-04-05T07:48:49.371Z</time></trkpt><trkpt lat="45.5100144" lon="9.0388953"><ele>145.0</ele><time>2026-04-05T07:48:50.371Z</time></trkpt><trkpt lat="45.5099752" lon="9.0384889"><ele>145.0</ele><time>2026-04-05T07:48:51.371Z</time></trkpt><trkpt lat="45.5099264" lon="9.0380738"><ele>144.5</ele><time>2026-04-05T07:48:52.371Z</time></trkpt><trkpt lat="45.5098786" lon="9.0376462"><ele>144.0</ele><time>2026-04-05T07:48:53.371Z</time></trkpt><trkpt lat="45.5098315" lon="9.0372134"><ele>144.5</ele><time>2026-04-05T07:48:54.371Z</time></trkpt><trkpt lat="45.5097842" lon="9.0367829"><ele>145.0</ele><time>2026-04-05T07:48:55.371Z</time></trkpt><trkpt lat="45.5097431" lon="9.0363539"><ele>145.0</ele><time>2026-04-05T07:48:56.371Z</time></trkpt><trkpt lat="45.5097012" lon="9.0359319"><ele>145.0</ele><time>2026-04-05T07:48:57.371Z</time></trkpt><trkpt lat="45.5096521" lon="9.0355093"><ele>145.0</ele><time>2026-04-05T07:48:58.371Z</time></trkpt><trkpt lat="45.5096076" lon="9.035089"><ele>145.0</ele><time>2026-04-05T07:48:59.371Z</time></trkpt><trkpt lat="45.509562" lon="9.0346706"><ele>145.0</ele><time>2026-04-05T07:49:00.371Z</time></trkpt><trkpt lat="45.5095144" lon="9.0342541"><ele>145.0</ele><time>2026-04-05T07:49:01.371Z</time></trkpt><trkpt lat="45.5094698" lon="9.0338412"><ele>146.0</ele><time>2026-04-05T07:49:02.371Z</time></trkpt><trkpt lat="45.5094247" lon="9.0334307"><ele>147.0</ele><time>2026-04-05T07:49:03.371Z</time></trkpt><trkpt lat="45.509381" lon="9.0330204"><ele>147.0</ele><time>2026-04-05T07:49:04.371Z</time></trkpt><trkpt lat="45.5093377" lon="9.032613"><ele>147.0</ele><time>2026-04-05T07:49:05.371Z</time></trkpt><trkpt lat="45.5092912" lon="9.0322043"><ele>147.0</ele><time>2026-04-05T07:49:06.371Z</time></trkpt><trkpt lat="45.5092455" lon="9.0317971"><ele>147.0</ele><time>2026-04-05T07:49:07.371Z</time></trkpt><trkpt lat="45.5091991" lon="9.0313936"><ele>147.0</ele><time>2026-04-05T07:49:08.371Z</time></trkpt><trkpt lat="45.5091557" lon="9.030989"><ele>147.0</ele><time>2026-04-05T07:49:09.371Z</time></trkpt><trkpt lat="45.5091141" lon="9.030588"><ele>146.5</ele><time>2026-04-05T07:49:10.371Z</time></trkpt><trkpt lat="45.5090719" lon="9.0301835"><ele>146.0</ele><time>2026-04-05T07:49:11.371Z</time></trkpt><trkpt lat="45.5090309" lon="9.0297755"><ele>146.0</ele><time>2026-04-05T07:49:12.371Z</time></trkpt><trkpt lat="45.5089849" lon="9.0293594"><ele>146.0</ele><time>2026-04-05T07:49:13.371Z</time></trkpt><trkpt lat="45.5089436" lon="9.0289468"><ele>146.0</ele><time>2026-04-05T07:49:14.371Z</time></trkpt><trkpt lat="45.5088987" lon="9.0285347"><ele>146.0</ele><time>2026-04-05T07:49:15.371Z</time></trkpt><trkpt lat="45.5088575" lon="9.0281203"><ele>146.0</ele><time>2026-04-05T07:49:16.371Z</time></trkpt><trkpt lat="45.508815" lon="9.0277075"><ele>146.0</ele><time>2026-04-05T07:49:17.371Z</time></trkpt><trkpt lat="45.5087688" lon="9.0272981"><ele>146.0</ele><time>2026-04-05T07:49:18.371Z</time></trkpt><trkpt lat="45.5087214" lon="9.0268868"><ele>146.0</ele><time>2026-04-05T07:49:19.371Z</time></trkpt><trkpt lat="45.5086778" lon="9.0264729"><ele>146.5</ele><time>2026-04-05T07:49:20.371Z</time></trkpt><trkpt lat="45.5086314" lon="9.0260574"><ele>147.0</ele><time>2026-04-05T07:49:21.371Z</time></trkpt><trkpt lat="45.5085854" lon="9.025639"><ele>147.0</ele><time>2026-04-05T07:49:22.371Z</time></trkpt><trkpt lat="45.50854" lon="9.0252194"><ele>147.0</ele><time>2026-04-05T07:49:23.371Z</time></trkpt><trkpt lat="45.508494" lon="9.0247976"><ele>147.5</ele><time>2026-04-05T07:49:24.371Z</time></trkpt><trkpt lat="45.5084478" lon="9.0243742"><ele>148.0</ele><time>2026-04-05T07:49:25.371Z</time></trkpt><trkpt lat="45.508402" lon="9.0239446"><ele>148.0</ele><time>2026-04-05T07:49:26.371Z</time></trkpt><trkpt lat="45.5083558" lon="9.0235163"><ele>148.0</ele><time>2026-04-05T07:49:27.371Z</time></trkpt><trkpt lat="45.5083134" lon="9.0230836"><ele>148.5</ele><time>2026-04-05T07:49:28.371Z</time></trkpt><trkpt lat="45.5082692" lon="9.0226527"><ele>149.0</ele><time>2026-04-05T07:49:29.371Z</time></trkpt><trkpt lat="45.508221" lon="9.0222176"><ele>150.0</ele><time>2026-04-05T07:49:30.371Z</time></trkpt><trkpt lat="45.5081738" lon="9.0217834"><ele>151.0</ele><time>2026-04-05T07:49:31.371Z</time></trkpt><trkpt lat="45.5081232" lon="9.0213496"><ele>151.0</ele><time>2026-04-05T07:49:32.371Z</time></trkpt><trkpt lat="45.508077" lon="9.0209127"><ele>151.0</ele><time>2026-04-05T07:49:33.371Z</time></trkpt><trkpt lat="45.5080271" lon="9.020474"><ele>150.0</ele><time>2026-04-05T07:49:34.371Z</time></trkpt><trkpt lat="45.5079825" lon="9.020037"><ele>149.0</ele><time>2026-04-05T07:49:35.371Z</time></trkpt><trkpt lat="45.5079354" lon="9.0196006"><ele>149.0</ele><time>2026-04-05T07:49:36.371Z</time></trkpt><trkpt lat="45.5078883" lon="9.0191688"><ele>149.0</ele><time>2026-04-05T07:49:37.371Z</time></trkpt><trkpt lat="45.5078405" lon="9.0187362"><ele>148.5</ele><time>2026-04-05T07:49:38.371Z</time></trkpt><trkpt lat="45.5077951" lon="9.0183008"><ele>148.0</ele><time>2026-04-05T07:49:39.371Z</time></trkpt><trkpt lat="45.5077465" lon="9.0178584"><ele>148.5</ele><time>2026-04-05T07:49:40.371Z</time></trkpt><trkpt lat="45.507699" lon="9.017421"><ele>149.0</ele><time>2026-04-05T07:49:41.371Z</time></trkpt><trkpt lat="45.5076493" lon="9.0169828"><ele>149.5</ele><time>2026-04-05T07:49:42.371Z</time></trkpt><trkpt lat="45.5076046" lon="9.0165489"><ele>150.0</ele><time>2026-04-05T07:49:43.371Z</time></trkpt><trkpt lat="45.5075567" lon="9.0161138"><ele>150.5</ele><time>2026-04-05T07:49:44.371Z</time></trkpt><trkpt lat="45.5075097" lon="9.0156792"><ele>151.0</ele><time>2026-04-05T07:49:45.371Z</time></trkpt><trkpt lat="45.5074611" lon="9.0152473"><ele>151.5</ele><time>2026-04-05T07:49:46.371Z</time></trkpt><trkpt lat="45.5074171" lon="9.0148152"><ele>152.0</ele><time>2026-04-05T07:49:47.371Z</time></trkpt><trkpt lat="45.5073732" lon="9.0143876"><ele>151.0</ele><time>2026-04-05T07:49:48.371Z</time></trkpt><trkpt lat="45.5073279" lon="9.0139618"><ele>150.0</ele><time>2026-04-05T07:49:49.371Z</time></trkpt><trkpt lat="45.5072835" lon="9.0135398"><ele>150.5</ele><time>2026-04-05T07:49:50.371Z</time></trkpt><trkpt lat="45.5072407" lon="9.013118"><ele>151.0</ele><time>2026-04-05T07:49:51.371Z</time></trkpt><trkpt lat="45.5071973" lon="9.0126993"><ele>151.0</ele><time>2026-04-05T07:49:52.371Z</time></trkpt><trkpt lat="45.5071571" lon="9.012281"><ele>151.0</ele><time>2026-04-05T07:49:53.371Z</time></trkpt><trkpt lat="45.5071152" lon="9.0118664"><ele>151.5</ele><time>2026-04-05T07:49:54.371Z</time></trkpt><trkpt lat="45.5070756" lon="9.0114512"><ele>152.0</ele><time>2026-04-05T07:49:55.371Z</time></trkpt><trkpt lat="45.5070378" lon="9.0110343"><ele>151.0</ele><time>2026-04-05T07:49:56.371Z</time></trkpt><trkpt lat="45.5070021" lon="9.0106175"><ele>150.0</ele><time>2026-04-05T07:49:57.371Z</time></trkpt><trkpt lat="45.5069629" lon="9.0102001"><ele>150.0</ele><time>2026-04-05T07:49:58.371Z</time></trkpt><trkpt lat="45.5069248" lon="9.0097823"><ele>150.0</ele><time>2026-04-05T07:49:59.371Z</time></trkpt><trkpt lat="45.5068854" lon="9.0093628"><ele>149.0</ele><time>2026-04-05T07:50:00.371Z</time></trkpt><trkpt lat="45.5068492" lon="9.0089513"><ele>148.0</ele><time>2026-04-05T07:50:01.371Z</time></trkpt><trkpt lat="45.5068126" lon="9.0085319"><ele>149.0</ele><time>2026-04-05T07:50:02.371Z</time></trkpt><trkpt lat="45.5067753" lon="9.008115"><ele>150.0</ele><time>2026-04-05T07:50:03.371Z</time></trkpt><trkpt lat="45.5067393" lon="9.0076966"><ele>150.0</ele><time>2026-04-05T07:50:04.371Z</time></trkpt><trkpt lat="45.5067044" lon="9.0072765"><ele>150.0</ele><time>2026-04-05T07:50:05.371Z</time></trkpt><trkpt lat="45.5066712" lon="9.0068559"><ele>148.0</ele><time>2026-04-05T07:50:06.371Z</time></trkpt><trkpt lat="45.5066434" lon="9.0064374"><ele>146.0</ele><time>2026-04-05T07:50:07.371Z</time></trkpt><trkpt lat="45.5066082" lon="9.006024"><ele>147.5</ele><time>2026-04-05T07:50:08.371Z</time></trkpt><trkpt lat="45.5065742" lon="9.0056092"><ele>149.0</ele><time>2026-04-05T07:50:09.371Z</time></trkpt><trkpt lat="45.5065441" lon="9.0051879"><ele>149.5</ele><time>2026-04-05T07:50:10.371Z</time></trkpt><trkpt lat="45.5065119" lon="9.004772"><ele>150.0</ele><time>2026-04-05T07:50:11.371Z</time></trkpt><trkpt lat="45.5064725" lon="9.0043769"><ele>149.5</ele><time>2026-04-05T07:50:12.371Z</time></trkpt><trkpt lat="45.5064373" lon="9.0039959"><ele>149.0</ele><time>2026-04-05T07:50:13.371Z</time></trkpt><trkpt lat="45.5064189" lon="9.0036003"><ele>148.0</ele><time>2026-04-05T07:50:14.371Z</time></trkpt><trkpt lat="45.5063946" lon="9.003205"><ele>147.0</ele><time>2026-04-05T07:50:15.371Z</time></trkpt><trkpt lat="45.506383" lon="9.0028061"><ele>146.0</ele><time>2026-04-05T07:50:16.371Z</time></trkpt><trkpt lat="45.5063698" lon="9.0023784"><ele>145.0</ele><time>2026-04-05T07:50:17.371Z</time></trkpt><trkpt lat="45.5063327" lon="9.0019254"><ele>147.0</ele><time>2026-04-05T07:50:18.371Z</time></trkpt><trkpt lat="45.506301" lon="9.0014721"><ele>149.0</ele><time>2026-04-05T07:50:19.371Z</time></trkpt><trkpt lat="45.5062479" lon="9.0010182"><ele>149.0</ele><time>2026-04-05T07:50:20.371Z</time></trkpt><trkpt lat="45.5061427" lon="9.0005383"><ele>149.0</ele><time>2026-04-05T07:50:21.371Z</time></trkpt><trkpt lat="45.5061141" lon="9.0000166"><ele>149.0</ele><time>2026-04-05T07:50:22.371Z</time></trkpt><trkpt lat="45.5060909" lon="8.999529"><ele>149.0</ele><time>2026-04-05T07:50:23.371Z</time></trkpt><trkpt lat="45.5060507" lon="8.9990634"><ele>149.0</ele><time>2026-04-05T07:50:24.371Z</time></trkpt><trkpt lat="45.5060151" lon="8.9986115"><ele>149.0</ele><time>2026-04-05T07:50:25.371Z</time></trkpt><trkpt lat="45.5059798" lon="8.9981725"><ele>149.5</ele><time>2026-04-05T07:50:26.371Z</time></trkpt><trkpt lat="45.5059458" lon="8.9977405"><ele>150.0</ele><time>2026-04-05T07:50:27.371Z</time></trkpt><trkpt lat="45.5059157" lon="8.9973007"><ele>151.5</ele><time>2026-04-05T07:50:28.371Z</time></trkpt><trkpt lat="45.5058858" lon="8.9968614"><ele>153.0</ele><time>2026-04-05T07:50:29.371Z</time></trkpt><trkpt lat="45.5058483" lon="8.9964223"><ele>153.0</ele><time>2026-04-05T07:50:30.371Z</time></trkpt><trkpt lat="45.5058149" lon="8.9959828"><ele>153.0</ele><time>2026-04-05T07:50:31.371Z</time></trkpt><trkpt lat="45.5057849" lon="8.9955429"><ele>153.0</ele><time>2026-04-05T07:50:32.371Z</time></trkpt><trkpt lat="45.505751" lon="8.9951073"><ele>153.0</ele><time>2026-04-05T07:50:33.371Z</time></trkpt><trkpt lat="45.5057147" lon="8.9946772"><ele>152.5</ele><time>2026-04-05T07:50:34.371Z</time></trkpt><trkpt lat="45.5056764" lon="8.994251"><ele>152.0</ele><time>2026-04-05T07:50:35.371Z</time></trkpt><trkpt lat="45.5056409" lon="8.9938239"><ele>152.0</ele><time>2026-04-05T07:50:36.371Z</time></trkpt><trkpt lat="45.5056057" lon="8.9933916"><ele>152.0</ele><time>2026-04-05T07:50:37.371Z</time></trkpt><trkpt lat="45.5055713" lon="8.9929608"><ele>151.5</ele><time>2026-04-05T07:50:38.371Z</time></trkpt><trkpt lat="45.505534" lon="8.9925243"><ele>151.0</ele><time>2026-04-05T07:50:39.371Z</time></trkpt><trkpt lat="45.5055003" lon="8.9920863"><ele>150.5</ele><time>2026-04-05T07:50:40.371Z</time></trkpt><trkpt lat="45.5054609" lon="8.9916474"><ele>150.0</ele><time>2026-04-05T07:50:41.371Z</time></trkpt><trkpt lat="45.5054239" lon="8.9912034"><ele>150.0</ele><time>2026-04-05T07:50:42.371Z</time></trkpt><trkpt lat="45.5053906" lon="8.9907638"><ele>150.0</ele><time>2026-04-05T07:50:43.371Z</time></trkpt><trkpt lat="45.5053523" lon="8.9903338"><ele>151.5</ele><time>2026-04-05T07:50:44.371Z</time></trkpt><trkpt lat="45.5053123" lon="8.9899144"><ele>153.0</ele><time>2026-04-05T07:50:45.371Z</time></trkpt><trkpt lat="45.5052749" lon="8.9894985"><ele>154.0</ele><time>2026-04-05T07:50:46.371Z</time></trkpt><trkpt lat="45.5052451" lon="8.989086"><ele>155.0</ele><time>2026-04-05T07:50:47.371Z</time></trkpt><trkpt lat="45.5052105" lon="8.988665"><ele>154.0</ele><time>2026-04-05T07:50:48.371Z</time></trkpt><trkpt lat="45.5051726" lon="8.9882449"><ele>153.0</ele><time>2026-04-05T07:50:49.371Z</time></trkpt><trkpt lat="45.505141" lon="8.9878172"><ele>152.5</ele><time>2026-04-05T07:50:50.371Z</time></trkpt><trkpt lat="45.5051085" lon="8.987385"><ele>152.0</ele><time>2026-04-05T07:50:51.371Z</time></trkpt><trkpt lat="45.5050729" lon="8.9869514"><ele>153.0</ele><time>2026-04-05T07:50:52.371Z</time></trkpt><trkpt lat="45.5050375" lon="8.9865162"><ele>154.0</ele><time>2026-04-05T07:50:53.371Z</time></trkpt><trkpt lat="45.5050066" lon="8.9860719"><ele>153.0</ele><time>2026-04-05T07:50:54.371Z</time></trkpt><trkpt lat="45.504975" lon="8.9856338"><ele>152.0</ele><time>2026-04-05T07:50:55.371Z</time></trkpt><trkpt lat="45.5049418" lon="8.9851944"><ele>151.5</ele><time>2026-04-05T07:50:56.371Z</time></trkpt><trkpt lat="45.5049061" lon="8.9847583"><ele>151.0</ele><time>2026-04-05T07:50:57.371Z</time></trkpt><trkpt lat="45.5048722" lon="8.9843272"><ele>151.5</ele><time>2026-04-05T07:50:58.371Z</time></trkpt><trkpt lat="45.5048347" lon="8.9839023"><ele>152.0</ele><time>2026-04-05T07:50:59.371Z</time></trkpt><trkpt lat="45.5048" lon="8.9834809"><ele>151.0</ele><time>2026-04-05T07:51:00.371Z</time></trkpt><trkpt lat="45.5047637" lon="8.9830598"><ele>150.0</ele><time>2026-04-05T07:51:01.371Z</time></trkpt><trkpt lat="45.5047275" lon="8.9826329"><ele>149.5</ele><time>2026-04-05T07:51:02.371Z</time></trkpt><trkpt lat="45.5046932" lon="8.9822057"><ele>149.0</ele><time>2026-04-05T07:51:03.371Z</time></trkpt><trkpt lat="45.5046605" lon="8.9817775"><ele>149.5</ele><time>2026-04-05T07:51:04.371Z</time></trkpt><trkpt lat="45.5046243" lon="8.981347"><ele>150.0</ele><time>2026-04-05T07:51:05.371Z</time></trkpt><trkpt lat="45.5045934" lon="8.9809101"><ele>150.5</ele><time>2026-04-05T07:51:06.371Z</time></trkpt><trkpt lat="45.504559" lon="8.980475"><ele>151.0</ele><time>2026-04-05T07:51:07.371Z</time></trkpt><trkpt lat="45.504524" lon="8.9800334"><ele>151.5</ele><time>2026-04-05T07:51:08.371Z</time></trkpt><trkpt lat="45.5044871" lon="8.9795926"><ele>152.0</ele><time>2026-04-05T07:51:09.371Z</time></trkpt><trkpt lat="45.5044488" lon="8.9791493"><ele>151.0</ele><time>2026-04-05T07:51:10.371Z</time></trkpt><trkpt lat="45.5044117" lon="8.9787212"><ele>150.0</ele><time>2026-04-05T07:51:11.371Z</time></trkpt><trkpt lat="45.5043808" lon="8.9783112"><ele>149.5</ele><time>2026-04-05T07:51:12.371Z</time></trkpt><trkpt lat="45.5043459" lon="8.9779168"><ele>149.0</ele><time>2026-04-05T07:51:13.371Z</time></trkpt><trkpt lat="45.504308" lon="8.9775218"><ele>149.5</ele><time>2026-04-05T07:51:14.371Z</time></trkpt><trkpt lat="45.5042632" lon="8.9771185"><ele>150.0</ele><time>2026-04-05T07:51:15.371Z</time></trkpt><trkpt lat="45.5042259" lon="8.9767033"><ele>150.0</ele><time>2026-04-05T07:51:16.371Z</time></trkpt><trkpt lat="45.50419" lon="8.9762982"><ele>150.0</ele><time>2026-04-05T07:51:17.371Z</time></trkpt><trkpt lat="45.5041524" lon="8.9758943"><ele>151.5</ele><time>2026-04-05T07:51:18.371Z</time></trkpt><trkpt lat="45.5041235" lon="8.9754964"><ele>153.0</ele><time>2026-04-05T07:51:19.371Z</time></trkpt><trkpt lat="45.5040936" lon="8.9751072"><ele>152.5</ele><time>2026-04-05T07:51:20.371Z</time></trkpt><trkpt lat="45.5040634" lon="8.9747213"><ele>152.0</ele><time>2026-04-05T07:51:21.371Z</time></trkpt><trkpt lat="45.5040307" lon="8.9743343"><ele>153.0</ele><time>2026-04-05T07:51:22.371Z</time></trkpt><trkpt lat="45.5039985" lon="8.9739371"><ele>154.0</ele><time>2026-04-05T07:51:23.371Z</time></trkpt><trkpt lat="45.5039631" lon="8.9735226"><ele>153.5</ele><time>2026-04-05T07:51:24.371Z</time></trkpt><trkpt lat="45.5039287" lon="8.97309"><ele>153.0</ele><time>2026-04-05T07:51:25.371Z</time></trkpt><trkpt lat="45.5038942" lon="8.9726511"><ele>152.0</ele><time>2026-04-05T07:51:26.371Z</time></trkpt><trkpt lat="45.5038589" lon="8.9722083"><ele>151.0</ele><time>2026-04-05T07:51:27.371Z</time></trkpt><trkpt lat="45.5038224" lon="8.9717706"><ele>150.5</ele><time>2026-04-05T07:51:28.371Z</time></trkpt><trkpt lat="45.503793" lon="8.9713255"><ele>150.0</ele><time>2026-04-05T07:51:29.371Z</time></trkpt><trkpt lat="45.5037655" lon="8.9708737"><ele>150.0</ele><time>2026-04-05T07:51:30.371Z</time></trkpt><trkpt lat="45.5037427" lon="8.9704072"><ele>150.0</ele><time>2026-04-05T07:51:31.371Z</time></trkpt><trkpt lat="45.5037189" lon="8.9699526"><ele>151.0</ele><time>2026-04-05T07:51:32.371Z</time></trkpt><trkpt lat="45.503686" lon="8.9695139"><ele>152.0</ele><time>2026-04-05T07:51:33.371Z</time></trkpt><trkpt lat="45.5036445" lon="8.9690987"><ele>152.0</ele><time>2026-04-05T07:51:34.371Z</time></trkpt><trkpt lat="45.5036138" lon="8.9686909"><ele>152.0</ele><time>2026-04-05T07:51:35.371Z</time></trkpt><trkpt lat="45.5035824" lon="8.9682911"><ele>151.5</ele><time>2026-04-05T07:51:36.371Z</time></trkpt><trkpt lat="45.5035513" lon="8.967903"><ele>151.0</ele><time>2026-04-05T07:51:37.371Z</time></trkpt><trkpt lat="45.5035194" lon="8.9675122"><ele>150.5</ele><time>2026-04-05T07:51:38.371Z</time></trkpt><trkpt lat="45.5034854" lon="8.9671139"><ele>150.0</ele><time>2026-04-05T07:51:39.371Z</time></trkpt><trkpt lat="45.5034514" lon="8.966704"><ele>151.0</ele><time>2026-04-05T07:51:40.371Z</time></trkpt><trkpt lat="45.5034161" lon="8.966289"><ele>152.0</ele><time>2026-04-05T07:51:41.371Z</time></trkpt><trkpt lat="45.5033859" lon="8.9658725"><ele>151.5</ele><time>2026-04-05T07:51:42.371Z</time></trkpt><trkpt lat="45.5033544" lon="8.9654494"><ele>151.0</ele><time>2026-04-05T07:51:43.371Z</time></trkpt><trkpt lat="45.5033208" lon="8.9650238"><ele>150.5</ele><time>2026-04-05T07:51:44.371Z</time></trkpt><trkpt lat="45.5032879" lon="8.9645984"><ele>150.0</ele><time>2026-04-05T07:51:45.371Z</time></trkpt><trkpt lat="45.5032571" lon="8.9641853"><ele>151.5</ele><time>2026-04-05T07:51:46.371Z</time></trkpt><trkpt lat="45.5032242" lon="8.9637844"><ele>153.0</ele><time>2026-04-05T07:51:47.371Z</time></trkpt><trkpt lat="45.5031881" lon="8.9634055"><ele>153.0</ele><time>2026-04-05T07:51:48.371Z</time></trkpt><trkpt lat="45.5031563" lon="8.9630353"><ele>153.0</ele><time>2026-04-05T07:51:49.371Z</time></trkpt><trkpt lat="45.5031273" lon="8.9626707"><ele>152.0</ele><time>2026-04-05T07:51:50.371Z</time></trkpt><trkpt lat="45.5030971" lon="8.9623192"><ele>151.0</ele><time>2026-04-05T07:51:51.371Z</time></trkpt><trkpt lat="45.5030696" lon="8.9619679"><ele>151.0</ele><time>2026-04-05T07:51:52.371Z</time></trkpt><trkpt lat="45.5030365" lon="8.9616146"><ele>151.0</ele><time>2026-04-05T07:51:53.372Z</time></trkpt><trkpt lat="45.5030021" lon="8.9612539"><ele>151.0</ele><time>2026-04-05T07:51:54.371Z</time></trkpt><trkpt lat="45.5029672" lon="8.960894"><ele>151.0</ele><time>2026-04-05T07:51:55.371Z</time></trkpt><trkpt lat="45.5029345" lon="8.9605323"><ele>151.5</ele><time>2026-04-05T07:51:56.371Z</time></trkpt><trkpt lat="45.5029044" lon="8.9601675"><ele>152.0</ele><time>2026-04-05T07:51:57.371Z</time></trkpt><trkpt lat="45.5028785" lon="8.9597967"><ele>152.0</ele><time>2026-04-05T07:51:58.371Z</time></trkpt><trkpt lat="45.502855" lon="8.959422"><ele>152.0</ele><time>2026-04-05T07:51:59.371Z</time></trkpt><trkpt lat="45.5028249" lon="8.959039"><ele>152.5</ele><time>2026-04-05T07:52:00.371Z</time></trkpt><trkpt lat="45.5027934" lon="8.9586587"><ele>153.0</ele><time>2026-04-05T07:52:01.371Z</time></trkpt><trkpt lat="45.5027639" lon="8.9582757"><ele>153.0</ele><time>2026-04-05T07:52:02.371Z</time></trkpt><trkpt lat="45.5027383" lon="8.9578926"><ele>153.0</ele><time>2026-04-05T07:52:03.371Z</time></trkpt><trkpt lat="45.5027074" lon="8.9575107"><ele>152.0</ele><time>2026-04-05T07:52:04.371Z</time></trkpt><trkpt lat="45.5026793" lon="8.9571262"><ele>151.0</ele><time>2026-04-05T07:52:05.371Z</time></trkpt><trkpt lat="45.5026465" lon="8.95674"><ele>152.0</ele><time>2026-04-05T07:52:06.371Z</time></trkpt><trkpt lat="45.5026112" lon="8.9563581"><ele>153.0</ele><time>2026-04-05T07:52:07.371Z</time></trkpt><trkpt lat="45.5025809" lon="8.9559712"><ele>153.0</ele><time>2026-04-05T07:52:08.371Z</time></trkpt><trkpt lat="45.5025484" lon="8.9555822"><ele>153.0</ele><time>2026-04-05T07:52:09.371Z</time></trkpt><trkpt lat="45.5025158" lon="8.9551931"><ele>154.0</ele><time>2026-04-05T07:52:10.371Z</time></trkpt><trkpt lat="45.5024859" lon="8.9548017"><ele>155.0</ele><time>2026-04-05T07:52:11.371Z</time></trkpt><trkpt lat="45.5024548" lon="8.9544053"><ele>154.0</ele><time>2026-04-05T07:52:12.371Z</time></trkpt><trkpt lat="45.502415" lon="8.9540149"><ele>153.0</ele><time>2026-04-05T07:52:13.371Z</time></trkpt><trkpt lat="45.5023719" lon="8.9536228"><ele>152.5</ele><time>2026-04-05T07:52:14.371Z</time></trkpt><trkpt lat="45.5023312" lon="8.9532326"><ele>152.0</ele><time>2026-04-05T07:52:15.371Z</time></trkpt><trkpt lat="45.5022921" lon="8.9528397"><ele>153.5</ele><time>2026-04-05T07:52:16.371Z</time></trkpt><trkpt lat="45.5022553" lon="8.9524494"><ele>155.0</ele><time>2026-04-05T07:52:17.371Z</time></trkpt><trkpt lat="45.5022142" lon="8.9520549"><ele>153.5</ele><time>2026-04-05T07:52:18.371Z</time></trkpt><trkpt lat="45.5021733" lon="8.9516607"><ele>152.0</ele><time>2026-04-05T07:52:19.371Z</time></trkpt><trkpt lat="45.5021271" lon="8.9512665"><ele>151.0</ele><time>2026-04-05T07:52:20.371Z</time></trkpt><trkpt lat="45.5020845" lon="8.9508715"><ele>150.0</ele><time>2026-04-05T07:52:21.371Z</time></trkpt><trkpt lat="45.5020413" lon="8.9504812"><ele>150.0</ele><time>2026-04-05T07:52:22.377Z</time></trkpt><trkpt lat="45.502001" lon="8.950103"><ele>150.0</ele><time>2026-04-05T07:52:23.377Z</time></trkpt><trkpt lat="45.5019587" lon="8.9497427"><ele>150.0</ele><time>2026-04-05T07:52:24.377Z</time></trkpt><trkpt lat="45.5019193" lon="8.9493896"><ele>150.0</ele><time>2026-04-05T07:52:25.377Z</time></trkpt><trkpt lat="45.5018777" lon="8.9490358"><ele>150.5</ele><time>2026-04-05T07:52:26.377Z</time></trkpt><trkpt lat="45.5018327" lon="8.9486752"><ele>151.0</ele><time>2026-04-05T07:52:27.377Z</time></trkpt><trkpt lat="45.5017829" lon="8.948313"><ele>151.5</ele><time>2026-04-05T07:52:28.377Z</time></trkpt><trkpt lat="45.5017373" lon="8.9479438"><ele>152.0</ele><time>2026-04-05T07:52:29.377Z</time></trkpt><trkpt lat="45.5016933" lon="8.9475746"><ele>152.0</ele><time>2026-04-05T07:52:30.377Z</time></trkpt><trkpt lat="45.5016496" lon="8.9472071"><ele>152.0</ele><time>2026-04-05T07:52:31.377Z</time></trkpt><trkpt lat="45.501607" lon="8.9468423"><ele>152.0</ele><time>2026-04-05T07:52:32.377Z</time></trkpt><trkpt lat="45.5015667" lon="8.946471"><ele>152.0</ele><time>2026-04-05T07:52:33.377Z</time></trkpt><trkpt lat="45.5015273" lon="8.9461062"><ele>152.5</ele><time>2026-04-05T07:52:34.377Z</time></trkpt><trkpt lat="45.5014882" lon="8.9457411"><ele>153.0</ele><time>2026-04-05T07:52:35.377Z</time></trkpt><trkpt lat="45.5014499" lon="8.9453795"><ele>154.0</ele><time>2026-04-05T07:52:36.377Z</time></trkpt><trkpt lat="45.5014092" lon="8.9450215"><ele>155.0</ele><time>2026-04-05T07:52:37.377Z</time></trkpt><trkpt lat="45.5013716" lon="8.9446642"><ele>155.0</ele><time>2026-04-05T07:52:38.377Z</time></trkpt><trkpt lat="45.501333" lon="8.9443039"><ele>155.0</ele><time>2026-04-05T07:52:39.377Z</time></trkpt><trkpt lat="45.5012972" lon="8.9439468"><ele>154.5</ele><time>2026-04-05T07:52:40.377Z</time></trkpt><trkpt lat="45.5012621" lon="8.9435903"><ele>154.0</ele><time>2026-04-05T07:52:41.377Z</time></trkpt><trkpt lat="45.5012223" lon="8.9432302"><ele>152.0</ele><time>2026-04-05T07:52:42.377Z</time></trkpt><trkpt lat="45.5011847" lon="8.9428722"><ele>150.0</ele><time>2026-04-05T07:52:43.377Z</time></trkpt><trkpt lat="45.5011416" lon="8.9425128"><ele>149.5</ele><time>2026-04-05T07:52:44.377Z</time></trkpt><trkpt lat="45.5011045" lon="8.9421545"><ele>149.0</ele><time>2026-04-05T07:52:45.377Z</time></trkpt><trkpt lat="45.5010657" lon="8.9417923"><ele>149.5</ele><time>2026-04-05T07:52:46.377Z</time></trkpt><trkpt lat="45.5010292" lon="8.94143"><ele>150.0</ele><time>2026-04-05T07:52:47.377Z</time></trkpt><trkpt lat="45.500992" lon="8.9410676"><ele>150.5</ele><time>2026-04-05T07:52:48.377Z</time></trkpt><trkpt lat="45.5009507" lon="8.9407032"><ele>151.0</ele><time>2026-04-05T07:52:49.377Z</time></trkpt><trkpt lat="45.5009105" lon="8.9403367"><ele>152.5</ele><time>2026-04-05T07:52:50.377Z</time></trkpt><trkpt lat="45.5008786" lon="8.9399767"><ele>154.0</ele><time>2026-04-05T07:52:51.377Z</time></trkpt><trkpt lat="45.5008421" lon="8.9396218"><ele>154.0</ele><time>2026-04-05T07:52:52.377Z</time></trkpt><trkpt lat="45.5008103" lon="8.9392836"><ele>154.0</ele><time>2026-04-05T07:52:53.377Z</time></trkpt><trkpt lat="45.5007789" lon="8.9389471"><ele>153.5</ele><time>2026-04-05T07:52:54.377Z</time></trkpt><trkpt lat="45.5007486" lon="8.9386111"><ele>153.0</ele><time>2026-04-05T07:52:55.377Z</time></trkpt><trkpt lat="45.5007174" lon="8.9382652"><ele>152.0</ele><time>2026-04-05T07:52:56.377Z</time></trkpt><trkpt lat="45.500684" lon="8.9379254"><ele>151.0</ele><time>2026-04-05T07:52:57.377Z</time></trkpt><trkpt lat="45.5006547" lon="8.9375853"><ele>152.5</ele><time>2026-04-05T07:52:58.377Z</time></trkpt><trkpt lat="45.5006206" lon="8.937239"><ele>154.0</ele><time>2026-04-05T07:52:59.377Z</time></trkpt><trkpt lat="45.5005933" lon="8.9368863"><ele>155.5</ele><time>2026-04-05T07:53:00.377Z</time></trkpt><trkpt lat="45.5005655" lon="8.9365345"><ele>157.0</ele><time>2026-04-05T07:53:01.377Z</time></trkpt><trkpt lat="45.5005403" lon="8.9361822"><ele>156.5</ele><time>2026-04-05T07:53:02.377Z</time></trkpt><trkpt lat="45.5005191" lon="8.9358123"><ele>156.0</ele><time>2026-04-05T07:53:03.377Z</time></trkpt><trkpt lat="45.5004966" lon="8.9354416"><ele>156.0</ele><time>2026-04-05T07:53:04.377Z</time></trkpt><trkpt lat="45.5004727" lon="8.9350668"><ele>156.0</ele><time>2026-04-05T07:53:05.377Z</time></trkpt><trkpt lat="45.5004511" lon="8.9346911"><ele>155.5</ele><time>2026-04-05T07:53:06.377Z</time></trkpt><trkpt lat="45.5004261" lon="8.9343119"><ele>155.0</ele><time>2026-04-05T07:53:07.377Z</time></trkpt><trkpt lat="45.5004014" lon="8.9339308"><ele>154.0</ele><time>2026-04-05T07:53:08.377Z</time></trkpt><trkpt lat="45.5003766" lon="8.9335593"><ele>153.0</ele><time>2026-04-05T07:53:09.377Z</time></trkpt><trkpt lat="45.5003573" lon="8.9331958"><ele>152.5</ele><time>2026-04-05T07:53:10.377Z</time></trkpt><trkpt lat="45.5003364" lon="8.9328452"><ele>152.0</ele><time>2026-04-05T07:53:11.377Z</time></trkpt><trkpt lat="45.5003199" lon="8.9325023"><ele>152.0</ele><time>2026-04-05T07:53:12.377Z</time></trkpt><trkpt lat="45.5003054" lon="8.9321726"><ele>152.0</ele><time>2026-04-05T07:53:13.377Z</time></trkpt><trkpt lat="45.5002926" lon="8.9318555"><ele>152.0</ele><time>2026-04-05T07:53:14.377Z</time></trkpt><trkpt lat="45.5002792" lon="8.9315511"><ele>152.0</ele><time>2026-04-05T07:53:15.377Z</time></trkpt><trkpt lat="45.5002605" lon="8.9312614"><ele>152.0</ele><time>2026-04-05T07:53:16.377Z</time></trkpt><trkpt lat="45.5002397" lon="8.930983"><ele>152.33333333333331</ele><time>2026-04-05T07:53:17.377Z</time></trkpt><trkpt lat="45.5002112" lon="8.9307239"><ele>152.66666666666666</ele><time>2026-04-05T07:53:18.377Z</time></trkpt><trkpt lat="45.5001879" lon="8.9304747"><ele>153.0</ele><time>2026-04-05T07:53:19.377Z</time></trkpt><trkpt lat="45.5001615" lon="8.9302407"><ele>152.0</ele><time>2026-04-05T07:53:20.377Z</time></trkpt><trkpt lat="45.5001505" lon="8.9300233"><ele>151.0</ele><time>2026-04-05T07:53:21.377Z</time></trkpt><trkpt lat="45.5001523" lon="8.929817"><ele>150.0</ele><time>2026-04-05T07:53:22.377Z</time></trkpt><trkpt lat="45.5001925" lon="8.9296059"><ele>150.0</ele><time>2026-04-05T07:53:23.377Z</time></trkpt><trkpt lat="45.5002135" lon="8.9294091"><ele>150.0</ele><time>2026-04-05T07:53:24.377Z</time></trkpt><trkpt lat="45.5002685" lon="8.929224"><ele>150.0</ele><time>2026-04-05T07:53:25.377Z</time></trkpt><trkpt lat="45.5003536" lon="8.9290318"><ele>150.0</ele><time>2026-04-05T07:53:26.377Z</time></trkpt><trkpt lat="45.5004602" lon="8.9288455"><ele>150.0</ele><time>2026-04-05T07:53:27.377Z</time></trkpt><trkpt lat="45.5005949" lon="8.9286613"><ele>150.0</ele><time>2026-04-05T07:53:28.377Z</time></trkpt><trkpt lat="45.5007475" lon="8.928487"><ele>150.0</ele><time>2026-04-05T07:53:29.377Z</time></trkpt><trkpt lat="45.5009133" lon="8.9282933"><ele>150.0</ele><time>2026-04-05T07:53:30.377Z</time></trkpt><trkpt lat="45.5010804" lon="8.9281018"><ele>150.0</ele><time>2026-04-05T07:53:31.377Z</time></trkpt><trkpt lat="45.50122" lon="8.9279137"><ele>150.0</ele><time>2026-04-05T07:53:32.377Z</time></trkpt><trkpt lat="45.5013364" lon="8.9277366"><ele>150.66666666666666</ele><time>2026-04-05T07:53:33.377Z</time></trkpt><trkpt lat="45.5014206" lon="8.9275503"><ele>151.33333333333331</ele><time>2026-04-05T07:53:34.377Z</time></trkpt><trkpt lat="45.5014718" lon="8.9273515"><ele>152.0</ele><time>2026-04-05T07:53:35.377Z</time></trkpt><trkpt lat="45.5015017" lon="8.9271412"><ele>152.0</ele><time>2026-04-05T07:53:36.377Z</time></trkpt><trkpt lat="45.5015057" lon="8.9269233"><ele>152.0</ele><time>2026-04-05T07:53:37.377Z</time></trkpt><trkpt lat="45.5014803" lon="8.9267051"><ele>152.0</ele><time>2026-04-05T07:53:38.377Z</time></trkpt><trkpt lat="45.5014456" lon="8.926487"><ele>152.25</ele><time>2026-04-05T07:53:39.377Z</time></trkpt><trkpt lat="45.5014081" lon="8.9262856"><ele>152.5</ele><time>2026-04-05T07:53:40.377Z</time></trkpt><trkpt lat="45.5013739" lon="8.9260949"><ele>152.75</ele><time>2026-04-05T07:53:41.377Z</time></trkpt><trkpt lat="45.5013517" lon="8.9259025"><ele>153.0</ele><time>2026-04-05T07:53:42.377Z</time></trkpt><trkpt lat="45.5013382" lon="8.9257129"><ele>153.0</ele><time>2026-04-05T07:53:43.377Z</time></trkpt><trkpt lat="45.5013272" lon="8.9255214"><ele>153.0</ele><time>2026-04-05T07:53:44.377Z</time></trkpt><trkpt lat="45.5013163" lon="8.9253359"><ele>153.0</ele><time>2026-04-05T07:53:45.377Z</time></trkpt><trkpt lat="45.5013041" lon="8.9251549"><ele>153.0</ele><time>2026-04-05T07:53:46.377Z</time></trkpt><trkpt lat="45.5012863" lon="8.9249886"><ele>152.83333333333334</ele><time>2026-04-05T07:53:47.377Z</time></trkpt><trkpt lat="45.5012596" lon="8.924843"><ele>152.66666666666666</ele><time>2026-04-05T07:53:48.377Z</time></trkpt><trkpt lat="45.5012326" lon="8.9247152"><ele>152.5</ele><time>2026-04-05T07:53:49.377Z</time></trkpt><trkpt lat="45.5012108" lon="8.9246087"><ele>152.33333333333331</ele><time>2026-04-05T07:53:50.377Z</time></trkpt><trkpt lat="45.5011883" lon="8.9245165"><ele>152.16666666666666</ele><time>2026-04-05T07:53:51.377Z</time></trkpt><trkpt lat="45.501169" lon="8.9244239"><ele>152.0</ele><time>2026-04-05T07:53:52.377Z</time></trkpt><trkpt lat="45.501143" lon="8.924267"><ele>149.0</ele><time>2026-04-05T07:53:54.377Z</time></trkpt><trkpt lat="45.5011201" lon="8.924152"><ele>153.0</ele><time>2026-04-05T07:53:56.377Z</time></trkpt><trkpt lat="45.5011095" lon="8.9240579"><ele>153.0</ele><time>2026-04-05T07:53:59.377Z</time></trkpt></trkseg></trk></gpx>